     2              OBSERVATION DATA    GPS                 RINEX VERSION / TYPE
teqc 1998Mar9 19981223 01:42:23UTC                          PGM / RUN BY / DATE
                                                            COMMENT
Original Marker Name: 0510                                  COMMENT
Campaign Name: HPGN 1998                                    COMMENT
4-Character Station Name: 0510                              COMMENT
6-Character Antenna Code: TRMCMP                            COMMENT
Vertical Measurement Point: BPA                             COMMENT
Vertical Offset to Rinex Ref. Point: 0.0000                 COMMENT
Radial Measurement Point: RRP                               COMMENT
Radial Offset to Rinex Ref. Point: 0.0000                   COMMENT
Antenna Height from Field Measurement: 1.8910 m             COMMENT
Original XYZ: -2640301.8180 -4426316.0569 3745293.5950      COMMENT
New XYZ position is based on association with SCEC monument COMMENT
E1F1Q0T9+0011. Position of that monument is believed to be  COMMENT
valid to within 1 m horizontally; vertical accuracy         COMMENT
should be no worse than 3-times this value.                 COMMENT
                                                            COMMENT
Revised Rinex header created by UCSD GPS archive for        COMMENT
GSAC on 03-Jun-1999 (1999:154) 16:51:51 GMT                 COMMENT
For assistance contact dagnew@ucsd.edu or hjohnson@ucsd.edu COMMENT
                                                            COMMENT
HPGN CALIF STA 05-10 1990                                   MARKER NAME
unknown CALIF DEPT TRANSPORTATION                           OBSERVER / AGENCY
1481 TRIMBLE 4000 SSE NP 7.24; SP 3.07                      REC # / TYPE / VERS
78934 TR GEOD L1/L2 GP                                      ANT # / TYPE
 -2640303.0000 -4426324.0000  3745291.0000                  APPROX POSITION XYZ
        1.8910        0.0000        0.0000                  ANTENNA: DELTA H/E/N
     1     1     0                                          WAVELENGTH FACT L1/2
     7    C1    L1    L2    P1    P2    S1    S2            # / TYPES OF OBSERV
     0                                                      INTERVAL
  1998     7     8    20    15   30.000000                  TIME OF FIRST OBS
  1998     7     9     1    50   15.000000                  TIME OF LAST OBS
                                                            END OF HEADER
 98  7  8 20 15 30.0000000  0  6G 6G21G17G22G23G26
  20838332.1644    5291765.35258   4116399.45457                  20838332.0234
        31.5004         30.2504
  23705011.5944   -3629064.06856  -2723589.42855                  23705013.9494
        13.0004          4.7504
  20656117.9064    1583908.34458   1232725.30057                  20656118.1174
        32.0004         34.2504
  23172240.4924    1485011.74656    884908.31955                  23172242.2154
        15.0004          7.7504
  21175384.8444   -2211334.65157  -1710177.18056                  21175384.9844
        27.5004         24.7504
  22195008.4304     614759.51357
        22.0004
 98  7  8 20 15 45.0000000  0  6G 6G21G17G22G23G26
  20847176.5554    5338243.62148   4152616.26747                  20847176.2734
        31.5004         30.0004
  23700423.3284   -3653175.17746  -2742377.26945                  23700425.6134
        13.0004          4.7504
  20659412.3754    1601221.60548   1246216.14247                  20659412.3404
        31.7504         33.0004
  23176529.9694    1507553.01746    902472.93545                  23176531.7974
        15.7504          8.0004
  21174553.2504   -2215704.94147  -1713582.57946                  21174553.4264
        27.5004         24.2504
  22198317.1804     632145.31347
        22.0004
 98  7  8 20 16  0.0000000  0  6G 6G21G17G22G23G26
  20856047.9774    5384863.22548   4188943.21647                  20856047.9654
        31.5004         30.5004
  23695847.7344   -3677221.59646  -2761114.68445                  23695849.9494
        12.7504          5.0004
  20662721.0474    1618607.90248   1259763.90547                  20662721.1524
        31.7504         32.7504
  23180848.2504    1530244.82346    920154.85245                  23180849.5274
        15.5004          8.2504
  21173746.1954   -2219946.05847  -1716887.31646                  21173746.2774
        27.5004         24.7504
  22201660.0704     649712.00047        -1.84356                  22201659.5314
        22.0004         13.7504
 98  7  8 20 16 15.0000000  0  6G 6G21G17G22G23G26
  20864946.0234    5431622.35748   4225378.88447                  20864945.9184
        31.5004         30.2504
  23691283.1564   -3701206.27246  -2779803.98845                  23691284.8204
        12.7504          4.7504
  20666043.0554    1636066.38548   1273367.92647                  20666043.0904
        31.7504         33.2504
  23185194.7734    1553086.01946    937953.17345                  23185196.3094
        15.7504          8.2504
  21172963.7504   -2224057.72247  -1720091.18846                  21172963.8674
        27.5004         24.5004
  22205037.5314     667461.33847     13828.82646                  22205037.6724
        21.7504         13.5004
 98  7  8 20 16 30.0000000  0  6G 6G21G17G22G23G26
  20873870.2584    5478519.05848   4261921.74847                  20873870.2344
        31.0004         30.0004
  23686730.8134   -3725129.64946  -2798445.54745                  23686732.8634
        12.7504          5.2504
  20669379.4304    1653597.78448   1287028.76047                  20669379.5004
        32.0004         33.7504
  23189569.5234    1576074.19746    955866.03345                  23189570.9414
        16.0004          8.0004
  21172205.0474   -2228043.74547  -1723197.15146                  21172205.1414
        27.5004         24.2504
  22208449.0234     685389.63747     27798.94046                  22208449.6684
        21.7504         13.7504
 98  7  8 20 16 45.0000000  0  6G 6G21G17G22G23G26
  20882819.9304    5525551.85648   4298570.66547                  20882819.9184
        30.7504         30.0004
  23682190.2734   -3748992.82346  -2817040.15445                  23682192.0314
        13.0004          5.0004
  20672729.5004    1671202.48448   1300746.70847                  20672729.4304
        32.2504         33.5004
  23193971.5084    1599208.93946    973893.10445                  23193972.9734
        15.7504          8.0004
  21171470.0474   -2231905.46447  -1726206.26446                  21171470.2464
        27.2504         24.0004
  22211894.2734     703494.12747     41906.35546                  22211894.8244
        22.0004         13.7504
 98  7  8 20 17  0.0000000  0  6G 6G21G17G22G23G26
  20891795.5234    5572716.86748   4335322.60247                  20891795.3364
        31.0004         29.5004
  23677660.1484   -3772797.47946  -2835589.20945                  23677662.7974
        13.0004          5.0004
  20676093.0234    1688877.73048   1314519.63347                  20676092.9884
        32.2504         33.7504
  23198401.3524    1622486.40046    992031.37145                  23198402.5124
        16.0004          8.2504
  21170758.5554   -2235646.40647  -1729121.26246                  21170758.6724
        27.2504         24.5004
  22215371.6954     721769.81847     56147.16046                  22215372.1294
        20.7504         13.2504
 98  7  8 20 17 15.0000000  0  6G 6G21G17G22G23G26
  20900796.4224    5620016.45548   4372179.40347                  20900796.3404
        30.7504         30.2504
  23673140.9454   -3796541.69046  -2854091.12745                  23673143.0314
        12.2504          5.2504
  20679469.8914    1706624.12448   1328347.99247                  20679469.9384
        32.0004         33.5004
  23202858.3674    1645909.13246   1010282.82845                  23202860.0204
        15.7504          8.2504
  21170069.3984   -2239265.96647  -1731941.67846                  21170069.4454
        27.2504         24.5004
  22218881.7274     740214.85547     70519.92646                  22218882.1374
        21.5004         13.2504
 98  7  8 20 17 30.0000000  0  6G 6G21G17G22G23G26
  20909821.6644    5667446.39048   4409137.77647                  20909821.6884
        30.2504         30.0004
  23668633.4304   -3820229.74846  -2872549.30145                  23668636.1134
        12.2504          4.7504
  20682860.1024    1724440.04848   1342230.53647                  20682860.1134
        32.2504         33.7504
  23207343.1094    1669476.31646   1028646.85345                  23207344.3754
        16.2504          8.5004
  21169403.2584   -2242768.71547  -1734671.06946                  21169403.3634
        27.5004         24.7504
  22222423.2114     758824.52247     85020.97746                  22222424.1604
        21.7504         13.7504
 98  7  8 20 17 45.0000000  0  6G 6G21G17G22G23G26
  20918872.1024    5715006.14948   4446197.30647                  20918872.1724
        30.2504         29.7504
  23664137.1564   -3843859.82646  -2890962.27545                  23664139.0904
        12.5004          4.7504
  20686263.7814    1742325.87748   1356167.54647                  20686263.8524
        32.2504         33.5004
  23211855.6174    1693190.59246   1047125.49545                  23211856.6024
        16.5004          8.5004
  21168758.6174   -2246154.59847  -1737309.39846                  21168758.7584
        27.5004         24.5004
  22225996.0704     777600.61447     99651.71146                  22225996.5514
        22.0004         13.7504
 98  7  8 20 18  0.0000000  0  6G 6G21G17G22G23G26
  20927946.5084    5762692.14148   4483355.20047                  20927946.5664
        30.2504         29.7504
  23659651.4614   -3867431.46946  -2909329.74245                  23659653.8984
        13.0004          5.2504
  20689680.0704    1760277.78648   1370156.05147                  20689680.0474
        32.2504         33.7504
  23216396.1954    1717049.64246   1065716.94545                  23216397.3674
        16.0004          8.5004
  21168136.8984   -2249421.49447  -1739855.01346                  21168137.1334
        27.2504         25.0004
  22229600.1804     796542.03047    114411.27046                  22229600.7544
        21.5004         13.7504
 98  7  8 20 18 15.0000000  0  6G 6G21G17G22G23G26
  20937045.0164    5810505.64348   4520612.45947                  20937045.0164
        30.2504         29.5004
  23655177.8834   -3890941.73646  -2927649.39345                  23655180.2504
        13.2504          5.5004
  20693108.0164    1778293.67248   1384194.40847                  20693108.0044
        32.0004         33.5004
  23220963.7734    1741053.53146   1084421.26545                  23220965.1804
        16.2504          8.7504
  21167537.8984   -2252567.98547  -1742306.79946                  21167538.1214
        26.7504         24.2504
  22233235.4224     815644.15247    129296.05046                  22233235.9844
        21.7504         14.0004
 98  7  8 20 18 30.0000000  0  6G 6G21G17G22G23G26
  20946168.1644    5858447.58748   4557969.79747                  20946168.2344
        30.5004         30.2504
  23650716.6024   -3914385.25946  -2945917.00045                  23650719.1804
        13.2504          5.0004
  20696548.9454    1796375.26648   1398283.96147                  20696548.9344
        32.2504         33.7504
  23225559.4224    1765203.73346   1103239.60745                  23225560.8874
        16.5004          8.5004
  21166961.7664   -2255596.35847  -1744666.55046                  21166962.0474
        26.7504         25.0004
  22236900.5474     834905.05647    144304.56646                  22236901.0984
        22.0004         13.5004
 98  7  8 20 18 45.0000000  0  6G 6G21G17G22G23G26
  20955315.7734    5906517.84248   4595427.11947                  20955315.9024
        30.7504         30.0004
  23646267.3984   -3937763.67846  -2964133.89245                  23646270.1884
        12.7504          5.0004
  20700002.0864    1814521.56748   1412423.93547                  20700002.0744
        32.0004         33.2504
  23230182.9694    1789500.00246   1122171.74545                  23230184.0234
        16.2504          8.5004
  21166407.7974   -2258507.64947  -1746935.06846                  21166408.0204
        27.0004         25.0004
  22240595.6884     854322.76747    159435.26146                  22240596.5784
        22.0004         13.7504
 98  7  8 20 19  0.0000000  0  6G 6G21G17G22G23G26
  20964487.5554    5954715.89048   4632984.01847                  20964487.6134
        31.0004         30.2504
  23641831.0704   -3961078.79146  -2982301.45845                  23641833.6954
        13.2504          5.2504
  20703467.6174    1832733.08448   1426614.72947                  20703467.7114
        31.7504         33.5004
  23234833.4224    1813940.39846   1141216.20145                  23234834.1954
        15.7504          8.7504
  21165876.2974   -2261301.98147  -1749112.45046                  21165876.4494
        27.0004         25.0004
  22244320.9384     873898.07747    174688.75946                  22244321.3954
        22.7504         13.7504
 98  7  8 20 19 15.0000000  0  6G 6G21G17G22G23G26
  20973684.0314    6003043.61148   4670641.96247                  20973684.0314
        31.2504         30.0004
  23637406.4694   -3984328.44746  -3000418.00345                  23637408.7424
        13.2504          5.5004
  20706946.4064    1851013.27548   1440859.03347                  20706946.4534
        31.7504         33.2504
  23239512.6564    1838526.05846   1160373.85545                  23239513.9344
        16.2504          8.5004
  21165366.1414   -2263981.41747  -1751200.29446                  21165366.4804
        27.0004         25.2504
  22248076.2114     893632.09147    190065.91946                  22248076.5044
        22.2504         13.7504
 98  7  8 20 19 30.0000000  0  6G 6G21G17G22G23G26
  20982904.8364    6051499.71148   4708399.94747                  20982904.6844
        31.2504         29.7504
  23632994.9384   -4007511.76546  -3018482.87945                  23632997.7974
        13.7504          5.5004
  20710438.1334    1869363.85848   1455158.18747                  20710438.0984
        31.7504         33.0004
  23244218.9534    1863259.66646   1179646.78045                  23244220.0664
        16.2504          8.7504
  21164878.6484   -2266543.87747  -1753196.99646                  21164878.8364
        27.2504         25.2504
  22251862.1644     913526.29947    205567.91646                  22251862.2584
        22.7504         14.2504
 98  7  8 20 19 45.0000000  0  6G 6G21G17G22G23G26
  20992149.6884    6100080.70248   4746255.24347                  20992149.5234
        31.2504         30.0004
  23628596.1024   -4030627.85746  -3036495.37545                  23628598.0124
        13.2504          5.7504
  20713944.0864    1887786.61548   1469513.58147                  20713944.1804
        31.7504         33.0004
  23248953.6884    1888138.24946   1199032.67845                  23248954.8954
        16.5004          8.5004
  21164413.4534   -2268988.28047  -1755101.70147                  21164413.6414
        27.2504         25.7504
  22255678.4614     933580.47847    221194.55546                  22255678.8364
        23.0004         14.0004
 98  7  8 20 20  0.0000000  0  6G 6G21G17G22G23G26
  21001418.8444    6148790.92748   4784211.24447                  21001418.7384
        31.5004         30.2504
  23624210.5704   -4053673.22346  -3054452.76045                  23624213.1724
        13.2504          5.5004
  20717464.0164    1906285.84448   1483928.56147                  20717464.2384
        31.7504         33.0004
  23253715.5314    1913162.48046   1218532.06745                  23253717.4304
        16.2504          8.5004
  21163971.7194   -2271309.33847  -1756910.30246                  21163971.8594
        27.5004         25.2504
  22259526.2114     953801.18347    236950.96746                  22259526.4104
        22.2504         13.7504
 98  7  8 20 20 15.0000000  0  6G 6G21G17G22G23G26
  21010712.1024    6197626.45348   4822264.88247                  21010711.8554
        31.5004         30.2504
  23619837.7344   -4076651.53846  -3072357.86945                  23619840.3834
        13.7504          5.7504
  20720998.8284    1924860.21248   1498402.09547                  20720998.9924
        31.7504         33.2504
  23258503.9454    1938324.30746   1238138.67145                  23258505.0944
        16.5004          8.0004
  21163552.2194   -2273514.69047  -1758628.73546                  21163552.4654
        27.5004         25.2504
  22263404.1484     974181.89447    252832.04546                  22263404.5594
        22.0004         14.2504
 98  7  8 20 20 30.0000000  0  6G 6G21G17G22G23G26
  21020030.2274    6246594.13648   4860421.49847                  21020030.2384
        30.7504         29.7504
  23615479.4774   -4099554.87646  -3090204.56045                  23615482.2424
        14.0004          6.0004
  20724549.1884    1943516.65348   1512939.57747                  20724549.3874
        32.2504         33.2504
  23263319.2664    1963631.18646   1257858.31345                  23263320.7424
        16.5004          8.2504
  21163155.2344   -2275600.08547  -1760253.70047                  21163155.3404
        27.5004         25.7504
  22267314.0234     994728.53047    268842.42546                  22267314.3634
        22.0004         13.7504
 98  7  8 20 20 45.0000000  0  6G 6G21G17G22G23G26
  21029372.6024    6295688.59548   4898676.89947                  21029372.5314
        30.7504         29.7504
  23611134.1564   -4122389.85746  -3107997.99445                  23611136.7934
        14.0004          6.0004
  20728113.2894    1962247.12048   1527534.74747                  20728113.3954
        32.0004         33.5004
  23268161.2814    1989076.94746   1277686.15545                  23268162.9344
        16.2504          8.2504
  21162780.0084   -2277572.26547  -1761790.44046                  21162780.1724
        27.5004         25.5004
  22271254.7814    1015437.61047    284979.37846                  22271255.1564
        22.0004         14.2504
 98  7  8 20 21  0.0000000  0  6G 6G21G17G22G23G26
  21038739.8754    6344913.00148   4937033.55747                  21038739.8634
        30.7504         29.5004
  23606802.3134   -4145152.31546  -3125734.94145                  23606804.7034
        14.2504          5.7504
  20731692.4694    1981056.02948   1542191.03647                  20731692.5394
        32.2504         33.7504
  23273030.6724    2014667.22046   1297626.63645                  23273032.3244
        16.0004          8.0004
  21162427.5314   -2279424.39647  -1763233.64346                  21162427.7074
        27.5004         25.5004
  22275227.2194    1036313.58547    301246.38346                  22275227.7584
        22.0004         14.0004
 98  7  8 20 21 15.0000000  0  6G 6G21G17G22G23G26
  21048131.5634    6394266.33448   4975490.67947                  21048131.5864
        30.5004         29.7504
  23602485.1804   -4167838.81846  -3143412.67145                  23602487.9924
        13.7504          5.7504
  20735286.6644    1999944.00548   1556908.93847                  20735286.7934
        31.7504         33.7504
  23277927.6094    2040401.69546   1317679.45445                  23277928.9104
        15.7504          8.5004
  21162098.1724   -2281155.03247  -1764582.17347                  21162098.3954
        27.7504         26.0004
  22279231.7734    1057357.58947    317644.32546                  22279232.2894
        22.0004         13.7504
 98  7  8 20 21 30.0000000  0  6G 6G21G17G22G23G26
  21057547.1094    6443746.10848   5014046.32147                  21057547.2034
        30.5004         29.5004
  23598182.2034   -4190451.13646  -3161032.60245                  23598183.9264
        13.7504          5.5004
  20738895.1484    2018905.93248   1571684.46847                  20738895.2424
        32.2504         34.0004
  23282852.1024    2066279.95346   1337844.31145                  23282853.3914
        15.7504          8.0004
  21161792.4144   -2282761.79247  -1765834.17747                  21161792.5314
        27.7504         25.7504
  22283267.7894    1078566.38347    334170.67146                  22283268.2814
        22.0004         13.7504
 98  7  8 20 21 45.0000000  0  6G 6G21G17G22G23G26
  21066986.4304    6493350.89348   5052699.38147                  21066986.4884
        30.2504         29.2504
  23593892.8204   -4212990.80546  -3178595.92845                  23593894.6374
        13.7504          5.2504
  20742517.2424    2037940.07548   1586516.26847                  20742517.3834
        32.2504         34.2504
  23287803.3444    2092298.58846   1358118.57045                  23287804.1994
        15.5004          7.7504
  21161510.5704   -2284242.62147  -1766988.05246                  21161510.6764
        27.5004         25.5004
  22287336.1024    1099942.68947    350827.53946                  22287336.2424
        23.0004         14.2504
 98  7  8 20 22  0.0000000  0  6G 6G21G17G22G23G26
  21076450.2974    6543082.38548   5091451.17147                  21076450.3324
        30.2504         29.2504
  23589617.3914   -4235458.66546  -3196103.28945                  23589619.2664
        14.0004          5.2504
  20746152.5084    2057042.85848   1601401.55747                  20746152.6954
        32.5004         33.5004
  23292780.4774    2118453.27746   1378498.83345                  23292782.1764
        15.7504          8.0004
  21161251.9534   -2285602.05847  -1768047.33046                  21161251.9774
        27.7504         25.2504
  22291435.0084    1121484.92047    367613.70646                  22291435.4064
        22.0004         13.5004
 98  7  8 20 22 15.0000000  0  6G 6G21G17G22G23G26
  21085938.6414    6592944.98148   5130305.11847                  21085938.7704
        30.5004         29.5004
  23585357.1254   -4257849.77546  -3213550.85245                  23585358.9534
        14.0004          5.7504
  20749800.8134    2076215.64048   1616341.38647                  20749800.9304
        32.2504         34.2504
  23297784.6644    2144749.92846   1398989.72645                  23297786.0474
        15.5004          8.0004
  21161016.3134   -2286840.04047  -1769011.98346                  21161016.3364
        27.7504         25.2504
  22295566.5004    1143195.08447    384530.73246                  22295566.7814
        22.5004         13.5004
 98  7  8 20 22 30.0000000  0  6G 6G21G17G22G23G26
  21095451.4534    6642933.40448   5169257.11747                  21095451.5124
        30.7504         29.7504
  23581109.6334   -4280168.95646  -3230942.37045                  23581111.7304
        13.7504          5.5004
  20753461.4844    2095451.54448   1631330.40247                  20753461.5314
        32.2504         34.5004
  23302815.6804    2171187.49846   1419590.41945                  23302816.8984
        16.0004          8.2504
  21160803.0634   -2287960.50147  -1769885.04647                  21160803.1804
        27.2504         25.7504
  22299728.1094    1165065.12747    401572.33446                  22299728.3794
        22.7504         14.0004
 98  7  8 20 22 45.0000000  0  6G 6G21G17G22G23G26
  21104988.7034    6693053.05148   5208311.36047                  21104988.7384
        30.7504         30.0004
  23576876.8134   -4302412.11146  -3248274.64445                  23576878.3594
        13.7504          5.5004
  20757134.8524    2114757.27648   1646373.83047                  20757134.9804
        32.2504         34.7504
  23307874.8674    2197773.96746   1440307.14145                  23307876.0984
        15.7504          8.2504
  21160613.5314   -2288956.50947  -1770661.14347                  21160613.7424
        27.5004         25.7504
  22303921.8364    1187102.76947    418744.53546                  22303922.1524
        23.0004         13.5004
 98  7  8 20 23  0.0000000  0  6G 6G21G17G22G23G26
  21114549.4304    6743294.34048   5247460.39547                  21114549.4884
        30.5004         30.0004
  23572656.7894   -4324588.07246  -3265554.55645                  23572658.7814
        14.0004          5.7504
  20760821.0634    2134127.68248   1661467.65847                  20760821.3094
        32.2504         34.2504
  23312961.4534    2224501.89646   1461134.07845                  23312962.5204
        16.2504          8.7504
  21160445.8134   -2289837.12147  -1771347.31147                  21160445.9304
        27.7504         26.0004
  22308146.1564    1209300.90847    436041.79246                  22308146.4614
        22.7504         13.7504
 98  7  8 20 23 15.0000000  0  6G 6G21G17G22G23G26
  21124133.7114    6793660.22848   5286706.52147                  21124133.7584
        30.2504         29.5004
  23568449.7194   -4346694.61646  -3282780.37745                  23568452.1564
        13.5004          5.5004
  20764519.7424    2153564.90148   1676613.54847                  20764519.9884
        31.7504         34.0004
  23318074.4534    2251371.95646   1482071.77745                  23318075.7194
        16.2504          8.2504
  21160300.8134   -2290599.13647  -1771941.07247                  21160301.0004
        27.5004         26.2504
  22312401.1094    1231661.83147    453465.90246                  22312401.4144
        23.0004         14.2504
 98  7  8 20 23 30.0000000  0  6G 6G21G17G22G23G26
  21133742.6564    6844155.00848   5326053.08047                  21133742.8794
        30.2504         29.0004
  23564256.1564   -4368731.58146  -3299951.97945                  23564257.6914
        14.0004          5.7504
  20768231.2034    2173068.79648   1691811.38947                  20768231.4384
        31.7504         34.0004
  23323215.1174    2278385.12546   1503120.98545                  23323216.3954
        16.0004          8.5004
  21160178.2734   -2291243.14347  -1772442.88047                  21160178.4844
        27.2504         26.5004
  22316687.5314    1254186.74547    471017.79246                  22316687.7894
        23.2504         14.2504
 98  7  8 20 23 45.0000000  0  6G 6G21G17G22G23G26
  21143376.1484    6894780.07848   5365501.15547                  21143376.1844
        29.7504         29.2504
  23560076.0474   -4390700.12946  -3317070.27145                  23560077.8524
        14.0004          6.2504
  20771955.7504    2192640.39448   1707061.98547                  20771955.9844
        31.7504         33.7504
  23328382.8594    2305542.32246   1524282.43245                  23328384.1024
        16.0004          8.7504
  21160077.8444   -2291770.17047  -1772853.53347                  21160077.9614
        27.5004         26.7504
  22321005.4064    1276878.47047    488699.66646                  22321005.9804
        22.5004         14.2504
 98  7  8 20 24  0.0000000  0  6G 6G21G17G22G23G26
  21153034.6884    6945536.45948   5405051.56247                  21153034.8634
        29.7504         28.7504
  23555908.4774   -4412599.52546  -3334134.67645                  23555910.7384
        14.2504          5.7504
  20775693.1564    2212281.30348   1722366.59647                  20775693.3674
        31.7504         33.7504
  23333577.7114    2332842.64746   1545555.38545                  23333579.2114
        16.0004          8.2504
  21159998.9844   -2292185.01547  -1773176.76547                  21159999.4064
        27.5004         26.7504
  22325355.1484    1299735.38047    506510.25846                  22325355.5124
        23.0004         14.5004
 98  7  8 20 24 15.0000000  0  6G 6G21G17G22G23G26
  21162717.7344    6996421.57748   5444702.28147                  21162717.9694
        29.2504         28.5004
  23551754.5084   -4434429.91846  -3351145.31045                  23551757.0514
        14.0004          6.5004
  20779444.0944    2231992.87548   1737726.26347                  20779444.2934
        31.7504         33.5004
  23338799.9144    2360288.05746   1566941.40945                  23338802.0594
        15.5004          8.2504
  21159941.1564   -2292488.27247  -1773413.05247                  21159941.5664
        27.5004         26.5004
  22329735.3594    1322754.97547    524447.62446                  22329735.6764
        23.0004         15.0004
 98  7  8 20 24 30.0000000  0  6G 6G21G17G22G23G26
  21172424.9534    7047431.84048   5484450.51247                  21172425.2344
        29.2504         28.2504
  23547613.1414   -4456192.51246  -3368103.13845                  23547615.5664
        14.5004          6.5004
  20783208.9844    2251776.79848   1753142.31047                  20783209.2894
        31.7504         34.0004
  23344050.6564    2387879.20246   1588440.99645                  23344052.2624
        15.0004          8.0004
  21159905.1334   -2292678.24747  -1773561.06647                  21159905.4734
        27.5004         26.7504
  22334146.7344    1345936.89447    542511.46046                  22334147.3094
        22.0004         14.2504
 98  7  8 20 24 45.0000000  0  6G 6G21G17G22G23G26
  21182155.2974    7098566.01148   5524295.29447                  21182155.5554
        29.7504         28.7504
  23543484.1884   -4477889.19346  -3385009.57445                  23543486.4144
        14.7504          6.7504
  20786987.6334    2271633.82748   1768615.32647                  20786987.7854
        32.0004         33.7504
  23349327.8754    2415614.31546   1610052.76145                  23349329.9614
        14.2504          7.5004
  21159890.4454   -2292755.15747  -1773620.97947                  21159890.6214
        27.7504         27.0004
  22338589.5944    1369282.84847    560703.13046                  22338590.0274
        22.2504         14.0004
 98  7  8 20 25  0.0000000  0  6G 6G21G17G22G23G26
  21191909.4384    7149823.04548   5564235.81347                  21191909.6254
        29.7504         29.2504
  23539368.3674   -4499520.09146  -3401864.77245                  23539370.6884
        15.0004          6.5004
  20790780.0474    2291562.40648   1784144.09347                  20790780.3164
        32.0004         33.7504
  23354632.6254    2443490.49546   1631774.44745                  23354634.2894
        14.2504          7.5004
  21159897.2734   -2292719.65247  -1773593.29647                  21159897.4964
        27.5004         27.0004
  22343063.5164    1392794.16347    579023.64346                  22343064.2774
        22.2504         14.5004
 98  7  8 20 25 15.0000000  0  7G 6G 3G21G17G22G23G26
  21201686.6804    7201204.94248   5604273.63047                  21201686.8794
        29.2504         28.7504
  24832331.0864     -10593.22655
         8.5004
  23535264.0084   -4521085.37246  -3418668.82745                  23535266.1884
        14.7504          6.7504
  20794585.3674    2311560.00248   1799726.63647                  20794585.6374
        32.0004         33.7504
  23359964.3364    2471505.23046   1653604.09945                  23359965.7304
        14.7504          7.7504
  21159925.8594   -2292567.62147  -1773474.81147                  21159926.1414
        27.5004         26.2504
  22347568.4694    1416468.73847    597471.37546                  22347569.0554
        22.0004         14.5004
 98  7  8 20 25 30.0000000  0  7G 6G 3G21G17G22G23G26
  21211488.4304    7252712.60748   5644409.44147                  21211488.6644
        29.5004         28.5004
  24826285.2974     -42362.93745
         9.5004
  23531172.7114   -4542584.64546  -3435421.44545                  23531174.5744
        15.2504          6.7504
  20798404.0234    2331626.99348   1815363.25347                  20798404.3754
        31.7504         33.7504
  23365320.9844    2499656.18746   1675539.89945                  23365322.7544
        14.2504          7.5004
  21159977.6954   -2292295.95847  -1773263.10847                  21159977.6484
        27.7504         26.5004
  22352105.0164    1440308.04547    616047.47446                  22352105.7194
        22.2504         14.7504
 98  7  8 20 25 45.0000000  0  7G 6G 3G21G17G22G23G26
  21221313.1804    7304341.91048   5684640.04647                  21221313.5314
        29.7504         28.7504
  24820243.0944     -74112.63145
         8.7504
  23527094.1884   -4564018.39346  -3452123.00545                  23527095.9804
        15.2504          6.7504
  20802236.1644    2351765.73548   1831055.78047                  20802236.4104
        31.7504         33.7504
  23370704.3914    2527943.79146   1697582.15845                  23370705.8794
        15.0004          7.5004
  21160051.9384   -2291905.76047  -1772959.04147                  21160052.0084
        27.7504         26.5004
  22356672.8134    1464312.73147    634752.43646                  22356673.4454
        22.5004         14.7504
 98  7  8 20 26  0.0000000  0  7G 6G 3G21G17G22G23G26
  21231161.4144    7356092.99448   5724965.54247                  21231161.6024
        30.0004         29.0004
  24814205.6024    -105840.61445
         9.2504
  23523028.5704   -4585384.19446  -3468771.64345                  23523030.8204
        15.7504          7.0004
  20806082.6954    2371978.63248   1846806.09247                  20806082.9064
        31.7504         33.5004
  23376112.9384    2556367.62046   1719730.59345                  23376114.5664
        14.7504          8.0004
  21160149.1724   -2291395.66347  -1772561.54247                  21160149.3954
        27.7504         26.5004
  22361272.6644    1488484.42547    653587.52246                  22361273.0744
        22.2504         14.5004
 98  7  8 20 26 15.0000000  0  7G 6G 3G21G17G22G23G26
  21241032.1484    7407964.66148   5765384.99847                  21241032.3134
        30.0004         29.0004
  24808172.4844    -137544.12245    -13172.02153                  24808173.7624
         9.7504          3.0004
  23518975.5864   -4606681.95346  -3485367.23945                  23518978.3284
        15.2504          6.5004
  20809943.3054    2392266.38848   1862614.74047                  20809943.4224
        31.5004         33.2504
  23381548.3204    2584928.81646   1741986.05345                  23381550.1844
        15.2504          7.5004
  21160269.0634   -2290765.52047  -1772070.50247                  21160269.2624
        27.7504         26.2504
  22365904.0164    1512821.58647    672551.55246                  22365904.3554
        23.0004         14.5004
 98  7  8 20 26 30.0000000  0  7G 6G 3G21G17G22G23G26
  21250926.1804    7459957.26448   5805898.69147                  21250926.3674
        30.0004         29.0004
  24802143.5234    -169224.42745    -37857.94143                  24802144.6484
         9.2504          3.0004
  23514935.6094   -4627911.59346  -3501909.76145                  23514938.2704
        14.7504          6.7504
  20813818.1884    2412628.65848   1878481.44847                  20813818.3404
        31.7504         33.0004
  23387010.1884    2613627.83946   1764348.92445                  23387011.8284
        15.2504          7.5004
  21160412.1094   -2290012.81647  -1771483.96347                  21160412.1094
        27.7504         26.7504
  22370566.6884    1537325.10747    691645.20546                  22370567.1564
        22.5004         14.7504
 98  7  8 20 26 45.0000000  0  7G 6G 3G21G17G22G23G26
  21260844.0554    7512076.39048   5846510.96947                  21260844.1844
        30.2504         29.2504
  24796120.5704    -200875.45945    -62521.00243                  24796121.8834
         9.7504          3.0004
  23510908.7584   -4649071.83246  -3518398.19945                  23510911.2074
        14.7504          7.0004
  20817706.5394    2433063.25448   1894404.50947                  20817706.7854
        31.5004         33.0004
  23392496.9694    2642464.57646   1786819.09045                  23392498.7274
        15.2504          7.5004
  21160578.6954   -2289137.88247  -1770802.18047                  21160578.9064
        27.7504         26.7504
  22375261.1884    1561995.85947    710869.18146                  22375261.6454
        22.5004         14.2504
 98  7  8 20 27  0.0000000  0  7G 6G 3G21G17G22G23G26
  21270786.2194    7564323.37648   5887222.88347                  21270786.2194
        30.0004         29.0004
  24790104.5004    -232492.67045    -87157.74743                  24790107.3594
         9.5004          2.7504
  23506895.3984   -4670163.45546  -3534833.18045                  23506897.3554
        15.0004          6.7504
  20821608.7344    2453569.33748   1910383.27847                  20821608.9454
        31.5004         32.5004
  23398009.6484    2671435.76146   1809394.02445                  23398011.1954
        15.2504          7.5004
  21160768.7894   -2288139.89147  -1770024.50547                  21160768.9884
        27.7504         26.7504
  22379987.2974    1586831.62047    730221.71846                  22379987.7544
        22.7504         14.0004
 98  7  8 20 27 15.0000000  0  7G 6G 3G21G17G22G23G26
  21280753.0634    7616698.84948   5928034.91647                  21280753.1334
        30.0004         29.0004
  24784093.1954    -264077.99345   -111769.65243                  24784094.2034
        10.2504          2.7504
  23502894.6254   -4691186.58346  -3551214.78945                  23502896.5704
        15.2504          7.0004
  20825524.4534    2474146.75848   1926417.63847                  20825524.6764
        31.5004         32.7504
  23403548.1414    2700538.65246   1832071.59045                  23403550.0514
        15.0004          7.7504
  21160981.8754   -2287019.14648  -1769151.18347                  21160982.0044
        28.0004         27.2504
  22384744.7274    1611831.68947    749702.29646                  22384745.0084
        22.5004         14.2504
 98  7  8 20 27 30.0000000  0  7G 6G 3G21G17G22G23G26
  21290744.5634    7669204.50848   5968948.38747                  21290744.7734
        29.7504         28.5004
  24778089.2194    -295630.87345   -136356.25443                  24778090.6254
         9.2504          2.7504
  23498908.0084   -4712137.87746  -3567540.43345                  23498910.1294
        15.2504          6.5004
  20829454.2344    2494797.94448   1942509.47347                  20829454.4454
        31.7504         33.2504
  23409111.1644    2729773.50846   1854851.98045                  23409112.9104
        15.0004          7.7504
  21161217.9384   -2285778.08047  -1768184.09847                  21161218.1954
        27.7504         27.0004
  22389533.4844    1636995.20547    769310.23546                  22389533.8014
        22.5004         14.0004
 98  7  8 20 27 45.0000000  0  7G 6G 3G21G17G22G23G26
  21300760.6414    7721838.87048   6009962.14847                  21300760.7814
        30.0004         28.5004
  24772090.5944    -327149.92045   -160916.48843                  24772091.9774
         9.7504          2.7504
  23494934.6334   -4733016.55946  -3583809.50145                  23494936.6024
        15.5004          7.0004
  20833397.8054    2515521.86648   1958657.98647                  20833397.9224
        31.7504         33.5004
  23414699.8914    2759144.57946   1877738.50745                  23414701.6254
        14.7504          7.7504
  21161476.0784   -2284421.16347  -1767126.74647                  21161476.3014
        27.7504         27.0004
  22394352.7814    1662322.45047    789045.74246                  22394352.9804
        22.5004         14.0004
 98  7  8 20 28  0.0000000  0  7G 6G 3G21G17G22G23G26
  21310801.5784    7774604.41248   6051078.13447                  21310801.7774
        29.5004         27.7504
  24766099.0784    -358631.12445   -185447.26743                  24766100.9774
         8.5004          2.7504
  23490975.5634   -4753822.82046  -3600022.11345                  23490977.5204
        15.5004          6.7504
  20837355.1254    2536316.74848   1974861.79947                  20837355.2194
        32.2504         33.7504
  23420315.0864    2788654.16146   1900732.97845                  23420316.8324
        14.7504          7.7504
  21161756.4064   -2282949.19647  -1765979.74147                  21161756.5474
        27.7504         27.7504
  22399203.0474    1687810.62447    808906.66546                  22399203.4924
        22.5004         13.7504
 98  7  8 20 28 15.0000000  0  7G 6G 3G21G17G22G23G26
  21320867.7114    7827503.45748   6092298.14047                  21320868.0634
        29.0004         27.7504
  24760116.4534    -390070.58945   -209945.44842                  24760119.2544
         8.5004          2.2504
  23487029.5314   -4774557.05346  -3616178.61045                  23487032.1334
        15.5004          7.0004
  20841325.3914    2557181.69448   1991120.20047                  20841325.4384
        32.0004         33.7504
  23425957.6254    2818303.19946   1923836.10745                  23425959.1484
        14.5004          7.5004
  21162058.3984   -2281361.29048  -1764742.39747                  21162058.5744
        28.2504         27.5004
  22404083.5704    1713458.53347    828892.05246                  22404084.0044
        22.2504         14.2504
 98  7  8 20 28 30.0000000  0  7G 6G 3G21G17G22G23G26
  21330959.1024    7880533.61848   6133620.31247                  21330959.4184
        29.0004         27.5004
  24754141.2424    -421471.96645   -234414.04142                  24754144.5004
         8.2504          2.0004
  23483096.8834   -4795223.67246  -3632282.42145                  23483099.1214
        15.5004          7.2504
  20845308.4304    2578112.65348   2007430.04347                  20845308.5354
        31.7504         34.0004
  23431625.2504    2848087.87146   1947044.93145                  23431627.0204
        14.7504          7.5004
  21162382.6724   -2279657.65948  -1763414.87347                  21162382.8834
        28.2504         27.7504
  22408994.3054    1739263.95647    849000.17546                  22408994.4694
        22.0004         13.5004
 98  7  8 20 28 45.0000000  0  7G 6G 3G21G17G22G23G26
  21341074.8834    7933693.40848   6175043.50147                  21341075.1524
        29.0004         27.7504
  24748173.3204    -452837.96945   -258855.01143                  24748175.1374
         8.2504          2.5004
  23479176.3594   -4815823.63246  -3648334.28445                  23479179.2074
        15.5004          7.0004
  20849303.6254    2599107.24748   2023789.47047                  20849303.7774
        31.7504         33.5004
  23437318.2664    2878003.60346   1970355.87145                  23437320.2934
        15.0004          7.7504
  21162728.5164   -2277840.51748  -1761998.90047                  21162728.6684
        28.2504         28.2504
  22413934.5234    1765225.10347    869229.63746                  22413934.8404
        22.0004         14.0004
 98  7  8 20 29  0.0000000  0  7G 6G 3G21G17G22G23G26
  21351215.2814    7986979.97748   6216565.48047                  21351215.6214
        29.2504         27.5004
  24742210.3674    -484168.48145   -283268.33642                  24742212.9344
         7.7504          1.7504
  23475268.8834   -4836358.11546  -3664335.13845                  23475270.9694
        15.5004          6.7504
  20853310.7584    2620165.21648   2040198.27947                  20853310.7814
        31.7504         33.5004
  23443036.3524    2908049.08946   1993767.92845                  23443038.1334
        15.0004          7.7504
  21163095.8524   -2275910.07548  -1760494.64647                  21163095.9104
        28.5004         28.0004
  22418904.4614    1791342.91347    889581.18946                  22418904.8594
        22.2504         14.0004
 98  7  8 20 29 15.0000000  0  7G 6G 3G21G17G22G23G26
  21361378.8594    8040390.80548   6258184.28047                  21361379.1884
        28.7504         27.0004
  24736255.7344    -515463.52845   -307654.03842                  24736259.7664
         8.2504          1.7504
  23471374.4064   -4856825.31746  -3680283.55445                  23471376.1994
        15.7504          6.7504
  20857330.9064    2641291.61048   2056660.40947                  20857331.0704
        31.7504         33.7504
  23448779.2274    2938227.70246   2017283.70845                  23448781.1604
        15.0004          7.5004
  21163485.1644   -2273863.93248  -1758900.23247                  21163485.3754
        28.2504         28.0004
  22423905.4144    1817622.01747    910058.41246                  22423905.9414
        22.5004         14.7504
 98  7  8 20 29 30.0000000  0  7G 6G 3G21G17G22G23G26
  21371565.6414    8093922.22848   6299897.05347                  21371565.9694
        29.2504         27.0004
  24730307.0704    -546724.24845   -332013.02742                  24730309.3914
         8.0004          2.0004
  23467492.3204   -4877225.02546  -3696179.38945                  23467494.5704
        15.7504          7.5004
  20861363.6564    2662484.21048   2073174.12647                  20861363.8554
        31.2504         33.2504
  23454547.6724    2968542.18546   2040905.35045                  23454549.4184
        15.0004          7.5004
  21163896.5004   -2271702.86748  -1757216.26947                  21163896.5594
        28.2504         27.2504
  22428936.7734    1844064.10347    930662.63546                  22428937.3594
        22.0004         14.5004
 98  7  8 20 29 45.0000000  0  7G 6G 3G21G17G22G23G26
  21381774.4454    8147569.95848   6341700.45247                  21381774.6334
        29.2504         27.2504
  24724364.2344    -577952.60444   -356346.74942                  24724369.2504
         7.2504          1.5004
  23463622.2584   -4897560.43046  -3712025.11945                  23463625.0004
        15.5004          7.0004
  20865408.1804    2683738.69548   2089736.06647                  20865408.4734
        30.7504         32.7504
  23460341.7424    2998993.37546   2064633.54245                  23460343.2774
        15.0004          7.5004
  21164329.6564   -2269425.53648  -1755441.70847                  21164329.6564
        28.2504         27.7504
  22433999.7814    1870668.35047    951393.22846                  22434000.1454
        22.2504         14.0004
 98  7  8 20 30  0.0000000  0  7G 6G 3G21G17G22G23G26
  21392005.0084    8201332.09548   6383593.00347                  21392005.1604
        29.2504         27.2504
  24718427.0474    -609150.94845   -380657.10842                  24718427.0354
         7.5004          1.7504
  23459764.6484   -4917834.21546  -3727822.81645                  23459766.9224
        15.5004          7.2504
  20869464.7894    2705056.19248   2106347.10447                  20869465.1764
        30.7504         33.0004
  23466163.0314    3029580.01346   2088467.26345                  23466164.7194
        15.5004          7.5004
  21164785.6884   -2267028.67748  -1753574.01247                  21164785.7114
        28.0004         27.2504
  22439093.3594    1897436.71547    972251.69346                  22439093.8984
        22.2504         14.2504
 98  7  8 20 30 15.0000000  0  7G 6G 3G21G17G22G23G26
  21402257.5234    8255208.21348   6425574.37247                  21402257.7704
        29.0004         27.0004
  24712494.9694    -640322.18444   -404946.36942                  24712499.8444
         6.7504          1.5004
  23455918.9144   -4938044.38446  -3743570.94045                  23455921.0824
        16.0004          7.2504
  20873533.8134    2726439.04048   2123009.06547                  20873534.0704
        31.0004         33.0004
  23472008.3594    3060300.32846   2112405.15845                  23472010.0004
        15.5004          8.0004
  21165265.2274   -2264509.67148  -1751611.13347                  21165265.4844
        28.2504         27.5004
  22444218.9694    1924369.40147    993238.20646                  22444219.6254
        22.2504         14.5004
 98  7  8 20 30 30.0000000  0  7G 6G 3G21G17G22G23G26
  21412531.6024    8309197.72848   6467644.09247                  21412531.8364
        29.2504         26.7504
  24706567.8594    -671467.23144   -429215.14442                  24706571.7734
         6.7504          1.7504
  23452085.4224   -4958188.07546  -3759267.28545                  23452087.3204
        16.2504          7.5004
  20877615.6804    2747889.11648   2139723.41147                  20877616.0314
        31.0004         33.0004
  23477880.3284    3091156.04946   2136448.56245                  23477882.3674
        15.2504          7.7504
  21165767.7894   -2261867.87548  -1749552.57247                  21165767.8594
        28.0004         27.5004
  22449375.6414    1951469.29147   1014355.01346                  22449376.3554
        22.0004         14.5004
 98  7  8 20 30 45.0000000  0  7G 6G 3G21G17G22G23G26
  21422826.3914    8363298.23648   6509800.30447                  21422826.6024
        29.2504         26.7504
  24700645.3134    -702589.31944   -453466.00842                  24700647.9384
         6.5004          1.5004
  23448264.7114   -4978265.49046  -3774911.98245                  23448266.6454
        16.0004          7.5004
  20881709.9144    2769403.80548   2156488.10747                  20881710.2774
        31.0004         33.2504
  23483776.8444    3122145.09646   2160595.84445                  23483778.1564
        15.5004          8.0004
  21166293.2894   -2259107.25448  -1747401.42547                  21166293.3014
        28.2504         27.0004
  22454563.6024    1978732.91047   1035599.38546                  22454564.1764
        21.7504         14.2504
 98  7  8 20 31  0.0000000  0  7G 6G 3G21G17G22G23G26
  21433142.8984    8417512.23748   6552044.95747                  21433143.0394
        29.0004         27.0004
  24694728.0474    -733682.29744   -477694.36142                  24694730.5784
         6.2504          1.5004
  23444457.4144   -4998271.11946  -3790500.72545                  23444459.4774
        16.2504          7.7504
  20885817.1334    2790986.71148   2173305.95647                  20885817.3094
        31.0004         32.7504
  23489701.2734    3153273.93846   2184852.08045                  23489702.5744
        15.7504          8.2504
  21166841.2814   -2256226.41948  -1745156.60247                  21166841.3524
        28.2504         27.2504
  22459783.6094    2006163.82647   1056974.12546                  22459784.2894
        22.2504         14.2504
 98  7  8 20 31 15.0000000  0  7G 6G 3G21G17G22G23G26
  21443481.5394    8471841.28448   6594379.25247                  21443481.8094
        28.5004         26.7504
  24688817.5944    -764746.06744   -501899.78942                  24688818.9304
         6.7504          1.7504
  23440664.6724   -5018202.66346  -3806031.75245                  23440666.4304
        16.2504          7.7504
  20889937.4534    2812639.38648   2190178.17447                  20889937.6054
        31.0004         32.7504
  23495651.3524    3184544.42546   2209218.67745                  23495653.5784
        15.5004          7.7504
  21167412.4924   -2253225.43348  -1742818.15547                  21167412.5164
        28.2504         26.7504
  22465035.4694    2033764.14547   1078480.86946                  22465036.1954
        21.5004         14.2504
 98  7  8 20 31 30.0000000  0  7G 6G 3G21G17G22G23G26
  21453841.3284    8526283.03448   6636801.36247                  21453841.7624
        28.5004         26.2504
  24682911.2424    -795785.28344   -526086.21042                  24682914.1374
         6.2504          1.7504
  23436885.9224   -5038062.95646  -3821507.25645                  23436887.3984
        16.5004          8.2504
  20894069.4614    2834355.48748   2207099.80847                  20894069.6954
        30.7504         32.7504
  23501628.1254    3215950.98046   2233691.28745                  23501629.6724
        15.7504          8.2504
  21168005.2344   -2250109.45548  -1740390.10747                  21168005.2464
        28.2504         27.2504
  22470318.8834    2061527.29347   1100114.49746                  22470319.7974
        21.7504         14.2504
 98  7  8 20 31 45.0000000  0  7G 6G 3G21G17G22G23G26
  21464223.9694    8580844.46448   6679316.73147                  21464224.4024
        28.5004         26.5004
  24677010.1884    -826797.71244   -550251.59842                  24677012.5554
         7.0004          2.0004
  23433120.7344   -5057847.02046  -3836923.35245                  23433122.2114
        16.7504          8.2504
  20898214.0234    2856134.54848   2224070.50947                  20898214.3754
        30.5004         32.5004
  23507630.4224    3247493.10046   2258269.56545                  23507631.9344
        15.5004          8.0004
  21168620.6174   -2246874.88948  -1737869.65147                  21168620.6294
        28.2504         27.2504
  22475632.4064    2089451.37247   1121873.51446                  22475633.2624
        21.5004         14.0004
 98  7  8 20 32  0.0000000  0  7G 6G 3G21G17G22G23G26
  21474630.5784    8635532.03748   6721930.39847                  21474630.9654
        28.2504         26.0004
  24671113.1484    -857780.40944   -574393.90542                  24671114.5314
         6.7504          2.0004
  23429370.6804   -5077553.93746  -3852279.33845                  23429372.6844
        16.5004          8.0004
  20902371.1724    2877980.22448   2241093.11347                  20902371.6524
        30.2504         32.7504
  23513657.9384    3279170.50746   2282953.23345                  23513659.8594
        15.5004          8.2504
  21169258.4534   -2243524.14448  -1735258.66447                  21169258.5824
        28.2504         27.5004
  22480976.5784    2117535.92347   1143757.57346                  22480977.3054
        21.5004         13.7504
 98  7  8 20 32 15.0000000  0  7G 6G 3G21G17G22G23G26
  21485062.7274    8690352.83848   6764647.87447                  21485063.1024
        28.0004         25.7504
  24665226.1094    -888724.39445   -598506.12442                  24665227.7854
         7.5004          2.2504
  23425636.5634   -5097177.97046  -3867570.73445                  23425638.3914
        16.5004          8.0004
  20906541.9304    2899897.36548   2258171.40447                  20906542.2934
        30.7504         33.2504
  23519713.2114    3310987.34446   2307745.55845                  23519714.7464
        15.5004          7.7504
  21169918.1644   -2240057.42448  -1732557.31247                  21169918.2464
        28.2504         27.2504
  22486352.1094    2145784.39347   1165769.37846                  22486352.4024
        21.2504         13.7504
 98  7  8 20 32 30.0000000  0  7G 6G 3G21G17G22G23G26
  21495519.1094    8745302.14747   6807465.48847                  21495519.5904
        27.7504         26.0004
  24659343.6174    -919633.90944   -622591.35842                  24659345.2114
         7.2504          2.0004
  23421916.4924   -5116725.92146  -3882802.84845                  23421918.4264
        16.5004          8.2504
  20910724.4224    2921878.21648   2275299.33947                  20910724.8674
        30.2504         33.2504
  23525792.5944    3342936.02646   2332640.61945                  23525794.0004
        15.2504          7.7504
  21170598.3754   -2236483.16948  -1729772.15647                  21170598.4574
        28.5004         27.7504
  22491757.9694    2174191.09547   1187904.46246                  22491758.6724
        22.0004         13.7504
 98  7  8 20 32 45.0000000  0  7G 6G 3G21G17G22G23G26
  21506000.4304    8800380.41748   6850383.58947                  21506000.7934
        28.2504         26.0004
  24653468.9694    -950505.38345   -646646.98642                  24653471.3594
         7.5004          2.2504
  23418210.5864   -5136197.85946  -3897975.73245                  23418212.8954
        16.5004          8.2504
  20914919.3284    2943921.34648   2292475.80147                  20914919.8324
        30.7504         33.2504
  23531895.8594    3375012.37946   2357635.15545                  23531897.2664
        15.0004          8.0004
  21171299.0004   -2232801.60648  -1726903.39247                  21171299.0944
        28.5004         27.5004
  22497193.6724    2202757.65747   1210164.12046                  22497194.3054
        21.5004         13.5004
 98  7  8 20 33  0.0000000  0  7G 6G 3G21G17G22G23G26
  21516505.8594    8855587.04048   6893401.70947                  21516506.1764
        28.5004         25.7504
  24647601.8284    -981340.06345   -670673.97242                  24647603.8914
         8.5004          2.2504
  23414520.4534   -5155592.75846  -3913088.57645                  23414522.4344
        16.5004          8.5004
  20919126.0234    2966027.81448   2309701.61947                  20919126.5164
        30.5004         33.2504
  23538024.1644    3407213.35346   2382726.81545                  23538025.9694
        15.0004          7.7504
  21172020.0004   -2229012.02148  -1723950.45347                  21172020.0234
        28.7504         27.5004
  22502660.8674    2231484.59847   1232548.75546                  22502661.3594
        21.2504         13.7504
 98  7  8 20 33 15.0000000  0  7G 6G 3G21G17G22G23G26
  21527036.7114    8910925.42848   6936522.50747                  21527037.0394
        28.7504         26.0004
  24641741.1254   -1012133.33145   -694668.69243                  24641743.5044
         8.5004          2.7504
  23410844.6954   -5174908.41446  -3928139.68445                  23410846.5704
        16.2504          8.7504
  20923345.7344    2988201.78848   2326980.03747                  20923346.2974
        30.7504         33.5004
  23544175.3834    3439541.57146   2407917.60645                  23544177.3164
        14.7504          7.2504
  21172762.8754   -2225109.46248  -1720909.48347                  21172763.0394
        28.5004         27.5004
  22508159.0554    2260378.02447   1255063.10446                  22508159.5004
        22.7504         13.7504
 98  7  8 20 33 30.0000000  0  7G 6G 3G21G17G22G23G26
  21537591.6564    8966392.46748   6979743.54846                  21537592.0554
        28.5004         25.2504
  24635889.4774   -1042889.29445   -718634.31243                  24635891.9734
         9.0004          2.7504
  23407182.4924   -5194151.03446  -3943133.87645                  23407184.6844
        17.0004          8.7504
  20927577.3134    3010439.21448   2344307.90147                  20927577.8284
        31.0004         33.5004
  23550350.3914    3471990.11646   2433202.17345                  23550351.7274
        15.0004          7.2504
  21173526.3834   -2221095.82848  -1717781.95947                  21173526.4654
        28.5004         27.7504
  22513687.9774    2289433.05147   1277703.38046                  22513688.2814
        22.0004         14.2504
 98  7  8 20 33 45.0000000  0  7G 6G 3G21G17G22G23G26
  21548170.7734    9021986.65348   7023063.66147                  21548171.1134
        29.0004         25.7504
  24630044.0634   -1073606.27645   -742569.57443                  24630046.5124
         9.0004          2.5004
  23403533.8284   -5213324.60846  -3958074.26845                  23403535.8324
        17.0004          8.7504
  20931820.5944    3032737.37648   2361683.08747                  20931820.9924
        31.0004         33.2504
  23556548.2344    3504558.08046   2458579.80045                  23556549.6294
        14.7504          7.7504
  21174311.4844   -2216970.13148  -1714567.11347                  21174311.6374
        28.5004         27.7504
  22519247.2344    2318646.67547   1300467.25446                  22519247.5274
        22.2504         13.7504
 98  7  8 20 34  0.0010000  0  7G 6G 3G21G17G22G23G26
  21558774.5754    9077709.10348   7066483.72747                  21558774.7634
        29.0004         25.7504
  24624204.9034   -1104285.84645   -766475.67344                  24624207.8334
         8.5004          3.5004
  23399897.9974   -5232433.83746  -3972964.51645                  23399899.6614
        17.0004          8.7504
  20936076.2554    3055101.30348   2379109.51947                  20936076.6304
        31.0004         33.0004
  23562768.8644    3537249.92946   2484053.94045                  23562770.8104
        15.0004          7.5004
  21175117.1464   -2212735.21848  -1711267.16647                  21175117.1344
        28.7504         27.7504
  22524838.0054    2348023.27047   1323358.10746                  22524838.4624
        22.7504         14.2504
 98  7  8 20 34 15.0010000  0  7G 6G 3G21G17G22G23G26
  21569400.5054    9133548.31948   7109994.77446                  21569400.7284
        28.7504         25.0004
  24618375.3334   -1134922.80245   -790348.53143                  24618377.3604
         9.5004          3.0004
  23396273.4584   -5251478.34346  -3987804.33645                  23396275.1464
        17.0004          8.5004
  20940344.3964    3077530.75648   2396587.01347                  20940344.7594
        31.2504         33.2504
  23569013.1774    3570063.10646   2509622.62845                  23569015.1694
        15.0004          8.0004
  21175943.9114   -2208390.63448  -1707881.76047                  21175943.8644
        29.0004         27.7504
  22530458.3174    2377561.37947   1346374.80046                  22530458.8454
        21.7504         14.2504
 98  7  8 20 34 30.0010000  0  7G 6G 3G21G17G22G23G26
  21580048.1924    9189502.20448   7153595.17646                  21580048.3924
        28.5004         25.0004
  24612551.1224   -1165523.89545   -814193.55043                  24612554.0634
         8.7504          2.7504
  23392661.5674   -5270459.15046  -4002594.51445                  23392663.4784
        17.5004          8.2504
  20944625.3174    3100026.69348   2414116.31247                  20944625.7394
        30.7504         33.0004
  23575280.3644    3602998.35646   2535286.43845                  23575282.2634
        14.7504          8.0004
  21176792.5054   -2203932.30248  -1704407.71947                  21176792.7394
        29.0004         28.0004
  22536110.0674    2407264.15747   1369519.82446                  22536110.6774
        21.7504         14.2504
 98  7  8 20 34 45.0010000  0  7G 6G 3G21G17G22G23G26
  21590717.2244    9245567.73148   7197282.56946                  21590717.3414
        28.5004         24.2504
  24606736.3334   -1196090.49445   -838011.56743                  24606739.1574
         9.5004          3.2504
  23389062.4664   -5289373.52646  -4017332.93645                  23389064.4704
        17.2504          8.5004
  20948918.5364    3122588.84048   2431697.20347                  20948918.9584
        30.7504         32.7504
  23581570.7004    3636054.98046   2561044.81745                  23581571.9784
        15.0004          8.0004
  21177662.9424   -2199357.40648  -1700842.84647                  21177662.9424
        29.2504         28.2504
  22541793.7784    2437129.74947   1392791.71746                  22541794.0714
        22.2504         13.7504
 98  7  8 20 35  0.0010000  0  7G 6G 3G21G17G22G23G26
  21601407.4974    9301746.23348   7241057.99846                  21601407.6734
        28.0004         24.2504
  24600924.8804   -1226620.69145   -861801.29943                  24600928.2674
         9.0004          2.7504
  23385476.1774   -5308221.05246  -4032019.26045                  23385478.0174
        17.2504          8.7504
  20953225.3964    3145220.21748   2449332.03447                  20953225.7594
        31.2504         33.2504
  23587886.7244    3669241.12546   2586904.14445                  23587888.0484
        15.2504          7.5004
  21178556.6614   -2194661.45548  -1697183.64747                  21178556.6614
        29.0004         28.5004
  22547507.7554    2467157.36347   1416189.85346                  22547508.1884
        22.2504         14.5004
 98  7  8 20 35 15.0010000  0  7G 6G 3G21G17G22G23G26
  21612118.6064    9358033.37847   7284918.07946                  21612118.8294
        27.5004         23.7504
  24595122.4114   -1257116.99645   -885564.59443                  24595125.4584
         8.7504          3.2504
  23381900.1144   -5327009.68846  -4046659.69845                  23381902.1884
        17.0004          8.7504
  20957544.6384    3167917.39648   2467018.14847                  20957544.9664
        31.2504         33.5004
  23594226.2004    3702557.42046   2612864.86745                  23594227.8994
        15.2504          7.7504
  21179472.6534   -2189848.03048  -1693432.91647                  21179472.5604
        29.2504         28.0004
  22553251.7004    2497341.80747   1439710.20446                  22553251.8764
        22.0004         14.2504
 98  7  8 20 35 30.0010000  0  7G 6G 3G21G17G22G23G26
  21622851.5214    9414434.34947   7328866.85846                  21622851.8134
        27.0004         23.7504
  24589326.3724   -1287572.71145   -909296.25443                  24589330.1574
         8.7504          3.2504
  23378336.8174   -5345734.88746  -4061250.70645                  23378338.5524
        17.0004          9.0004
  20961876.9274    3190683.26548   2484757.78547                  20961877.1854
        31.2504         33.2504
  23600592.0914    3736009.15746   2638931.13745                  23600593.2864
        15.5004          8.0004
  21180411.8564   -2184912.64548  -1689587.14147                  21180411.7744
        29.5004         28.5004
  22559026.7784    2527686.16947   1463355.15646                  22559027.1064
        22.7504         14.2504
 98  7  8 20 35 45.0010000  0  7G 6G 3G21G17G22G23G26
  21633605.3804    9470946.60447   7372902.34946                  21633605.7554
        27.5004         24.0004
  24583538.2244   -1317989.12645   -932997.28143                  24583542.3254
         8.2504          2.7504
  23374785.4744   -5364396.84446  -4075792.42745                  23374786.9624
        17.5004          8.7504
  20966221.8024    3213516.48848   2502549.90447                  20966222.0134
        31.2504         33.2504
  23606983.7314    3769596.20446   2665102.83445                  23606985.4314
        15.5004          7.7504
  21181374.0604   -2179855.62348  -1685646.58847                  21181373.8374
        29.2504         28.0004
  22564830.2634    2558186.73747   1487121.82346                  22564830.7784
        22.2504         14.0004
 98  7  8 20 36  0.0010000  0  7G 6G 3G21G17G22G23G26
  21644380.1224    9527568.76147   7417023.48146                  21644380.3454
        27.0004         24.2504
  24577756.8174   -1348368.23645   -956669.27943                  24577760.4154
         8.0004          2.7504
  23371247.0604   -5382992.24846  -4090282.30945                  23371248.5834
        17.5004          8.7504
  20970580.1304    3236419.69948   2520396.56147                  20970580.4114
        31.5004         33.2504
  23613401.1144    3803320.58546   2691381.55745                  23613402.2864
        15.0004          7.5004
  21182358.6224   -2174681.08048  -1681614.46047                  21182358.5754
        29.2504         28.0004
  22570663.9974    2588844.16947   1511010.73746                  22570664.4784
        22.2504         14.5004
 98  7  8 20 36 15.0010000  0  7G 6G 3G21G17G22G23G26
  21655175.7944    9584300.89247   7461230.30446                  21655176.0404
        27.0004         23.7504
  24571982.8494   -1378711.62345   -980313.39343                  24571987.0794
         8.5004          3.0004
  23367722.0134   -5401517.11446  -4104717.20245                  23367723.7244
        17.0004          9.0004
  20974952.4974    3259395.74348   2538299.96947                  20974952.7204
        31.7504         33.0004
  23619845.6064    3837184.54046   2717769.02945                  23619847.1424
        14.7504          7.2504
  21183366.2784   -2169386.31448  -1677488.65547                  21183366.3254
        29.5004         28.5004
  22576528.1464    2619660.20047   1535023.21746                  22576528.8844
        21.7504         14.5004
 98  7  8 20 36 30.0010000  0  7G 6G 3G21G17G22G23G26
  21665992.7864    9641144.46347   7505523.95646                  21665993.2554
        26.7504         24.0004
  24566215.3024   -1409019.27744  -1003929.68543                  24566219.2634
         7.2504          2.5004
  23364210.4814   -5419968.49346  -4119094.84045                  23364212.8374
        17.0004          8.7504
  20979337.8494    3282441.68948   2556257.84847                  20979338.1654
        31.7504         33.5004
  23626315.1384    3871184.69046   2744262.63545                  23626316.9664
        15.0004          7.5004
  21184396.9114   -2163968.87848  -1673267.26147                  21184396.8064
        29.2504         28.2504
  22582422.3024    2650633.12047   1559157.95146                  22582423.0874
        22.5004         14.2504
 98  7  8 20 36 45.0010000  0  7G 6G 3G21G17G22G23G26
  21676831.1144    9698099.79247   7549904.70046                  21676831.6424
        27.0004         24.0004
  24560455.0364   -1439289.20045  -1027516.55243                  24560457.3924
         8.0004          2.7504
  23360713.3644   -5438345.52346  -4133414.55045                  23360715.3104
        17.0004          8.5004
  20983736.5834    3305556.86648   2574269.67447                  20983736.7824
        31.7504         33.2504
  23632811.3334    3905321.23746   2770862.52645                  23632813.0094
        15.2504          7.7504
  21185450.8174   -2158431.14748  -1668952.13347                  21185450.8414
        29.2504         28.0004
  22588345.7634    2681762.23247   1583414.39646                  22588346.2204
        22.7504         14.5004
 98  7  8 20 37  0.0010000  0  7G 6G 3G21G17G22G23G26
  21687691.7474    9755171.43047   7594376.07246                  21687692.0994
        27.5004         24.2504
  24554703.7164   -1469517.48545  -1051071.00043                  24554707.0674
         7.7504          2.5004
  23357230.0134   -5456649.92846  -4147677.67245                  23357231.6424
        17.2504          9.0004
  20988148.8724    3328744.23648   2592337.75747                  20988148.9664
        31.7504         33.7504
  23639333.5284    3939596.43946   2797570.45145                  23639334.9234
        15.0004          7.5004
  21186527.4744   -2152773.89648  -1664543.86847                  21186527.6384
        29.0004         28.0004
  22594298.8334    2713045.83947   1607791.23346                  22594299.3724
        22.2504         14.7504
 98  7  8 20 37 15.0010000  0  7G 6G 3G21G17G22G23G26
  21698574.3724    9812360.31947   7638938.80346                  21698574.8064
        27.5004         24.7504
  24548958.3024   -1499705.56545  -1074594.09043                  24548960.9624
         7.7504          2.7504
  23353760.9274   -5474882.70646  -4161884.96245                  23353762.5444
        17.2504          9.0004
  20992575.6534    3352005.42248   2610463.35347                  20992575.7824
        32.2504         33.7504
  23645881.4034    3974008.50646   2824385.02545                  23645883.6884
        15.0004          7.7504
  21187625.9744   -2147000.04948  -1660044.75647                  21187626.1034
        29.2504         27.7504
  22600282.2314    2744485.25647   1632289.46846                  22600282.7594
        22.2504         14.0004
 98  7  8 20 37 30.0010000  0  7G 6G 3G21G17G22G23G26
  21709479.2944    9869666.81847   7683593.18846                  21709479.7634
        27.2504         24.7504
  24543221.3724   -1529852.33945  -1098085.06843                  24543223.1654
         7.5004          2.7504
  23350305.5914   -5493038.97046  -4176032.64245                  23350307.1734
        17.5004          9.0004
  20997016.1614    3375341.21148   2628647.08547                  20997016.3254
        31.7504         33.7504
  23652455.6064    4008553.57146   2851303.23845                  23652457.3644
        14.7504          7.5004
  21188746.5444   -2141111.72948  -1655456.43947                  21188746.6614
        29.2504         28.0004
  22606294.6694    2776083.12847   1656911.19346                  22606295.1384
        22.2504         14.5004
 98  7  8 20 37 45.0010000  0  7G 6G 3G21G17G22G23G26
  21720406.2554    9927088.94847   7728337.66046                  21720406.9234
        27.2504         24.7504
  24537492.4974   -1559961.61145  -1121546.74343                  24537495.8724
         8.2504          2.5004
  23346865.6064   -5511117.92146  -4190120.06645                  23346867.2474
        17.2504          9.0004
  21001471.1854    3398753.30848   2646890.27647                  21001471.3374
        31.5004         34.0004
  23659053.6854    4043229.85246   2878323.69745                  23659055.6774
        14.7504          7.2504
  21189889.0674   -2135107.70348  -1650777.96647                  21189889.0914
        29.7504         28.2504
  22612337.2394    2807838.32047   1681655.49546                  22612337.4034
        22.2504         14.2504
 98  7  8 20 38  0.0010000  0  7G 6G 3G21G17G22G23G26
  21731355.0674    9984624.70347   7773170.68046                  21731355.5714
        27.7504         25.0004
  24531769.5134   -1590035.62545  -1144980.97142                  24531772.8764
         7.5004          2.2504
  23343438.9584   -5529122.53946  -4204149.59545                  23343440.4814
        17.2504          9.2504
  21005941.0604    3422241.67348   2665192.89547                  21005941.2594
        31.7504         34.0004
  23665676.8334    4078035.54946   2905445.00345                  23665678.9424
        14.5004          7.0004
  21191053.3254   -2128990.58748  -1646011.36247                  21191053.2434
        30.0004         28.5004
  22618410.2314    2839752.06347   1706523.33446                  22618410.9354
        21.7504         13.7504
 98  7  8 20 38 15.0010000  0  7G 6G 3G21G17G22G23G26
  21742325.9114   10042276.05447   7818093.77746                  21742326.3334
        27.7504         24.5004
  24526053.3564   -1620071.00344  -1168385.10642                  24526055.9234
         7.2504          2.2504
  23340026.7314   -5547053.63246  -4218121.80345                  23340028.0094
        17.5004          9.0004
  21010425.2554    3445806.53148   2683555.12247                  21010425.4664
        31.5004         33.7504
  23672325.8174    4112971.46746   2932667.78645                  23672328.0794
        14.7504          7.2504
  21192239.6774   -2122757.05348  -1641154.05547                  21192239.5014
        30.2504         28.7504
  22624514.1854    2871827.77147   1731517.39346                  22624514.7714
        22.0004         14.0004
 98  7  8 20 38 30.0010000  0  7G 6G 3G21G17G22G23G26
  21753318.1924   10100040.40147   7863104.92246                  21753318.6734
        27.7504         25.0004
  24520345.8564   -1650066.89945  -1191758.48743                  24520349.9114
         8.2504          2.5004
  23336627.8174   -5564916.19146  -4232040.62945                  23336629.7514
        17.0004          8.5004
  21014922.8964    3469441.71548   2701972.14547                  21014923.0604
        31.5004         33.5004
  23678997.5524    4148031.29246   2959987.09845                  23678999.3564
        15.0004          7.5004
  21193447.7314   -2116408.36748  -1636207.01047                  21193447.5564
        30.0004         28.2504
  22630647.8964    2904062.26147   1756635.16846                  22630648.4354
        22.0004         14.0004
 98  7  8 20 38 45.0010000  0  7G 6G 3G21G17G22G23G26
  21764332.3724   10157920.35747   7908206.14846                  21764332.8534
        27.5004         24.2504
  24514645.8024   -1680016.91245  -1215096.11842                  24514648.8494
         7.7504          2.2504
  23333242.7164   -5582704.98346  -4245901.96145                  23333244.3454
        17.5004          9.0004
  21019434.3564    3493150.25848   2720446.33347                  21019434.5794
        31.2504         33.5004
  23685693.3804    4183216.91946   2987404.45545                  23685695.4784
        14.7504          7.2504
  21194678.1064   -2109942.47848  -1631168.64047                  21194677.8964
        30.2504         28.5004
  22636813.1144    2936460.08647   1781880.22746                  22636813.5714
        22.0004         14.2504
 98  7  8 20 39  0.0010000  0  7G 6G 3G21G17G22G23G26
  21775369.1694   10215917.67147   7953398.82146                  21775369.6264
        27.5004         24.2504
  24508955.5054   -1709921.03845  -1238397.92141                  24508958.1304
         7.5004          1.2504
  23329871.2634   -5600421.14946  -4259706.71045                  23329872.9504
        17.7504          9.5004
  21023960.4504    3516934.27548   2738979.33347                  21023960.7554
        31.5004         33.5004
  23692412.5834    4218529.60746   3014920.81545                  23692414.5524
        14.2504          7.2504
  21195930.5284   -2103360.38348  -1626039.72547                  21195930.2594
        30.2504         28.2504
  22643009.1924    2969019.17447   1807250.94746                  22643009.6144
        22.0004         14.0004
 98  7  8 20 39 15.0010000  0  7G 6G 3G21G17G22G23G26
  21786427.7784   10274031.89047   7998682.60046                  21786428.2244
        27.5004         24.0004
  24503272.1384   -1739783.73545  -1261667.53142                  24503275.7124
         7.5004          2.0004
  23326513.5994   -5618063.49646  -4273453.94445                  23326515.3214
        17.7504          9.5004
  21028499.7944    3540789.82548   2757568.07247                  21028500.1344
        31.5004         33.5004
  23699155.9814    4253966.34546   3042533.82345                  23699158.1144
        14.0004          7.2504
  21197205.0364   -2096662.18248  -1620820.33447                  21197204.7554
        30.0004         28.2504
  22649235.7474    3001741.08947   1832748.54046                  22649236.1924
        22.2504         13.7504
 98  7  8 20 39 30.0010000  0  7G 6G 3G21G17G22G23G26
  21797508.2394   10332260.02247   8044055.13346                  21797508.6384
        27.0004         23.5004
  24497599.1304   -1769605.60245  -1284905.29343                  24497601.8254
         9.0004          2.5004
  23323171.1694   -5635629.73846  -4287141.86745                  23323172.8804
        17.5004          9.5004
  21033052.1924    3564712.51948   2776209.13247                  21033052.4854
        31.5004         34.0004
  23705923.1384    4289525.20646   3070242.01645                  23705925.4114
        14.0004          6.7504
  21198501.6534   -2089848.12148  -1615510.66047                  21198501.4424
        30.0004         28.5004
  22655494.4664    3034629.26847   1858375.68546                  22655494.8884
        22.5004         14.5004
 98  7  8 20 39 45.0010000  0  7G 6G 3G21G17G22G23G26
  21808609.8024   10390599.79747   8089514.65846                  21808610.2244
        26.5004         22.2504
  24491930.6144   -1799386.46245  -1308111.10042                  24491933.0054
         7.7504          2.2504
  23319842.5134   -5653120.75846  -4300771.17545                  23319844.1064
        18.0004          9.7504
  21037617.3254    3588702.19748   2794902.38847                  21037617.6184
        31.5004         34.0004
  23712711.8964    4325205.50246   3098044.83945                  23712713.5604
        13.7504          6.5004
  21199820.1304   -2082919.19648  -1610111.48447                  21199819.9664
        30.0004         28.0004
  22661784.1924    3067684.28147   1884132.84446                  22661784.4974
        21.7504         14.0004
 98  7  8 20 40  0.0010000  0  7G 6G 3G21G17G22G23G26
  21819733.5284   10449055.07847   8135064.18846                  21819734.1384
        26.5004         22.5004
  24486271.8174   -1829122.29845  -1331281.84443                  24486274.1144
         8.7504          3.0004
  23316529.1534   -5670533.56646  -4314339.53945                  23316531.0054
        18.2504         10.2504
  21042195.4974    3612760.09048   2813648.79947                  21042195.7554
        31.5004         33.7504
  23719525.7164    4361010.20846   3125944.57945                  23719528.0014
        14.0004          6.7504
  21201160.9974   -2075873.62148  -1604621.41447                  21201160.9384
        30.0004         28.2504
  22668107.0524    3100910.13147   1910023.11346                  22668107.4384
        22.2504         14.2504
 98  7  8 20 40 15.0010000  0  7G 6G 3G21G17G22G23G26
  21830879.3564   10507627.57247   8180705.06046                  21830879.9664
        26.0004         22.0004
  24480622.8804   -1858810.55545  -1354415.44243                  24480626.0324
         9.2504          2.7504
  23313230.1614   -5687867.44146  -4327846.40945                  23313231.9544
        18.0004          9.5004
  21046785.8564    3636883.35048   2832446.14447                  21046786.2904
        31.5004         33.2504
  23726361.8104    4396937.40646   3153939.77845                  23726364.0714
        14.0004          6.7504
  21202523.2634   -2068714.89048  -1599043.16447                  21202523.2744
        30.0004         28.5004
  22674462.5524    3134306.48547   1936046.24646                  22674462.9624
        22.7504         14.0004
 98  7  8 20 40 30.0010000  0  7G 6G 3G21G17G22G23G26
  21842047.8564   10566317.52647   8226437.45346                  21842048.5714
        26.0004         21.7504
  24474981.7244   -1888451.16845  -1377511.98643                  24474983.7394
         9.7504          3.0004
  23309947.5674   -5705120.47346  -4341290.27845                  23309949.4074
        18.0004         10.0004
  21051388.9034    3661072.82348   2851295.08247                  21051389.2314
        31.2504         33.7504
  23733222.6224    4432987.39146   3182030.65845                  23733224.4154
        14.0004          6.5004
  21203907.1384   -2061442.08848  -1593376.03347                  21203907.0094
        30.2504         28.5004
  22680848.8884    3167869.94647   1962199.58746                  22680848.9464
        22.2504         14.2504
 98  7  8 20 40 45.0010000  0  7G 6G 3G21G17G22G23G26
  21853240.0054   10625133.58247   8272268.11446                  21853240.7434
        25.2504         21.2504
  24469351.9744   -1918038.03545  -1400566.60443                  24469354.4114
         9.7504          2.7504
  23306681.5834   -5722281.84346  -4354662.71845                  23306683.2824
        18.5004         10.5004
  21056006.5134    3685337.94048   2870202.96647                  21056006.8644
        31.2504         33.7504
  23740107.3804    4469167.61646   3210223.01145                  23740109.1854
        14.0004          7.0004
  21205314.0674   -2054048.74048  -1587614.96947                  21205313.9154
        30.2504         28.5004
  22687269.6534    3201608.73547   1988489.55746                  22687270.0174
        22.0004         13.7504
 98  7  8 20 41  0.0010000  0  7G 6G 3G21G17G22G23G26
  21864456.7164   10684077.10347   8318198.09146                  21864457.4314
        25.2504         21.2504
  24463732.3884   -1947571.47045  -1423579.67943                  24463734.7204
        10.0004          3.2504
  23303432.6144   -5739353.51446  -4367965.27045                  23303433.9624
        18.7504         10.7504
  21060638.7784    3709681.05648   2889171.63047                  21060639.2004
        31.0004         34.0004
  23747017.2864    4505481.01646   3238519.15745                  23747019.8414
        13.7504          6.5004
  21206744.0524   -2046534.17048  -1581759.44947                  21206744.0874
        30.2504         28.5004
  22693723.4744    3235524.26247   2014917.23846                  22693723.5094
        22.2504         14.0004
 98  7  8 20 41 15.0010000  0  7G 6G 3G21G17G22G23G26
  21875694.5604   10743131.18547   8364214.22046                  21875695.1694
        25.7504         21.2504
  24458119.3024   -1977068.61645  -1446564.36744                  24458121.5054
        10.7504          3.5004
  23300198.1774   -5756354.42946  -4381212.69045                  23300199.6064
        19.0004         10.7504
  21065282.4974    3734083.12548   2908186.22547                  21065282.8604
        31.5004         33.5004
  23753950.2784    4541911.17446   3266906.26645                  23753952.3294
        14.2504          7.0004
  21208194.1614   -2038913.66648  -1575821.38447                  21208194.1854
        30.2504         28.7504
  22700207.6694    3269601.05547   2041470.58146                  22700207.9624
        22.2504         14.0004
 98  7  8 20 41 30.0010000  0  7G 6G 3G21G17G22G23G26
  21886950.7944   10802282.95747   8410306.47446                  21886951.5794
        26.0004         21.5004
  24452511.3024   -2006536.97945  -1469526.69443                  24452514.4894
        10.2504          3.0004
  23296974.5444   -5773294.31946  -4394412.53645                  23296975.7634
        19.0004         10.5004
  21069934.8884    3758531.97248   2927237.27647                  21069935.1104
        31.2504         33.2504
  23760903.1694    4578447.66946   3295376.24945                  23760905.1144
        14.0004          6.7504
  21209662.6614   -2031196.63548  -1569808.10047                  21209662.2864
        30.7504         29.2504
  22706721.3104    3303829.72347   2068142.26846                  22706721.7554
        22.0004         14.0004
 98  7  8 20 41 45.0010000  0  7G 6G 3G21G17G22G23G26
  21898227.1694   10861541.11447   8456481.62346                  21898227.6854
        26.0004         21.7504
  24446911.4814   -2035964.27745  -1492456.96444                  24446914.4354
        11.0004          4.0004
  23293763.7474   -5790166.14546  -4407559.37745                  23293764.9784
        19.5004         10.5004
  21074598.5524    3783040.55748   2946334.87647                  21074598.7514
        31.5004         33.5004
  23767876.7084    4615099.68146   3323936.23745                  23767878.6304
        13.7504          6.7504
  21211151.4424   -2023374.18248  -1563712.67247                  21211151.2784
        30.7504         29.0004
  22713265.3174    3338215.91547   2094936.70546                  22713265.7394
        22.7504         14.0004
 98  7  8 20 42  0.0010000  0  7G 6G 3G21G17G22G23G26
  21909525.7084   10920915.52547   8502747.35946                  21909526.2824
        26.0004         21.7504
  24441321.6534   -2065342.33845  -1515348.93843                  24441324.6774
        10.7504          2.7504
  23290567.0994   -5806964.51946  -4420648.96345                  23290568.4934
        19.5004         10.5004
  21079274.9814    3807615.16948   2965483.92347                  21079275.3214
        31.5004         33.7504
  23774876.2554    4651875.87846   3352592.99245                  23774878.0954
        14.0004          7.0004
  21212661.8024   -2015436.81848  -1557527.70147                  21212661.6964
        30.7504         28.7504
  22719839.1384    3372762.68247   2121856.26446                  22719839.3374
        22.5004         14.5004
 98  7  8 20 42 15.0010000  0  7G 6G 3G21G17G22G23G26
  21920847.2164   10980411.06547   8549107.48146                  21920847.9194
        26.0004         21.5004
  24435740.5604   -2094666.82545  -1538199.13843                  24435744.0404
        10.2504          3.0004
  23287385.3024   -5823686.53146  -4433679.04945                  23287385.8534
        19.7504         11.0004
  21083964.1304    3832257.35148   2984685.62347                  21083964.5054
        31.7504         33.7504
  23781898.6064    4688780.73646   3381350.00145                  23781900.8454
        14.0004          6.5004
  21214195.3254   -2007377.49448  -1551247.69647                  21214195.2314
        30.7504         28.7504
  22726444.2164    3407472.22647   2148902.65846                  22726444.3214
        22.0004         14.5004
 98  7  8 20 42 30.0010000  0  7G 6G 3G21G17G22G23G26
  21932191.5214   11040023.54947   8595558.73246                  21932192.1304
        26.2504         22.0004
  24430170.7314   -2123940.22145  -1561009.51544                  24430172.5364
        11.5004          3.5004
  23284217.3024   -5840332.23146  -4446649.66545                  23284218.5094
        19.5004         11.0004
  21088666.4584    3856967.42148   3003940.22647                  21088666.7284
        31.5004         33.7504
  23788946.7084    4725815.99446   3410208.61245                  23788948.4314
        14.2504          7.2504
  21215752.5604   -1999194.31048  -1544871.18347                  21215752.4544
        30.7504         29.0004
  22733079.7314    3442341.47847   2176073.50646                  22733080.2244
        22.2504         13.5004
 98  7  8 20 42 45.0010000  0  7G 6G 3G21G17G22G23G26
  21943557.3884   11099751.46147   8642099.92646                  21943557.8564
        26.2504         22.2504
  24424609.7474   -2153163.14545  -1583780.56444                  24424612.3024
        11.0004          3.7504
  23281064.0914   -5856901.43746  -4459560.68745                  23281065.1344
        18.7504         10.5004
  21093381.3104    3881744.41748   3023246.97847                  21093381.5674
        31.7504         34.0004
  23796017.9274    4762982.13446   3439169.21645                  23796019.9784
        13.5004          6.5004
  21217332.9814   -1990888.67548  -1538399.24647                  21217332.9234
        30.7504         28.5004
  22739745.0444    3477370.01847   2203368.46646                  22739745.9464
        21.7504         13.2504
 98  7  8 20 43  0.0010000  0  7G 6G 3G21G17G22G23G26
  21954945.9274   11159598.04747   8688733.58846                  21954946.3254
        26.0004         21.5004
  24419059.1694   -2182332.26845  -1606509.70044                  24419060.8924
        11.5004          4.0004
  23277926.1304   -5873394.29046  -4472412.20845                  23277927.0794
        19.2504         11.0004
  21098109.4424    3906589.61148   3042606.87247                  21098109.8174
        31.7504         33.2504
  23803116.6694    4800280.47546   3468232.85845                  23803118.4624
        13.7504          6.5004
  21218936.6924   -1982461.33648  -1531832.48147                  21218936.4704
        30.7504         28.7504
  22746441.8024    3512561.19447   2230790.16446                  22746442.5284
        22.2504         13.5004
 98  7  8 20 43 15.0010000  0  7G 6G 3G21G17G22G23G26
  21966356.2554   11219560.15947   8735457.27646                  21966356.8764
        25.7504         21.2504
  24413517.7244   -2211451.61445  -1629200.01544                  24413519.7284
        11.0004          4.0004
  23274801.0444   -5889813.67946  -4485206.47245                  23274802.3214
        18.7504         10.7504
  21102849.6224    3931500.58948   3062018.02347                  21102849.9154
        31.5004         34.0004
  23810239.7314    4837709.94046   3497398.65245                  23810241.2084
        14.2504          6.5004
  21220563.5444   -1973912.80348  -1525171.27047                  21220563.4154
        30.7504         28.2504
  22753168.4424    3547910.85747   2258335.35446                  22753168.8174
        22.2504         13.7504
 98  7  8 20 43 30.0010000  0  7G 6G 3G21G17G22G23G26
  21977787.7314   11279632.67447   8782266.98746                  21977788.3764
        26.0004         21.0004
  24407983.5674   -2240528.07345  -1651856.96244                  24407985.7714
        10.7504          4.2504
  23271689.8964   -5906162.47546  -4497945.75245                  23271691.3254
        18.7504         10.5004
  21107601.8724    3956472.84748   3081476.92647                  21107602.0484
        31.7504         33.7504
  23817385.3174    4875265.53246   3526662.72745                  23817387.3924
        13.7504          6.7504
  21222211.8564   -1965249.66848  -1518420.76647                  21222211.6924
        30.7504         28.5004
  22759924.0994    3583412.47347   2285998.95046                  22759924.6264
        21.2504         13.5004
 98  7  8 20 43 45.0010000  0  7G 6G 3G21G17G22G23G26
  21989241.3414   11339821.83747   8829167.59246                  21989241.8214
        26.0004         21.2504
  24402459.6224   -2269559.07945  -1674478.48644                  24402461.7204
        11.2504          4.2504
  23268592.9584   -5922436.71046  -4510626.91445                  23268594.5284
        19.2504         10.5004
  21112367.2784    3981515.58648   3100990.74647                  21112367.4894
        31.5004         33.5004
  23824557.3884    4912951.53246   3556028.43045                  23824558.8884
        14.2504          6.7504
  21223882.8414   -1956469.52448  -1511579.08147                  21223882.5834
        30.7504         29.0004
  22766709.4114    3619070.22847   2313784.21046                  22766709.7514
        21.2504         13.5004
 98  7  8 20 44  0.0010000  0  7G 6G 3G21G17G22G23G26
  22000717.1694   11400127.92847   8876159.31246                  22000717.8374
        25.5004         21.2504
  24396943.3644   -2298548.55445  -1697067.61144                  24396945.5914
        10.5004          3.7504
  23265509.9504   -5938639.03646  -4523252.04345                  23265511.0874
        19.5004         10.7504
  21117145.9504    4006627.44948   3120558.43447                  21117146.1384
        32.2504         34.2504
  23831753.2474    4950767.26646   3585495.21145                  23831754.9584
        14.5004          7.0004
  21225575.6224   -1947574.24348  -1504647.68847                  21225575.3994
        31.0004         28.5004
  22773524.9974    3654885.01347   2341691.84546                  22773525.6304
        21.5004         13.5004
 98  7  8 20 44 15.0010000  0  7G 6G 3G21G17G22G23G26
  22012215.4664   11460552.59047   8923243.42346                  22012216.1224
        25.2504         20.5004
  24391435.0674   -2327495.02045  -1719623.26444                  24391437.4464
        11.2504          4.0004
  23262440.6144   -5954767.39446  -4535819.55845                  23262441.7164
        19.5004         11.0004
  21121938.3174    4031810.61348   3140181.68547                  21121938.4354
        32.5004         34.2504
  23838974.5134    4988715.69646   3615065.38545                  23838976.1884
        14.2504          7.0004
  21227290.7784   -1938561.20148  -1497624.52547                  21227290.5214
        31.5004         28.7504
  22780370.7314    3690860.27347   2369724.50946                  22780371.0834
        21.5004         13.7504
 98  7  8 20 44 30.0010000  0  7G 6G 3G21G17G22G23G26
  22023736.3494   11521095.19747   8970419.43646                  22023736.8064
        25.2504         20.0004
  24385935.3174   -2356396.98645  -1742144.20444                  24385937.1814
        11.0004          3.7504
  23259385.9664   -5970819.97746  -4548328.01245                  23259387.1384
        19.5004         10.7504
  21126744.9424    4057070.60348   3159864.79347                  21126745.0134
        32.2504         34.5004
  23846222.3494    5026797.43046   3644739.44345                  23846223.8494
        15.0004          7.2504
  21229028.1614   -1929430.80248  -1490509.91847                  21229027.9384
        31.5004         29.0004
  22787247.2084    3726996.92847   2397882.93146                  22787247.7474
        21.7504         13.2504
 98  7  8 20 44 45.0010000  0  7G 6G 3G21G17G22G23G26
  22035279.5604   11581754.18347   9017686.14046                  22035280.0404
        25.2504         20.2504
  24380442.9034   -2385255.70845  -1764631.44944                  24380445.8564
        10.0004          3.7504
  23256344.2944   -5986802.59046  -4560781.95045                  23256345.6534
        19.7504         11.5004
  21131566.5054    4082406.59248   3179607.12547                  21131566.6574
        32.2504         34.0004
  23853493.0914    5065006.97446   3674513.09645                  23853495.1064
        14.5004          7.0004
  21230787.1144   -1920187.24848  -1483307.14147                  21230786.8684
        31.7504         29.2504
  22794154.1464    3763293.58347   2426166.03946                  22794154.3454
        21.2504         13.5004
 98  7  8 20 45  0.0010000  0  7G 6G 3G21G17G22G23G26
  22046845.6534   11642532.99047   9065046.21346                  22046846.0874
        25.5004         20.0004
  24374959.7394   -2414069.57545  -1787083.75744                  24374962.3994
        10.0004          3.7504
  23253315.8964   -6002716.77547  -4573182.55745                  23253316.9974
        20.2504         11.0004
  21136402.1614    4107819.41848   3199409.32847                  21136402.2554
        32.0004         34.0004
  23860787.4194    5103341.64046   3704384.23845                  23860788.5214
        14.7504          7.2504
  21232568.0364   -1910828.84548  -1476014.86747                  21232567.6384
        32.0004         29.7504
  22801092.3414    3799753.22947   2454576.14946                  22801092.4114
        21.7504         13.5004
 98  7  8 20 45 15.0010000  0  7G 6G 3G21G17G22G23G26
  22058433.1534   11703425.63747   9112494.99346                  22058433.5054
        25.5004         20.0004
  24369484.4354   -2442841.44345  -1809503.33044                  24369486.1104
        10.2504          4.0004
  23250300.4274   -6018565.26047  -4585531.98545                  23250301.2124
        20.5004         11.5004
  21141252.0364    4133306.22648   3219269.17847                  21141252.1304
        32.2504         34.5004
  23868105.8024    5141798.32846   3734350.46745                  23868107.1854
        14.7504          6.7504
  21234370.4504   -1901356.57648  -1468633.87347                  21234370.1814
        31.5004         29.2504
  22808061.0754    3836372.94847   2483110.99546                  22808061.5324
        21.5004         13.5004
 98  7  8 20 45 30.0010000  0  7G 6G 3G21G17G22G23G26
  22070041.9744   11764432.03547   9160032.40746                  22070042.4314
        25.5004         20.2504
  24364018.2394   -2471568.95745  -1831888.33943                  24364021.1574
         9.7504          3.2504
  23247297.3494   -6034344.10947  -4597827.14945                  23247298.9664
        20.0004         11.2504
  21146116.8024    4158869.26348   3239188.43247                  21146116.8964
        32.0004         33.7504
  23875446.4814    5180376.61746   3764411.45045                  23875448.0404
        14.5004          6.7504
  21236195.0054   -1891768.77848  -1461162.85047                  21236194.8884
        31.2504         29.0004
  22815060.5524    3873154.48847   2511771.92446                  22815060.8684
        21.7504         13.5004
 98  7  8 20 45 45.0010000  0  7G 6G 3G21G17G22G23G26
  22081673.9194   11825555.19447   9207660.80246                  22081674.4114
        25.7504         20.2504
  24358561.6464   -2500244.55045  -1854232.92044                  24358564.1884
        11.0004          3.7504
  23244309.2554   -6050047.96747  -4610063.86545                  23244310.4504
        20.0004         11.5004
  21150996.2634    4184512.89748   3259170.48447                  21150996.3454
        32.2504         33.7504
  23882811.0674    5219076.39646   3794567.10345                  23882812.6734
        14.7504          6.7504
  21238041.1534   -1882065.66948  -1453601.97147                  21238041.0244
        31.0004         29.2504
  22822090.7714    3910100.03347   2540560.65446                  22822091.1464
        21.5004         13.2504
 98  7  8 20 46  0.0010000  0  7G 6G 3G21G17G22G23G26
  22093327.1304   11886794.41447   9255379.63346                  22093327.5404
        26.2504         20.2504
  24353115.1854   -2528863.18145  -1876533.07844                  24353118.2674
        10.2504          3.5004
  23241335.7634   -6065672.85647  -4622239.06045                  23241336.7824
        20.5004         11.7504
  21155891.7314    4210237.95448   3279215.98647                  21155891.8964
        32.0004         33.7504
  23890198.0214    5257896.27646   3824816.33145                  23890199.5914
        14.7504          7.0004
  21239910.2864   -1872244.28648  -1445948.94047                  21239910.1694
        31.5004         29.2504
  22829152.7944    3947210.08347   2569477.56846                  22829153.3454
        22.0004         13.2504
 98  7  8 20 46 15.0010000  0  7G 6G 3G21G17G22G23G26
  22105001.5914   11948144.27147   9303184.69046                  22105002.0134
        26.0004         19.7504
  24347680.4504   -2557423.67745  -1898787.97143                  24347683.9894
        10.0004          3.2504
  23238377.4114   -6081217.74947  -4634351.91745                  23238378.5604
        20.2504         11.5004
  21160801.8494    4236041.70748   3299322.80747                  21160801.9784
        31.7504         33.7504
  23897608.0134    5296833.39846   3855156.92645                  23897609.7944
        14.7504          6.7504
  21241801.3334   -1862305.45848  -1438204.38847                  21241801.2744
        31.0004         29.0004
  22836244.4114    3984479.34047   2598518.55046                  22836244.8684
        21.2504         12.7504
 98  7  8 20 46 30.0010000  0  7G 6G 3G21G17G22G23G26
  22116696.4194   12009600.03847   9351072.25746                  22116696.9584
        25.7504         20.0004
  24342255.6854   -2585926.28645  -1920997.74444                  24342258.3334
        10.0004          3.7504
  23235434.6384   -6096682.38347  -4646402.23245                  23235435.8334
        20.0004         11.7504
  21165727.1924    4261924.14948   3319490.94447                  21165727.4974
        31.5004         33.2504
  23905039.3254    5335884.79546   3885586.56145                  23905041.2004
        15.0004          6.7504
  21243714.7084   -1852251.35748  -1430370.01247                  21243714.6144
        31.0004         29.2504
  22843366.8494    4021904.85347   2627681.28346                  22843367.2824
        21.5004         13.0004
 98  7  8 20 46 45.0010000  0  7G 6G 3G21G17G22G23G26
  22128410.9274   12071161.58547   9399042.25446                  22128411.5244
        25.5004         20.0004
  24336844.2474   -2614370.18645  -1943161.74943                  24336847.4584
        10.2504          3.2504
  23232507.5284   -6112063.68347  -4658387.62045                  23232508.8994
        20.0004         11.7504
  21170667.0134    4287882.45848   3339718.20147                  21170667.2824
        31.5004         32.7504
  23912491.3724    5375048.28746   3916103.54245                  23912493.3644
        14.2504          7.0004
  21245649.4664   -1842083.51948  -1422447.01047                  21245649.5954
        31.0004         29.2504
  22850519.0214    4059488.92147   2656967.55846                  22850519.6534
        22.0004         13.7504
 98  7  8 20 47  0.0010000  0  7G 6G 3G21G17G22G23G26
  22140145.3254   12132826.80547   9447093.04046                  22140145.8064
        25.5004         19.7504
  24331441.5054   -2642757.58845  -1965281.77843                  24331442.9584
         9.7504          3.2504
  23229596.6854   -6127359.77747  -4670306.60445                  23229598.1734
        20.0004         11.7504
  21175620.4894    4313913.06248   3360001.79147                  21175620.7244
        31.0004         33.0004
  23919964.7244    5414323.37346   3946707.48045                  23919966.7164
        14.2504          6.5004
  21247605.5914   -1831804.47948  -1414437.35847                  21247605.6144
        31.2504         29.5004
  22857701.0524    4097230.40247   2686376.50046                  22857701.3454
        22.2504         14.2504
 98  7  8 20 47 15.0010000  0  7G 6G 3G21G17G22G23G26
  22151898.9114   12194592.39947   9495222.03346                  22151899.5564
        25.5004         20.0004
  24326049.5284   -2671090.51645  -1987359.32044                  24326050.6064
        10.7504          3.7504
  23226702.9894   -6142566.16146  -4682155.68545                  23226704.6884
        19.7504         11.5004
  21180587.2944    4340014.21448   3380340.34947                  21180587.6694
        31.0004         33.0004
  23927460.0604    5453711.88746   3977399.81545                  23927462.3454
        13.5004          6.7504
  21249582.4664   -1821415.42348  -1406341.97647                  21249582.3724
        31.0004         29.0004
  22864912.3494    4135126.84747   2715906.19746                  22864912.7714
        22.7504         13.7504
 98  7  8 20 47 30.0010000  0  7G 6G 3G21G17G22G23G26
  22163671.4744   12256458.12647   9543429.05946                  22163672.2474
        25.0004         19.7504
  24320669.0364   -2699368.21345  -2009393.81844                  24320671.9074
        10.7504          3.5004
  23223826.2714   -6157683.53146  -4693935.41045                  23223827.5014
        19.7504         11.5004
  21185567.6224    4366186.33148   3400734.20447                  21185567.9384
        31.0004         32.7504
  23934977.2714    5493211.33046   4008178.56345                  23934979.2744
        13.5004          6.7504
  21251580.4274   -1810916.62548  -1398161.08747                  21251580.3454
        31.5004         29.2504
  22872152.6144    4173175.11347   2745554.18746                  22872153.0604
        22.2504         13.7504
 98  7  8 20 47 45.0010000  0  7G 6G 3G21G17G22G23G26
  22175463.5834   12318424.50947   9591714.50646                  22175464.3214
        24.7504         19.5004
  24315297.6304   -2727591.76345  -2031386.16044                  24315299.2714
        10.0004          3.5004
  23220966.2864   -6172714.77047  -4705648.01446                  23220967.7284
        20.0004         12.0004
  21190561.3964    4392428.53048   3421182.67347                  21190561.7474
        31.5004         33.5004
  23942514.0834    5532820.40946   4039042.77145                  23942516.1464
        13.5004          6.5004
  21253599.0674   -1800308.35448  -1389894.89247                  21253598.9504
        31.5004         29.2504
  22879420.9424    4211372.89947   2775318.69846                  22879421.4354
        21.2504         13.2504
 98  7  8 20 48  0.0010000  0  7G 6G 3G21G17G22G23G26
  22187274.5994   12380491.09147   9640078.04146                  22187275.3374
        25.0004         19.5004
  24309937.7554   -2755760.71745  -2053335.93544                  24309938.8104
        11.0004          4.0004
  23218121.5444   -6187662.28946  -4717295.38145                  23218122.7984
        19.7504         11.7504
  21195567.9504    4418738.61748   3441684.03947                  21195568.2554
        31.2504         33.5004
  23950072.3334    5572541.61646   4069994.32845                  23950074.2784
        13.7504          6.7504
  21255639.4584   -1789587.50648  -1381540.97747                  21255639.3294
        31.5004         29.2504
  22886718.1694    4249719.98447   2805199.54346                  22886718.7904
        21.2504         13.5004
 98  7  8 20 48 15.0010000  0  7G 6G 3G21G17G22G23G26
  22199104.3884   12442655.41047   9688517.72146                  22199105.2084
        25.0004         19.7504
  24304587.6614   -2783879.69945  -2075246.73844                  24304588.7984
        11.5004          4.0004
  23215291.4584   -6202533.62946  -4728883.39545                  23215293.2164
        19.2504         11.2504
  21200586.4354    4445109.99548   3462233.16147                  21200586.7394
        31.2504         33.0004
  23957653.3254    5612375.90946   4101034.01545                  23957655.2594
        13.7504          6.2504
  21257701.2474   -1778752.99248  -1373098.49047                  21257701.0364
        32.2504         29.7504
  22894043.5134    4288214.48247   2835195.24746                  22894044.1694
        21.0004         13.7504
 98  7  8 20 48 30.0010000  0  7G 6G 3G21G17G22G23G26
  22210953.0134   12504922.13347   9737037.20646                  22210953.7284
        25.0004         20.0004
  24299245.5214   -2811947.27145  -2097117.55344                  24299247.4544
        10.7504          3.7504
  23212475.6304   -6217330.67146  -4740413.50446                  23212477.5874
        19.2504         12.0004
  21205616.2554    4471543.49948   3482830.69947                  21205616.6774
        30.7504         33.5004
  23965256.2004    5652327.92346   4132165.43645                  23965258.3564
        13.2504          6.2504
  21259784.7634   -1767803.82448  -1364566.65847                  21259784.3884
        32.0004         29.0004
  22901397.6774    4326861.20347   2865309.58146                  22901398.2984
        20.7504         13.7504
 98  7  8 20 48 45.0010000  0  7G 6G 3G21G17G22G23G26
  22222822.6854   12567296.25547   9785640.37446                  22222823.3764
        24.5004         19.5004
  24293914.4744   -2839962.50945  -2118947.54544                  24293915.2354
        11.5004          4.2504
  23209673.8884   -6232054.90747  -4751886.88846                  23209675.2354
        20.0004         12.0004
  21210658.1924    4498038.96448   3503476.51747                  21210658.5794
        31.0004         33.2504
  23972880.7554    5692398.93346   4163389.56345                  23972882.8764
        13.2504          6.5004
  21261889.9974   -1756739.81048  -1355945.34447                  21261889.8334
        32.0004         29.2504
  22908781.4194    4365662.41747   2895544.28746                  22908782.0994
        20.7504         13.2504
 98  7  8 20 49  0.0010000  0  7G 6G 3G21G17G22G23G26
  22234712.1304   12629777.50547   9834327.01746                  22234712.9384
        24.5004         19.0004
  24288593.4194   -2867926.92446  -2140737.94244                  24288594.9544
        12.2504          4.0004
  23206885.1064   -6246708.59546  -4763305.30446                  23206886.2904
        19.7504         12.2504
  21215711.4974    4524594.12148   3524168.84747                  21215711.8374
        31.2504         33.7504
  23980528.6464    5732586.34746   4194704.40245                  23980531.1064
        13.2504          6.5004
  21264017.1854   -1745561.14148  -1347234.68747                  21264016.9624
        31.7504         29.5004
  22916193.6064    4404616.02147   2925897.74646                  22916194.2864
        20.5004         13.2504
 98  7  8 20 49 15.0010000  0  7G 6G 3G21G17G22G23G26
  22246622.3644   12692364.03447   9883095.69246                  22246623.2204
        24.5004         19.2504
  24283281.5604   -2895842.54946  -2162490.30044                  24283283.6464
        12.0004          3.7504
  23204109.4114   -6261294.22047  -4774670.68246                  23204110.7944
        20.0004         12.2504
  21220776.2474    4551209.13048   3544907.81347                  21220776.5174
        31.5004         33.5004
  23988197.9354    5772888.71146   4226108.82145                  23988200.3844
        13.0004          6.2504
  21266166.2394   -1734267.38248  -1338434.34547                  21266165.8994
        31.7504         29.0004
  22923635.1144    4443719.31147   2956367.83946                  22923635.6304
        21.0004         13.2504
 98  7  8 20 49 30.0010000  0  7G 6G 3G21G17G22G23G26
  22258552.9504   12755058.54147   9931948.51346                  22258553.5714
        25.0004         19.5004
  24277978.1384   -2923707.65946  -2184203.33145                  24277979.4854
        12.0004          4.7504
  23201346.3884   -6275813.78047  -4785984.57246                  23201347.5834
        20.2504         12.5004
  21225852.9504    4577887.65748   3565696.27647                  21225853.3494
        31.5004         33.2504
  23995889.2634    5813305.07346   4257602.05645                  23995891.4194
        13.7504          6.2504
  21268337.8174   -1722857.45048  -1329543.48047                  21268337.5364
        31.5004         28.7504
  22931105.1224    4482973.30747   2986955.36846                  22931105.6614
        21.0004         12.7504
 98  7  8 20 49 45.0010000  0  7G 6G 3G21G17G22G23G26
  22270503.5364   12817861.18647   9980885.59946                  22270504.2044
        25.2504         20.2504
  24272686.1464   -2951521.75746  -2205876.57844                  24272686.6734
        13.0004          4.2504
  23198596.0674   -6290268.96347  -4797248.31146                  23198597.3684
        20.2504         12.5004
  21230942.0214    4604629.74648   3586534.26847                  21230942.3494
        31.2504         33.2504
  24003601.6144    5853836.70446   4289185.12645                  24003604.1814
        13.0004          6.2504
  21270530.4424   -1711333.95348  -1320564.12647                  21270530.1384
        31.2504         28.5004
  22938604.1384    4522379.40847   3017661.41346                  22938604.3254
        21.5004         13.2504
 98  7  8 20 50  0.0010000  0  7G 6G 3G21G17G22G23G26
  22282474.6694   12880770.77847  10029906.01146                  22282475.4194
        25.0004         19.5004
  24267403.1064   -2979283.48446  -2227509.06245                  24267404.1614
        13.0004          4.7504
  23195857.8644   -6304656.71647  -4808459.50046                  23195859.3174
        20.5004         12.5004
  21236042.7714    4631435.06848   3607421.53047                  21236043.0754
        31.0004         33.2504
  24011337.6924    5894487.96846   4320861.39845                  24011340.3064
        13.0004          6.2504
  21272744.3024   -1699699.97248  -1311498.67747                  21272744.1614
        31.5004         29.0004
  22946132.0524    4561940.03147   3048487.87746                  22946132.3104
        21.5004         13.0004
 98  7  8 20 50 15.0010000  0  7G 6G 3G21G17G22G23G26
  22294466.5674   12943786.99747  10079009.51246                  22294467.2714
        24.5004         19.5004
  24262129.8724   -3006991.61346  -2249099.75045                  24262132.0054
        12.5004          4.5004
  23193133.1224   -6318975.47147  -4819616.92846                  23193134.4814
        20.5004         13.0004
  21241155.4814    4658303.01648   3628357.59747                  21241155.6694
        31.5004         33.5004
  24019096.2394    5935257.72446   4352630.00745                  24019097.7984
        13.7504          6.5004
  21274978.9744   -1687956.41748  -1302347.84647                  21274978.7634
        31.2504         28.7504
  22953690.0914    4601656.61447   3079435.85146                  22953690.4074
        21.7504         12.5004
 98  7  8 20 50 30.0010000  0  7G 6G 3G21G17G22G23G26
  22306478.7164   13006910.50947  10128196.61946                  22306479.2784
        24.5004         19.0004
  24256867.3644   -3034646.20246  -2270648.73145                  24256868.6774
        13.2504          5.0004
  23190422.1534   -6333222.85747  -4830718.73946                  23190423.6534
        21.0004         13.0004
  21246281.1854    4685237.02748   3649345.14447                  21246281.3604
        31.7504         33.0004
  24026876.6304    5976143.64546   4384489.13445                  24026878.5634
        13.7504          6.5004
  21277233.4664   -1676108.04748  -1293115.34147                  21277233.1964
        31.0004         28.5004
  22961278.0364    4641531.97847   3110507.56446                  22961278.4464
        21.0004         12.7504
 98  7  8 20 50 45.0010000  0  7G 6G 3G21G17G22G23G26
  22318510.5994   13070136.61347  10177463.66646                  22318511.1964
        25.0004         19.5004
  24251615.1614   -3062250.05146  -2292158.15145                  24251615.8644
        13.7504          4.7504
  23187724.3254   -6347399.02547  -4841765.06946                  23187725.4504
        21.2504         13.5004
  21251419.0284    4712237.52948   3670384.49847                  21251419.3104
        31.5004         33.2504
  24034678.0994    6017139.40946   4416433.84245                  24034680.3724
        13.5004          6.2504
  21279506.7784   -1664162.50648  -1283807.11847                  21279506.6144
        31.0004         29.0004
  22968895.4354    4681562.30447   3141700.02446                  22968896.1384
        21.2504         12.7504
 98  7  8 20 51  0.0010000  0  7G 6G 3G21G17G22G23G26
  22330561.5754   13133465.38547  10226810.71846                  22330562.2904
        24.7504         19.0004
  24246371.9894   -3089800.89846  -2313626.28345                  24246373.5714
        13.0004          4.7504
  23185041.2944   -6361497.92947  -4852751.17846                  23185042.4314
        21.2504         13.2504
  21256569.8884    4739305.98648   3691476.80647                  21256570.1814
        31.5004         33.2504
  24042499.7634    6058245.09746   4448464.23245                  24042502.8454
        13.7504          6.0004
  21281799.4274   -1652115.91448  -1274420.15847                  21281799.3564
        31.0004         28.5004
  22976542.9504    4721750.41747   3173015.43046                  22976543.4664
        21.5004         13.2504
 98  7  8 20 51 15.0010000  0  7G 6G 3G21G17G22G23G26
  22342631.3564   13196894.41747  10276235.88846                  22342632.2004
        24.5004         19.2504
  24241138.9354   -3117298.45946  -2335052.88945                  24241140.9154
        12.5004          4.7504
  23182373.0524   -6375518.71947  -4863676.43546                  23182374.3294
        21.0004         12.7504
  21261733.7314    4766442.03548   3712621.78347                  21261734.0134
        31.5004         33.2504
  24050342.9504    6099460.71946   4480580.26845                  24050345.4114
        13.5004          5.7504
  21284110.8104   -1639967.69848  -1264954.00147                  21284110.8454
        31.0004         28.7504
  22984220.4114    4762095.33247   3204453.03646                  22984220.5284
        22.0004         12.5004
 98  7  8 20 51 30.0010000  0  7G 6G 3G21G17G22G23G26
  22354720.6534   13260424.59647  10325739.87346                  22354721.3804
        25.0004         19.7504
  24235916.9744   -3144743.20946  -2356438.36145                  24235918.0524
        13.7504          5.2504
  23179719.1854   -6389465.19247  -4874543.78146                  23179720.5214
        21.0004         12.7504
  21266910.3104    4793644.43148   3733818.45447                  21266910.6614
        31.5004         33.5004
  24058206.7314    6140785.84746   4512781.62945                  24058209.4854
        13.7504          5.7504
  21286441.0914   -1627722.43048  -1255412.23147                  21286441.0674
        31.0004         29.2504
  22991927.3644    4802594.32647   3236010.67746                  22991927.5994
        21.7504         13.2504
 98  7  8 20 51 45.0010000  0  7G 6G 3G21G17G22G23G26
  22366829.4504   13324055.30647  10375322.19846                  22366830.3174
        24.5004         19.0004
  24230704.6924   -3172133.64846  -2377781.49345                  24230706.4274
        14.0004          5.2504
  23177078.6464   -6403340.64347  -4885355.77346                  23177079.8534
        20.5004         13.0004
  21272098.4354    4820909.54448   3755064.00447                  21272098.6574
        31.5004         33.0004
  24066091.9354    6182219.65846   4545067.68045                  24066094.3604
        13.7504          6.2504
  21288789.5054   -1615381.67548  -1245796.04847                  21288789.2714
        31.2504         29.0004
  22999663.0994    4843246.96547   3267688.05546                  22999663.6854
        21.7504         12.7504
 98  7  8 20 52  0.0010000  0  7G 6G 3G21G17G22G23G26
  22378957.4974   13387787.66147  10424983.72546                  22378958.1304
        24.7504         19.2504
  24225503.5214   -3199465.07946  -2399078.65345                  24225505.0564
        13.0004          5.0004
  23174452.2394   -6417143.17847  -4896110.96046                  23174453.8924
        20.7504         13.0004
  21277298.6304    4848236.13148   3776357.45247                  21277298.7124
        31.5004         33.2504
  24073997.1614    6223763.70746   4577439.63445                  24073999.2944
        13.5004          6.2504
  21291156.9974   -1602939.63348  -1236100.94347                  21291156.8564
        31.5004         29.7504
  23007428.9584    4884056.90947   3299488.00846                  23007429.3454
        21.0004         13.0004
 98  7  8 20 52 15.0010000  0  7G 6G 3G21G17G22G23G26
  22391104.6384   13451620.60247  10474723.62746                  22391105.4464
        24.7504         19.2504
  24220311.7864   -3226742.47046  -2420333.69945                  24220313.6144
        12.2504          4.7504
  23171838.9974   -6430876.92247  -4906812.53946                  23171840.1464
        21.0004         13.0004
  21282510.3334    4875623.56248   3797698.30747                  21282510.4744
        31.5004         33.2504
  24081923.1304    6265412.59446   4609893.28645                  24081925.1464
        14.0004          6.0004
  21293544.2004   -1590395.31048  -1226326.14047                  21293544.2124
        31.5004         29.0004
  23015223.9664    4925020.73447   3331407.87246                  23015224.2944
        21.0004         12.2504
 98  7  8 20 52 30.0020000  0  7G 6G 3G21G17G22G23G26
  22403272.2754   13515561.59547  10524547.73046                  22403273.2134
        24.2504         18.7504
  24215131.1584   -3253970.28046  -2441550.14345                  24215132.4474
        13.2504          5.2504
  23169237.8224   -6444543.28747  -4917461.62446                  23169238.9714
        21.0004         13.0004
  21287734.6044    4903077.07848   3819090.66247                  21287734.7564
        31.7504         33.2504
  24089868.7214    6307169.90546   4642431.41345                  24089870.5374
        13.7504          6.5004
  21295951.6114   -1577744.40048  -1216468.27947                  21295951.4944
        31.2504         29.2504
  23023048.7754    4966141.55847   3363450.06946                  23023049.3614
        20.7504         12.5004
 98  7  8 20 52 45.0020000  0  7G 6G 3G21G17G22G23G26
  22415458.3464   13579602.43547  10574449.62946                  22415459.3544
        24.0004         19.0004
  24209960.2214   -3281146.54246  -2462726.36545                  24209961.7444
        13.0004          4.7504
  23166650.6434   -6458140.35747  -4928056.69946                  23166652.0144
        21.0004         13.2504
  21292970.7914    4930593.12948   3840531.74347                  21292970.9904
        32.2504         33.2504
  24097834.7214    6349031.13146   4675050.52445                  24097836.9714
        13.5004          6.0004
  21298378.6354   -1564988.65948  -1206528.72847                  21298378.5414
        31.5004         29.5004
  23030902.2294    5007411.70947   3395608.63046                  23030902.8504
        21.0004         12.7504
 98  7  8 20 53  0.0020000  0  7G 6G 3G21G17G22G23G26
  22427664.5184   13643746.10447  10624431.65446                  22427665.4204
        24.2504         19.2504
  24204798.2524   -3308272.34046  -2483863.31445                  24204799.8114
        12.0004          4.5004
  23164076.5494   -6471667.90247  -4938597.60946                  23164077.5684
        21.2504         13.5004
  21298218.7294    4958171.61348   3862021.47347                  21298218.9394
        31.5004         32.5004
  24105821.2684    6390999.53446   4707753.15545                  24105823.3304
        13.5004          6.0004
  21300827.5644   -1552120.81848  -1196501.83447                  21300827.5414
        31.2504         29.0004
  23038784.2214    5048831.56647   3427883.83446                  23038784.6784
        20.2504         12.5004
 98  7  8 20 53 15.0020000  0  7G 6G 3G21G17G22G23G26
  22439890.4324   13707993.46747  10674494.48246                  22439891.6154
        23.7504         18.7504
  24199644.1044   -3335349.05045  -2504961.99545                  24199645.6044
        11.0004          4.5004
  23161515.0804   -6485127.75947  -4949085.77646                  23161516.1934
        21.7504         13.2504
  21303478.1974    4985810.92848   3883558.60547                  21303478.2684
        31.0004         32.5004
  24113827.5334    6433073.53446   4740538.03845                  24113829.2794
        13.5004          6.0004
  21303298.0494   -1539138.68348  -1186385.87747                  21303298.1194
        31.0004         29.0004
  23046694.3304    5090399.07347   3460274.10746                  23046694.8694
        21.0004         12.7504
 98  7  8 20 53 30.0020000  0  7G 6G 3G21G17G22G23G26
  22452136.7364   13772346.03547  10724639.28646                  22452137.8144
        23.7504         18.7504
  24194501.4794   -3362379.26546  -2526024.41445                  24194502.1234
        12.2504          4.5004
  23158966.4084   -6498523.01247  -4959523.59746                  23158967.4754
        21.5004         13.5004
  21308749.6894    5013513.31048   3905144.87547                  21308749.9364
        31.0004         32.2504
  24121854.3464    6475254.94146   4773406.63845                  24121856.2794
        13.7504          6.5004
  21305789.4944   -1526045.10848  -1176183.08147                  21305789.1784
        30.7504         29.2504
  23054631.9714    5132111.21447   3492777.06646                  23054632.6974
        21.2504         12.2504
 98  7  8 20 53 45.0020000  0  7G 6G 3G21G17G22G23G26
  22464402.6584   13836804.43147  10774866.55346                  22464403.7364
        23.0004         18.5004
  24189367.7294   -3389361.50646  -2547049.48845                  24189368.6664
        13.5004          5.0004
  23156430.3224   -6511849.17247  -4969907.58946                  23156431.3074
        21.2504         13.2504
  21314034.0254    5041282.63448   3926783.31647                  21314034.3544
        31.2504         32.5004
  24129902.4084    6517545.56546   4806360.33245                  24129904.3184
        13.5004          6.2504
  21308302.9714   -1512836.09548  -1165890.33747                  21308302.8894
        30.7504         28.5004
  23062597.4004    5173970.99647   3525395.07446                  23062597.7994
        21.2504         12.7504
 98  7  8 20 54  0.0020000  0  7G 6G 3G21G17G22G23G26
  22476688.6664   13901366.28547  10825174.43946                  22476689.8144
        23.5004         18.5004
  24184242.4794   -3416291.46645  -2568033.81445                  24184243.8384
        11.7504          4.5004
  23153908.0104   -6525101.63147  -4980234.14746                  23153909.2754
        21.7504         13.5004
  21319331.8774    5069122.04548   3948476.36547                  21319332.0764
        31.0004         32.0004
  24137971.4944    6559947.14146   4839400.48745                  24137973.6504
        13.5004          6.2504
  21310839.3384   -1499507.32148  -1155504.26547                  21310839.2794
        30.2504         28.2504
  23070591.7754    5215981.26147   3558130.34546                  23070592.3504
        20.5004         12.5004
 98  7  8 20 54 15.0020000  0  7G 6G 3G21G17G22G23G26
  22488991.8614   13966020.29747  10875554.13646                  22488993.0334
        23.7504         18.2504
  24179124.4634   -3443181.43545  -2588986.98045                  24179126.8654
        11.0004          4.7504
  23151398.8774   -6538288.07447  -4990509.25646                  23151400.0144
        21.5004         14.2504
  21324641.4084    5097024.55748   3970218.57947                  21324641.6314
        31.0004         32.0004
  24146058.7754    6602450.20346   4872519.72545                  24146060.4754
        13.2504          6.0004
  21313396.1194   -1486070.90748  -1145034.33247                  21313396.1314
        30.5004         27.7504
  23078612.4394    5258128.73847   3590972.53846                  23078613.1314
        20.7504         12.2504
 98  7  8 20 54 30.0020000  0  7G 6G 3G21G17G22G23G26
  22501310.5804   14030756.17447  10925997.62546                  22501311.5414
        23.5004         18.5004
  24174012.6584   -3470040.74145  -2609916.23745                  24174014.5214
        10.7504          5.0004
  23148900.3854   -6551417.16247  -5000739.68146                  23148901.7444
        21.5004         14.0004
  21329961.4714    5124982.24848   3992003.79647                  21329961.8464
        30.7504         31.7504
  24154164.3464    6645044.57546   4905710.09945                  24154166.3854
        13.0004          5.7504
  21315970.7754   -1472540.69948  -1134491.30247                  21315970.7754
        30.5004         28.0004
  23086656.4394    5300401.59047   3623912.42146                  23086656.9324
        20.7504         12.2504
 98  7  8 20 54 45.0020000  0  7G 6G 3G21G17G22G23G26
  22513646.5804   14095582.44847  10976511.54746                  22513647.6114
        23.5004         18.0004
  24168910.6744   -3496854.10245  -2630809.71645                  24168911.4244
        11.2504          4.7504
  23146415.4554   -6564476.26047  -5010915.56946                  23146416.7094
        21.2504         14.0004
  21335293.4394    5153001.35848   4013836.87147                  21335293.6274
        31.2504         32.2504
  24162289.0724    6687738.39246   4938977.96245                  24162291.7324
        13.5004          6.2504
  21318564.6894   -1458910.60848  -1123870.44447                  21318564.6074
        30.5004         28.0004
  23094725.7294    5342807.20847   3656955.75946                  23094726.2094
        21.0004         12.2504
 98  7  8 20 55  0.0020000  0  7G 6G 3G21G17G22G23G26
  22526000.6274   14160503.43747  11027099.28446                  22526001.7874
        22.7504         17.5004
  24163818.5724   -3523610.59745  -2651658.86545                  24163819.7444
        11.5004          5.2504
  23143945.0724   -6577457.90747  -5021031.10846                  23143946.0924
        21.5004         14.2504
  21340638.1664    5181087.43048   4035722.12547                  21340638.2834
        31.5004         32.5004
  24170432.4084    6730536.00946   4972326.71445                  24170434.6584
        13.2504          6.2504
  21321178.6894   -1445173.10848  -1113165.88847                  21321178.5254
        30.7504         27.7504
  23102822.4004    5385352.04747   3690107.57246                  23102822.7404
        20.7504         12.2504
 98  7  8 20 55 15.0020000  0  7G 6G 3G21G17G22G23G26
  22538373.4164   14225522.51747  11077763.44346                  22538374.2014
        23.0004         17.2504
  24158739.5024   -3550304.25845  -2672459.04545                  24158741.2834
        11.0004          4.7504
  23141489.6744   -6590360.80547  -5031085.27946                  23141491.0214
        21.7504         14.0004
  21345996.2994    5209245.01048   4057663.10047                  21345996.6044
        31.5004         32.5004
  24178597.6974    6773440.47246   5005758.73845                  24178600.0534
        13.2504          6.2504
  21323813.9474   -1431325.93048  -1102375.87047                  21323813.8544
        30.7504         28.0004
  23110945.6044    5428039.66547   3723370.65446                  23110946.0724
        20.5004         12.2504
 98  7  8 20 55 30.0020000  0  7G 6G 3G21G17G22G23G26
  22550765.5024   14290641.54147  11128505.48546                  22550766.3694
        23.0004         17.2504
  24153672.4634   -3576933.02045  -2693208.68945                  24153674.1624
        11.0004          4.7504
  23139049.3074   -6603185.69947  -5041078.66146                  23139050.7254
        21.5004         14.0004
  21351368.5724    5237475.85648   4079661.15847                  21351368.8424
        31.5004         33.2504
  24186783.0964    6816455.96346   5039277.24645                  24186785.4394
        13.5004          6.0004
  21326469.7914   -1417370.50448  -1091501.50547                  21326469.6044
        31.0004         27.5004
  23119096.1044    5470872.41247   3756746.81846                  23119096.3854
        20.5004         12.2504
 98  7  8 20 55 45.0020000  0  7G 6G 3G21G17G22G23G26
  22563175.1584   14355856.94247  11179322.63546                  22563176.2484
        23.0004         17.0004
  24148617.9794   -3603493.18745  -2713904.87145                  24148620.0764
        11.0004          5.2504
  23136623.2994   -6615932.04347  -5051010.84146                  23136624.6234
        21.7504         14.2504
  21356754.5494    5265779.36848   4101715.84547                  21356754.7364
        31.7504         33.2504
  24194990.1044    6859582.36146   5072882.19345                  24194991.8384
        13.7504          6.5004
  21329145.8854   -1403306.75948  -1080542.73047                  21329145.8034
        30.7504         28.5004
  23127274.6894    5513852.80547   3790238.03046                  23127275.3814
        20.2504         12.0004
 98  7  8 20 56  0.0020000  0  7G 6G 3G21G17G22G23G26
  22575603.1194   14421166.25247  11230212.95146                  22575603.9984
        22.7504         16.7504
  24143577.2754   -3629982.57745  -2734545.87745                  24143578.4124
        11.7504          5.2504
  23134212.9164   -6628600.02047  -5060881.96346                  23134214.1464
        22.0004         14.5004
  21362153.5574    5294150.73348   4123823.40347                  21362153.8144
        32.0004         32.7504
  24203217.1354    6902815.87246   5106570.59645                  24203218.7054
        14.0004          6.5004
  21331842.4714   -1389136.38848  -1069500.87547                  21331842.2834
        31.0004         28.7504
  23135481.4324    5556980.93146   3823844.36346                  23135482.1464
        19.2504         12.0004
 98  7  8 20 56 15.0020000  0  7G 6G 3G21G17G22G23G26
  22588050.2754   14486574.94647  11281180.71446                  22588051.4594
        22.7504         16.7504
  24138551.1434   -3656400.36746  -2755131.10745                  24138551.8694
        13.2504          5.7504
  23131817.4474   -6641187.92547  -5070690.68446                  23131818.4794
        21.7504         14.5004
  21367565.6824    5322592.15448   4145985.55047                  21367565.9284
        31.5004         32.7504
  24211465.1664    6946160.57246   5140345.64545                  24211467.4044
        13.2504          6.5004
  21334559.3074   -1374858.51048  -1058375.24547                  21334559.2714
        31.2504         29.0004
  23143717.6434    5600260.13946   3857568.42246                  23143718.0414
        19.7504         12.0004
 98  7  8 20 56 30.0020000  0  7G 6G 3G21G17G22G23G26
  22600516.3304   14552083.42347  11332226.22546                  22600517.7254
        22.2504         16.7504
  24133537.2684   -3682750.26446  -2775663.46045                  24133538.3114
        14.7504          5.2504
  23129437.1664   -6653695.84847  -5080437.07346                  23129438.5844
        22.0004         14.5004
  21372991.1194    5351102.38948   4168201.31747                  21372991.3424
        31.5004         32.7504
  24219734.1044    6989615.31446   5174206.42145                  24219737.8544
        13.0004          6.2504
  21337296.4244   -1360473.98548  -1047166.51547                  21337296.1894
        31.0004         28.7504
  23151981.8144    5643689.37547   3891409.38546                  23151982.2954
        20.5004         12.0004
 98  7  8 20 56 45.0020000  0  7G 6G 3G21G17G22G23G26
  22613000.8544   14617690.79347  11383348.80046                  22613002.0374
        22.2504         16.5004
  24128535.7294   -3709034.05846  -2796144.27545                  24128537.3694
        14.2504          5.5004
  23127072.0024   -6666124.56647  -5090121.75846                  23127073.2684
        22.2504         15.0004
  21378429.1744    5379679.67248   4190469.32547                  21378429.3964
        31.5004         32.7504
  24228024.0104    7033177.90746
        13.0004
  21340054.2604   -1345982.44948  -1035874.40347                  21340054.2134
        31.0004         29.0004
  23160275.1434    5687268.28747   3925366.97145                  23160275.5534
        20.2504         11.5004
 98  7  8 20 57  0.0020000  0  7G 6G 3G21G17G22G23G26
  22625504.3774   14683395.42747  11434547.16046                  22625505.7134
        22.0004         16.0004
  24123544.8774   -3735255.14146  -2816576.24245                  24123546.5644
        13.5004          5.7504
  23124722.4084   -6678474.74047  -5099745.22846                  23124723.4394
        22.2504         14.5004
  21383879.5644    5408323.49548   4212789.18847                  21383879.7644
        31.7504         33.2504
  24236334.2214    7076849.14446
        12.7504
  21342833.0494   -1331379.28348  -1024495.30447                  21342833.0024
        31.2504         29.2504
  23168596.8854    5730999.26647   3959443.04845                  23168597.5294
        20.2504         11.7504
 98  7  8 20 57 15.0020000  0  7G 6G 3G21G17G22G23G26
  22638024.8384   14749194.00447  11485818.72446                  22638026.1394
        22.0004         16.0004
  24118565.5254   -3761418.22846  -2836963.01745                  24118566.5454
        12.5004          5.0004
  23122386.2364   -6690748.10447  -5109308.85846                  23122387.3734
        22.2504         15.0004
  21389342.9634    5437033.02248   4235160.24547                  21389343.2564
        31.7504         33.5004
  24244664.9554    7120629.29846
        12.7504
  21345633.0964   -1316665.27448  -1013029.83447                  21345633.2254
        31.2504         29.0004
  23176947.2294    5774881.58547   3993637.06545                  23176947.8034
        20.2504         11.7504
 98  7  8 20 57 30.0020000  0  7G 6G 3G21G17G22G23G26
  22650564.4864   14815088.26347  11537164.84746                  22650565.7054
        22.2504         15.7504
  24113597.0574   -3787524.23346  -2857305.30445                  24113598.1704
        12.5004          5.2504
  23120065.4324   -6702944.14347  -5118812.22446                  23120066.7444
        22.2504         14.7504
  21394818.6044    5465807.35648   4257581.80247                  21394818.8384
        31.7504         33.2504
  24253016.9394    7164519.16346
        12.5004
  21348453.8224   -1301841.64948  -1001478.95047                  21348453.8934
        31.5004         28.7504
  23185326.3694    5818916.11547   4027949.68246                  23185327.0614
        20.2504         12.0004
 98  7  8 20 57 45.0020000  0  7G 6G 3G21G17G22G23G26
  22663120.9864   14881074.38747  11588582.55546                  22663122.1114
        22.0004         16.2504
  24108639.5724   -3813578.06546  -2877606.93445                  24108641.0374
        13.2504          5.7504
  23117759.6894   -6715061.94747  -5128254.62946                  23117760.9904
        22.2504         15.0004
  21400306.2294    5494645.05748   4280052.73547                  21400306.4864
        31.5004         33.5004
  24261389.3774    7208513.50146     31995.22955                  24261392.2254
        12.7504          5.7504
  21351294.9554   -1286911.23448   -989844.84947                  21351294.8854
        31.5004         29.0004
  23193734.5184    5863100.08047   4062378.74346                  23193735.2444
        20.5004         12.0004
 98  7  8 20 58  0.0020000  0  7G 6G 3G21G17G22G23G26
  22675695.8544   14947154.61147  11640073.58646                  22675697.1784
        22.0004         16.0004
  24103693.1974   -3839578.96946  -2897867.31545                  24103693.9944
        13.7504          5.2504
  23115469.3694   -6727096.92047  -5137632.50046                  23115470.3304
        22.2504         14.5004
  21405806.6434    5523549.77948   4302575.89047                  21405806.8654
        32.0004         33.2504
  24269780.5644    7252610.81046     66356.75145                  24269783.1894
        12.5004          6.2504
  21354156.3774   -1271874.94948   -978128.25247                  21354156.3424
        31.2504         29.0004
  23202170.9554    5907432.60247   4096923.55945                  23202171.7524
        20.0004         11.2504
 98  7  8 20 58 15.0020000  0  7G 6G 3G21G17G22G23G26
  22688288.5494   15013328.81047  11691637.84246                  22688290.0614
        22.0004         16.5004
  24098754.7214   -3865531.11346  -2918089.70245                  24098755.4474
        14.7504          5.0004
  23113194.3774   -6739051.29647  -5146947.56546                  23113195.3854
        22.2504         14.7504
  21411320.0494    5552523.06548   4325152.47747                  21411320.3074
        31.7504         33.0004
  24278191.3934    7296809.32946    100797.08845                  24278193.5844
        12.7504          6.0004
  21357037.7294   -1256734.29948   -966330.33347                  21357037.6464
        31.5004         28.7504
  23210634.5884    5951909.67147   4131581.01945                  23210635.2794
        20.0004         11.5004
 98  7  8 20 58 30.0020000  0  7G 6G 3G21G17G22G23G26
  22700897.9084   15079591.21247  11743270.82746                  22700899.4084
        22.5004         17.0004
  24093823.7994   -3891437.91246  -2938276.78845                  24093825.2524
        14.2504          5.5004
  23110934.4004   -6750929.01047  -5156202.88646                  23110935.2914
        22.7504         14.7504
  21416846.1974    5581563.07948   4347781.05347                  21416846.4434
        31.7504         33.0004
  24286619.9004    7341104.78746    135312.99345                  24286622.0684
        12.2504          6.2504
  21359938.0804   -1241491.80048   -954453.05447                  21359938.0684
        31.2504         29.0004
  23219124.2294    5996526.46446   4166347.34945                  23219125.0024
        19.0004         11.2504
 98  7  8 20 58 45.0020000  0  7G 6G 3G21G17G22G23G26
  22713524.7604   15145945.98147  11794975.79646                  22713526.2254
        22.5004         16.7504
  24088903.3384   -3917292.05346  -2958422.81245                  24088904.4394
        13.7504          5.2504
  23108688.9794   -6762727.92547  -5165396.80846                  23108690.2794
        22.2504         14.7504
  21422385.5574    5610673.40148   4370464.41947                  21422385.7914
        31.7504         32.7504
  24295069.0644    7385497.71446    169904.83545                  24295071.7254
        13.0004          6.0004
  21362858.5494   -1226144.97148   -942494.47847                  21362858.4904
        31.0004         29.0004
  23227641.8464    6041285.45446   4201224.48045                  23227643.2054
        19.5004         11.0004
 98  7  8 20 59  0.0020000  0  7G 6G 3G21G17G22G23G26
  22726168.8854   15212389.86047  11846750.18646                  22726170.0804
        22.7504         17.0004
  24083993.1434   -3943094.05546  -2978528.22945                  24083994.0214
        13.0004          5.7504
  23106458.2054   -6774451.68147  -5174532.16746                  23106459.2254
        22.5004         14.5004
  21427937.9944    5639851.03148   4393200.23447                  21427938.1824
        31.7504         32.7504
  24303534.0884    7429987.40246    204572.09645                  24303536.6894
        12.5004          5.7504
  21365798.4944   -1210696.43448   -930456.64347                  21365798.4594
        31.0004         28.7504
  23236185.9474    6086184.03746   4236210.37145                  23236186.7324
        19.5004         11.2504
 98  7  8 20 59 15.0020000  0  7G 6G 3G21G17G22G23G26
  22738829.8144   15278922.46947  11898593.72946                  22738830.9984
        23.0004         16.5004
  24079094.0804   -3968839.81246  -2998589.80645                  24079095.1464
        12.5004          5.5004
  23104241.4944   -6786100.12247  -5183608.83846                  23104242.8424
        22.7504         14.7504
  21433502.8614    5669094.70148   4415987.50747                  21433503.1894
        31.5004         32.7504
  24312019.8304    7474574.11146    239314.92245                  24312022.7134
        13.0004          5.7504
  21368757.4944   -1195145.88648   -918339.32847                  21368757.5294
        31.0004         28.7504
  23244756.6584    6131223.06946   4271305.73545                  23244757.1744
        19.5004         11.0004
 98  7  8 20 59 30.0020000  0  7G 6G 3G21G17G22G23G26
  22751507.8144   15345547.09047  11950508.96146                  22751508.9984
        23.0004         17.0004
  24074207.1044   -3994523.69946  -3018603.20245                  24074207.6784
        13.5004          5.5004
  23102039.1974   -6797673.34947  -5192626.89546                  23102040.4394
        23.0004         15.0004
  21439080.6824    5698405.87648   4438827.37747                  21439081.0684
        31.7504         32.7504
  24320522.6114    7519258.17446    274133.64645                  24320524.9204
        13.2504          6.7504
  21371735.9244   -1179494.21148   -906143.20747                  21371735.8654
        31.0004         29.0004
  23253354.0724    6176404.85646   4306512.31345                  23253354.7874
        19.0004         10.7504
 98  7  8 20 59 45.0020000  0  7G 6G 3G21G17G22G23G26
  22764203.2834   15412261.78447  12002494.38246                  22764204.3854
        23.0004         17.0004
  24069332.3464   -4020144.55346  -3038567.43245                  24069333.8814
        14.2504          5.7504
  23099850.3144   -6809175.06847  -5201589.23546                  23099851.4394
        23.0004         15.0004
  21444671.3544    5727785.46348   4461720.56247                  21444671.7644
        31.5004         32.7504
  24329043.6504    7564037.44446    309026.52845                  24329046.2054
        13.0004          6.0004
  21374733.6434   -1163740.88048   -893867.87547                  21374733.5724
        31.0004         28.7504
  23261979.4864    6221729.18546   4341829.97645                  23261980.2364
        19.0004         10.5004
 98  7  8 21  0  0.0020000  0  7G 6G 3G21G17G22G23G26
  22776916.0884   15479067.38847  12054550.64046                  22776917.2364
        22.7504         16.5004
  24064469.1824   -4045698.75446  -3058479.74845                  24064470.6584
        14.0004          6.0004
  23097675.4634   -6820604.38047  -5210495.15446                  23097676.4474
        23.0004         14.7504
  21450275.5334    5757237.59448   4484670.27147                  21450275.9204
        31.5004         32.5004
  24337583.1824    7608913.76846    343995.05845                  24337585.9944
        13.2504          6.2504
  21377751.2214   -1147882.90348   -881511.00147                  21377751.1274
        31.0004         28.7504
  23270632.0254    6267197.87746   4377260.11745                  23270632.6824
        19.7504         11.2504
 98  7  8 21  0 15.0020000  0  7G 6G 3G21G17G22G23G26
  22789646.0804   15545964.25347  12106678.01246                  22789647.4514
        22.5004         16.5004
  24059618.8694   -4071183.63846  -3078338.06245                  24059619.7364
        13.2504          5.5004
  23095513.8224   -6831963.89347  -5219346.68246                  23095514.6194
        23.5004         15.5004
  21455893.8384    5786760.58448   4507675.19847                  21455894.1894
        31.0004         32.2504
  24346142.2914    7653891.16346    379042.33245                  24346145.1274
        13.2504          6.0004
  21380789.1824   -1131917.47648   -869070.40447                  21380789.0184
        30.7504         28.0004
  23279312.2524    6312812.17347   4412803.71345                  23279313.0724
        20.2504         11.5004
 98  7  8 21  0 30.0020000  0  7G 6G 3G21G17G22G23G26
  22802393.4944   15612951.89047  12158876.11046                  22802395.0534
        22.2504         16.2504
  24054782.4864   -4096599.73346  -3098142.75945                  24054783.9514
        13.0004          5.5004
  23093364.5574   -6843256.34847  -5228145.96046                  23093365.6004
        23.0004         15.0004
  21461524.9244    5816350.96548   4530732.63147                  21461525.2644
        31.0004         32.5004
  24354720.3144    7698970.81646    414169.28145                  24354722.3774
        13.7504          6.0004
  21383848.1194   -1115844.84648   -856546.26847                  21383848.2364
        31.0004         28.2504
  23288020.0254    6358572.69446   4448461.26445                  23288020.7754
        19.7504         11.2504
 98  7  8 21  0 45.0020000  0  7G 6G 3G21G17G22G23G26
  22815158.3144   15680030.62347  12211145.19946                  22815159.9084
        22.0004         16.0004
  24049959.1974   -4121945.30146  -3117892.51245                  24049961.2484
        12.7504          5.5004
  23091228.0964   -6854483.02947  -5236893.97746                  23091229.1624
        22.7504         15.0004
  21467167.9634    5846006.05448   4553840.49047                  21467168.2214
        31.5004         32.2504
  24363319.0644    7744154.47346    449377.29245                  24363320.9634
        13.7504          6.2504
  21386926.6504   -1099665.71948   -843939.14747                  21386926.6744
        30.7504         28.2504
  23296755.9164    6404480.36347   4484233.46545                  23296756.5024
        20.2504         11.0004
 98  7  8 21  1  0.0020000  0  7G 6G 3G21G17G22G23G26
  22827940.2294   15747200.92747  12263485.64746                  22827941.5764
        22.0004         15.7504
  24045149.4554   -4147220.87746  -3137587.71545                  24045151.1434
        13.0004          5.7504
  23089104.3224   -6865644.33247  -5245591.05746                  23089105.4004
        23.2504         15.2504
  21472823.3074    5875725.20748   4576998.26947                  21472823.5644
        31.7504         32.0004
  24371937.1894    7789442.36246    484666.49545                  24371939.0064
        13.2504          6.2504
  21390025.7604   -1083380.06248   -831249.02147                  21390025.8074
        31.0004         28.2504
  23305519.8774    6450536.58346   4520121.42845                  23305520.2294
        19.7504         11.2504
 98  7  8 21  1 15.0020000  0  7G 6G 3G21G17G22G23G26
  22840739.6894   15814462.68047  12315897.33846                  22840741.1194
        22.2504         16.2504
  24040353.7214   -4172422.56646  -3157225.33945                  24040355.2914
        13.2504          5.7504
  23086993.3854   -6876736.12447  -5254233.97946                  23086994.5574
        23.0004         15.2504
  21478491.5254    5905510.59148   4600207.65447                  21478491.6544
        31.7504         31.7504
  24380574.6824    7834835.84746    520038.00945                  24380576.3814
        13.2504          6.0004
  21393146.0024   -1066982.78648   -818471.91547                  21393146.0024
        30.7504         28.0004
  23314312.5724    6496745.09046   4556128.05145                  23314313.0414
        19.2504         10.7504
 98  7  8 21  1 30.0020000  0  7G 6G 3G21G17G22G23G26
  22853556.4864   15881813.84447  12368378.70746                  22853557.7874
        22.0004         15.7504
  24035571.3854   -4197553.35046  -3176807.71045                  24035572.5684
        13.2504          6.0004
  23084895.3304   -6887763.77947  -5262826.91346                  23084896.3144
        23.0004         14.7504
  21484171.6434    5935361.18248   4623467.85147                  21484171.7714
        31.5004         32.0004
  24389232.4944    7880328.98546    555487.15245                  24389234.6274
        13.0004          6.0004
  21396286.1194   -1050480.67148   -805613.11947                  21396286.0374
        30.7504         28.0004
  23323134.7054    6543102.36547   4592250.59445                  23323135.1624
        20.0004         11.0004
 98  7  8 21  1 45.0020000  0  7G 6G 3G21G17G22G23G26
  22866390.2054   15949256.26747  12420931.19046                  22866391.4474
        21.7504         15.0004
  24030801.8854   -4222616.22946  -3196337.19545                  24030803.7254
        13.2504          6.0004
  23082808.9084   -6898727.35447  -5271369.91246                  23082809.7054
        23.5004         15.5004
  21489864.8854    5965278.75248   4646780.23847                  21489865.0144
        32.2504         32.0004
  24397908.5184    7925922.86246    591014.79745                  24397911.0374
        13.0004          6.0004
  21399446.0804   -1033874.94648   -792673.58447                  21399446.1044
        31.0004         28.2504
  23331983.9554    6589605.19147   4628486.56845                  23331984.3654
        20.2504         11.2504
 98  7  8 21  2  0.0020000  0  7G 6G 3G21G17G22G23G26
  22879240.9944   16016787.72847  12473553.04946                  22879242.4714
        21.2504         14.7504
  24026045.5884   -4247614.31446  -3215816.17345                  24026046.6434
        13.0004          5.7504
  23080735.5494   -6909624.01047  -5279860.78046                  23080736.5334
        23.7504         15.5004
  21495570.4944    5995261.75548   4670143.61447                  21495570.6704
        32.2504         32.2504
  24406603.8074    7971616.68346    626620.33245                  24406605.3654
        13.2504          6.0004
  21402625.6894   -1017167.79348   -779655.01847                  21402625.7134
        30.7504         28.5004
  23340860.2754    6636249.19947   4664832.54645                  23340860.9324
        20.2504         11.0004
 98  7  8 21  2 15.0020000  0  7G 6G 3G21G17G22G23G26
  22892109.6894   16084411.10847  12526246.52946                  22892111.0374
        21.2504         14.7504
  24021299.9164   -4272549.04146  -3235245.75845                  24021300.9594
        13.7504          6.2504
  23078674.3544   -6920453.00747  -5288298.90846                  23078675.4554
        22.7504         15.5004
  21501287.7604    6025306.57248   4693555.15247                  21501287.8304
        32.0004         32.2504
  24415317.4474    8017408.98646    662302.60145                  24415319.4044
        12.5004          6.0004
  21405823.1824   -1000362.87548   -766560.27447                  21405823.2174
        30.7504         28.0004
  23349762.7364    6683033.53946   4701287.86545                  23349763.2754
        19.5004         10.2504
 98  7  8 21  2 30.0020000  0  7G 6G 3G21G17G22G23G26
  22904994.9794   16152124.74547  12579010.35646                  22904996.3854
        21.2504         14.5004
  24016567.5724   -4297420.39846  -3254625.98445                  24016569.0844
        13.7504          6.2504
  23076626.5964   -6931213.62547  -5296683.77346                  23076627.6864
        23.0004         15.7504
  21507016.1114    6055408.54048   4717011.22747                  21507016.2404
        31.7504         32.5004
  24424049.9554    8063296.63646    698059.14245                  24424051.8074
        12.7504          6.0004
  21409039.1584    -983463.16048   -753391.65347                  21409039.0764
        31.0004         28.0004
  23358692.1114    6729957.30346   4737851.83545                  23358692.8144
        19.0004         11.0004
 98  7  8 21  2 45.0020000  0  7G 6G 3G21G17G22G23G26
  22917898.1194   16219929.06847  12631844.84046                  22917899.4204
        21.5004         14.2504
  24011846.6274   -4322229.12146  -3273957.42845                  24011848.7604
        13.2504          5.7504
  23074592.5254   -6941903.74647  -5305013.70046                  23074593.5454
        23.0004         15.7504
  21512755.0804    6085567.97048   4740512.07747                  21512755.2094
        31.7504         32.2504
  24432798.8614    8109275.18046    733886.55545                  24432800.7714
        12.2504          5.7504
  21412273.2604    -966468.68548   -740149.20647                  21412273.0964
        31.0004         28.2504
  23367648.6584    6777020.68747   4774524.60745                  23367649.1154
        20.5004         11.2504
 98  7  8 21  3  0.0020000  0  7G 6G 3G21G17G22G23G26
  22930817.3934   16287822.33547  12684748.62046                  22930818.2714
        21.2504         14.0004
  24007137.4324   -4346974.52346  -3293239.51145                  24007138.7794
        13.0004          5.7504
  23072572.2524   -6952519.53647  -5313285.69646                  23072573.4124
        22.7504         15.5004
  21518505.5254    6115786.13848   4764058.69747                  21518505.6784
        32.2504         32.0004
  24441565.5104    8155342.22546    769782.90645                  24441567.7714
        12.2504          5.5004
  21415525.7214    -949377.53748   -726831.41847                  21415525.6274
        31.0004         28.2504
  23376630.5724    6824224.65347   4811306.90445                  23376631.1464
        20.2504         11.0004
 98  7  8 21  3 15.0020000  0  7G 6G 3G21G17G22G23G26
  22943754.2214   16355804.64547  12737721.79746                  22943755.3934
        21.2504         13.7504
  24002440.6354   -4371657.70946  -3312473.10045                  24002442.4754
        13.5004          6.2504
  23070566.1504   -6963061.76747  -5321500.38546                  23070567.2404
        23.2504         16.0004
  21524267.1194    6146063.09448   4787651.12347                  21524267.1894
        32.0004         32.5004
  24450348.8304    8201495.28646    805746.26945                  24450351.2444
        12.5004          5.7504
  21418795.5574    -932193.45848   -713441.21647                  21418795.5574
        30.7504         28.2504
  23385639.6044    6871565.81746   4848196.12145                  23385639.6864
        19.7504         10.5004
 98  7  8 21  3 30.0020000  0  7G 6G 3G21G17G22G23G26
  22956707.5494   16423877.13147  12790765.23346                  22956708.7914
        21.2504         14.0004
  23997755.1434   -4396279.43646  -3331658.81945                  23997757.4164
        13.2504          6.7504
  23068573.6744   -6973530.74547  -5329657.99446                  23068574.5184
        23.2504         16.0004
  21530039.8304    6176401.02048   4811291.06247                  21530040.0414
        31.7504         32.7504
  24459147.8384    8247735.68746    841777.72245                  24459150.2054
        12.7504          5.5004
  21422083.1584    -914916.98448   -699979.02147                  21422083.1354
        30.7504         27.7504
  23394673.7214    6919042.96346   4885191.29045                  23394674.1074
        19.0004         11.0004
 98  7  8 21  3 45.0020000  0  7G 6G 3G21G17G22G23G26
  22969679.0254   16492040.69347  12843879.63446                  22969680.4324
        21.0004         13.7504
  23993081.0254   -4420841.60546  -3350798.13345                  23993083.4164
        13.5004          6.5004
  23066595.5104   -6983925.33747  -5337757.64046                  23066596.3424
        23.0004         15.7504
  21535824.1114    6206797.19048   4834976.38347                  21535824.2644
        32.2504         32.7504
  24467963.9394    8294066.24246    877879.40745                  24467965.7914
        12.5004          5.7504
  21425388.1504    -897548.35548   -686445.01747                  21425388.1044
        30.5004         28.2504
  23403734.1664    6966656.56946   4922292.80545                  23403734.4594
        19.2504         10.5004
 98  7  8 21  4  0.0020000  0  7G 6G 3G21G17G22G23G26
  22982667.5964   16560295.23947  12897064.94646                  22982668.7914
        21.0004         13.7504
  23988418.6664   -4445341.60646  -3369888.99045                  23988420.1544
        13.2504          7.0004
  23064632.7994   -6994240.83147  -5345795.65646                  23064633.6784
        23.5004         15.7504
  21541619.7294    6237252.89448   4858708.09947                  21541619.8344
        32.0004         32.7504
  24476797.6744    8340487.28246    914051.60645                  24476800.1004
        12.5004          5.5004
  21428711.7444    -880082.73548   -672835.43247                  21428711.7794
        30.5004         28.2504
  23412821.4164    7014409.06546   4959502.54645                  23412822.0024
        19.5004         10.2504
 98  7  8 21  4 15.0020000  0  7G 6G 3G21G17G22G23G26
  22995672.7994   16628638.68847  12950319.52546                  22995674.1704
        20.5004         13.2504
  23983768.6894   -4469779.28846  -3388931.30245                  23983770.0964
        13.7504          7.0004
  23062684.6274   -7004479.19347  -5353773.56046                  23062685.6234
        23.7504         16.0004
  21547426.5414    6267767.26048   4882485.52547                  21547426.7294
        31.7504         33.0004
  24485647.4794    8386995.89246    950292.02045                  24485649.1074
        12.0004          5.2504
  21432053.8544    -862519.74048   -659149.97547                  21432053.9004
        30.2504         28.0004
  23421935.0884    7062301.10046   4996821.01345                  23421935.5214
        19.5004         10.5004
 98  7  8 21  4 30.0020000  0  7G 6G 3G21G17G22G23G26
  23008695.0884   16697071.01247  13003643.35446                  23008696.4474
        21.2504         13.5004
  23979129.9554   -4494151.44146  -3407922.54845                  23979131.4204
        14.0004          7.0004
  23060751.0104   -7014639.55247  -5361690.68846                  23060751.8544
        24.2504         16.5004
  21553244.9394    6298342.81048   4906310.62147                  21553245.1624
        32.2504         32.5004
  24494515.5184    8433593.92046    986602.12945                  24494517.7794
        12.2504          5.5004
  21435414.7994    -844856.61448   -645386.49047                  21435414.9044
        30.2504         28.0004
  23431075.1354    7110333.31146   5034248.69745                  23431075.5924
        19.5004         10.7504
 98  7  8 21  4 45.0020000  0  7G 6G 3G21G17G22G23G26
  23021734.1194   16765591.29647  13057035.72146                  23021735.5254
        21.0004         13.7504
  23974503.9474   -4518460.97446  -3426864.98645                  23974505.9984
        13.7504          6.5004
  23058832.4004   -7024722.93847  -5369547.83846                  23058833.2324
        23.7504         16.7504
  21559075.4944    6328983.03548   4930186.11847                  21559075.6824
        32.5004         33.0004
  24503399.7524    8480281.17446   1022981.76045                  24503402.3074
        12.5004          5.7504
  21438795.6974    -827091.35248   -631543.41947                  21438795.6864
        30.5004         27.7504
  23440241.6504    7158502.99846   5071783.51745                  23440241.8264
        19.0004         10.5004
 98  7  8 21  5  0.0020000  0  7G 6G 3G21G17G22G23G26
  23034790.2054   16834200.03547  13110497.02446                  23034791.5534
        21.2504         13.0004
  23969889.8144   -4542709.21246  -3445759.68245                  23969891.3264
        13.7504          7.2504
  23056927.4944   -7034733.03547  -5377347.88446                  23056928.2214
        24.5004         17.2504
  21564919.3224    6359692.15448   4954115.29747                  21564919.5334
        32.7504         33.0004
  24512301.4944    8527060.60346   1059433.22345                  24512303.5214
        12.0004          5.2504
  21442195.8544    -809222.88148   -617619.92647                  21442195.9714
        30.2504         27.7504
  23449433.8144    7206808.85646   5109424.43945                  23449434.6234
        19.0004         10.2504
 98  7  8 21  5 15.0020000  0  7G 6G 3G21G17G22G23G26
  23047862.6894   16902896.75347  13164026.86746                  23047864.0614
        21.0004         13.0004
  23965288.5574   -4566891.72646  -3464603.15845                  23965289.8464
        14.2504          7.0004
  23055036.2754   -7044671.66547  -5385092.23346                  23055037.2364
        24.5004         17.2504
  21570776.5724    6390472.02748   4978099.61047                  21570776.6784
        32.2504         33.0004
  24521221.6744    8573934.87845   1095958.55945                  24521223.8184
        11.7504          5.5004
  21445615.5414    -791252.33948   -603616.90047                  21445615.6234
        30.2504         27.2504
  23458651.5184    7255249.14446   5147170.12545                  23458652.1864
        18.5004         10.2504
 98  7  8 21  5 30.0020000  0  7G 6G 3G21G17G22G23G26
  23060951.9324   16971680.25747  13217624.35446                  23060953.1624
        21.2504         13.5004
  23960698.4944   -4591006.51646  -3483393.85745                  23960700.1824
        14.2504          7.5004
  23053158.1044   -7054538.82447  -5392780.89546                  23053158.8424
        24.0004         16.5004
  21576647.0574    6421322.55448   5002138.98147                  21576647.2094
        32.0004         33.0004
  24530160.1504    8620904.38746   1132558.14145                  24530162.0254
        12.5004          5.2504
  21449055.5104    -773174.58348   -589530.32547                  21449055.6044
        30.2504         27.5004
  23467895.2604    7303822.71546   5185019.65245                  23467895.8344
        19.5004         10.5004
 98  7  8 21  5 45.0020000  0  7G 6G 3G21G17G22G23G26
  23074056.9794   17040547.04447  13271286.72646                  23074058.1624
        21.2504         13.7504
  23956122.5644   -4615055.49346  -3502133.28045                  23956123.4554
        14.0004          7.5004
  23051294.7754   -7064332.45747  -5400412.26546                  23051295.5494
        24.5004         17.2504
  21582530.7994    6452241.90048   5026231.97747                  21582531.0684
        32.0004         32.7504
  24539116.0964    8667967.39346   1169230.55445                  24539118.7794
        12.2504          5.5004
  21452516.2604    -754988.41648   -575359.28247                  21452516.3184
        30.5004         27.0004
  23477163.8544    7352531.05346   5222974.19645                  23477164.3224
        19.2504          9.7504
 98  7  8 21  6  0.0020000  0  7G 6G 3G21G17G22G23G26
  23087177.5254   17109496.01747  13325013.14346                  23087178.9904
        21.2504         13.5004
  23951559.2754   -4639037.84046  -3520820.78045                  23951560.4124
        15.0004          7.2504
  23049445.5104   -7074050.63247  -5407984.83846                  23049446.4364
        24.2504         17.7504
  21588428.0804    6483231.98948   5050380.09847                  21588428.2684
        32.0004         32.5004
  24548089.1744    8715120.40646   1205973.08945                  24548090.7444
        12.2504          5.2504
  21455997.5804    -736694.80048   -561104.51447                  21455997.4044
        30.7504         27.5004
  23486458.1274    7401373.55646   5261033.28445                  23486458.6544
        19.0004         10.5004
 98  7  8 21  6 15.0020000  0  7G 6G 3G21G17G22G23G26
  23100313.5574   17178527.26347  13378803.66846                  23100315.0454
        20.7504         13.5004
  23947007.7684   -4662952.70746  -3539455.68845                  23947008.8694
        15.0004          7.5004
  23047610.2914   -7083694.49447  -5415499.50546                  23047611.4394
        23.7504         17.0004
  21594339.3144    6514295.49448   5074585.42247                  21594339.6194
        31.7504         32.2504
  24557079.0964    8762363.49746   1242785.84745                  24557081.2294
        12.2504          5.0004
  21459499.3774    -718293.78648   -546766.05347                  21459499.1664
        31.0004         27.5004
  23495777.9864    7450350.14346   5299196.85045                  23495779.0644
        19.0004         10.2504
 98  7  8 21  6 30.0020000  0  7G 6G 3G21G17G22G23G26
  23113465.3854   17247640.75547  13432658.28146                  23113466.9674
        20.5004         13.0004
  23942470.0574   -4686800.51446  -3558038.36345                  23942471.9904
        14.5004          7.2504
  23045788.2524   -7093267.61947  -5422959.04946                  23045789.2604
        23.5004         16.7504
  21600263.8224    6545429.47848   5098845.66547                  21600263.9984
        31.7504         32.0004
  24566085.7834    8809697.90046   1279669.73745                  24566088.2094
        12.0004          5.0004
  21463020.6114    -699789.39248   -532347.03847                  21463020.3894
        31.0004         27.2504
  23505123.9004    7499460.21646   5337464.44345                  23505124.4044
        19.0004         10.5004
 98  7  8 21  6 45.0020000  0  7G 6G 3G21G17G22G23G26
  23126632.9394   17316836.15847  13486576.71746                  23126634.2294
        20.7504         13.0004
  23937945.5804   -4710579.93446  -3576567.72545                  23937946.9514
        15.5004          7.5004
  23043979.3934   -7102771.01147  -5430364.25746                  23043980.5184
        23.7504         17.0004
  21606201.7364    6576633.03348   5123160.12747                  21606201.9364
        31.7504         32.5004
  24575110.7054    8857122.80646   1316624.15445                  24575113.6824
        12.0004          5.2504
  21466561.3224    -681182.76348   -517848.36447                  21466561.1464
        31.0004         27.5004
  23514495.0104    7548706.31046   5375838.01045                  23514495.3614
        19.5004         10.2504
 98  7  8 21  7  0.0020000  0  7G 6G 3G21G17G22G23G26
  23139815.6354   17386112.73647  13540558.41046                  23139817.2644
        20.2504         12.7504
  23933432.7684   -4734291.27746  -3595044.06145                  23933434.1274
        15.0004          7.2504
  23042184.0254   -7112207.97147  -5437717.70946                  23042185.3614
        23.5004         17.0004
  21612152.5724    6607904.60148   5147527.58047                  21612152.7834
        32.2504         32.5004
  24584151.8144    8904638.50045   1353649.31445                  24584154.2874
        11.5004          5.0004
  21470121.3384    -662474.09448   -503270.17547                  21470121.1044
        31.0004         27.0004
  23523892.3934    7598090.74646   5414319.37945                  23523892.5214
        19.5004         10.7504
 98  7  8 21  7 15.0020000  0  7G 6G 3G21G17G22G23G26
  23153013.7754   17455468.28047  13594601.63446                  23153015.2994
        20.0004         12.5004
  23928934.0804   -4757931.38846  -3613464.88345                  23928935.3224
        14.7504          7.2504
  23040401.4794   -7121574.53047  -5445016.28346                  23040403.0144
        23.0004         17.0004
  21618115.6114    6639241.61748   5171946.03347                  21618115.8224
        31.7504         32.7504
  24593211.5964    8952243.90546   1390744.39945                  24593213.9984
        12.0004          5.2504
  21473700.5724    -643665.62448   -488614.22147                  21473700.3264
        31.0004         27.2504
  23533317.1354    7647614.52446   5452909.33145                  23533317.3574
        19.7504         11.2504
 98  7  8 21  7 30.0020000  0  7G 6G 3G21G17G22G23G26
  23166226.9324   17524902.02046  13648705.78346                  23166228.5494
        19.2504         12.0004
  23924449.1194   -4781501.18946  -3631830.92345                  23924450.6194
        15.7504          7.2504
  23038633.4004   -7130865.86647  -5452256.25446                  23038634.7014
        23.5004         17.2504
  21624091.3544    6670642.17048   5196413.99547                  21624091.5884
        32.0004         32.5004
  24602286.7524    8999934.96645   1427906.21345                  24602289.1544
        11.7504          5.2504
  21477298.6744    -624757.13448   -473880.32747                  21477298.3224
        30.7504         27.0004
  23542768.0184    7697278.51546   5491608.55045                  23542768.1934
        19.7504         10.7504
 98  7  8 21  7 45.0020000  0  7G 6G 3G21G17G22G23G26
  23179454.9394   17594416.03946  13702872.47946                  23179456.0534
        19.5004         12.5004
  23919975.9474   -4805004.62846  -3650145.25945                  23919976.9434
        15.0004          7.7504
  23036879.2364   -7140083.13047  -5459438.51346                  23036880.4794
        23.2504         17.2504
  21630078.1664    6702104.06848   5220929.75647                  21630078.3424
        31.7504         32.5004
  24611377.9394    9047710.90345   1465134.15745                  24611380.6934
        11.5004          5.0004
  21480914.8224    -605753.51348   -459072.30647                  21480914.5534
        30.7504         27.2504
  23552244.8144    7747083.52446   5530417.63445                  23552245.0494
        19.5004         10.5004
 98  7  8 21  8  0.0020000  0  7G 6G 3G21G17G22G23G26
  23192698.6044   17664013.69246  13757104.36145                  23192700.1274
        19.0004         11.7504
  23915516.3694   -4828440.28746  -3668406.77145                  23915517.5764
        15.2504          7.5004
  23035139.3544   -7149227.19147  -5466563.72246                  23035140.4674
        23.0004         17.5004
  21636076.8074    6733627.78848   5245493.69147                  21636077.0764
        32.2504         32.5004
  24620486.6744    9095573.00145   1502429.26045                  24620489.5214
        11.7504          4.7504
  21484548.0884    -586661.76548   -444195.61047                  21484547.8304
        31.0004         27.0004
  23561749.2834    7797029.68246   5569336.70345                  23561749.4824
        19.5004         10.5004
 98  7  8 21  8 15.0020000  0  7G 6G 3G21G17G22G23G26
  23205958.7214   17733694.72646  13811401.20345                  23205960.3144
        18.7504         11.5004
  23911069.9864   -4851806.79046  -3686614.39945                  23911071.1464
        15.0004          7.2504
  23033411.9864   -7158303.60047  -5473636.21646                  23033413.1824
        23.5004         17.5004
  21642086.3614    6765209.07548   5270102.48747                  21642086.5024
        32.2504         32.7504
  24629610.8854    9143521.36846   1539791.57245                  24629612.8304
        12.2504          5.2504
  21488197.9164    -567480.99248   -429249.54247                  21488197.7524
        30.7504         27.2504
  23571280.2604    7847112.43546   5608362.22245                  23571280.6934
        19.2504         10.2504
 98  7  8 21  8 30.0020000  0  7G 6G 3G21G17G22G23G26
  23219234.8464   17803461.69546  13865765.02245                  23219236.6044
        18.5004         11.7504
  23906637.0724   -4875102.20146  -3704766.61945                  23906638.3964
        14.7504          7.5004
  23031697.8854   -7167312.98847  -5480656.49046                  23031698.9164
        24.0004         17.5004
  21648106.7914    6796845.68148   5294754.38447                  21648106.9674
        32.0004         32.5004
  24638751.7214    9191557.55245   1577222.31045                  24638754.1004
        11.7504          5.0004
  21491864.7754    -548210.75648   -414233.76947                  21491864.5764
        30.7504         26.7504
  23580836.5254    7897331.52247   5647493.96745                  23580837.0534
        20.0004         10.7504
 98  7  8 21  8 45.0020000  0  7G 6G 3G21G17G22G23G26
  23232526.8304   17873313.29046  13920194.77846                  23232528.4244
        18.5004         12.2504
  23902217.4004   -4898326.03546  -3722863.07945                  23902219.2994
        15.2504          7.5004
  23029996.6044   -7176251.60047  -5487621.61546                  23029997.7524
        23.5004         17.7504
  21654138.0964    6828539.35348   5319450.75247                  21654138.1434
        32.2504         32.7504
  24647908.7214    9239678.19645   1614718.86845                  24647911.6624
        11.7504          5.5004
  21495549.2134    -528848.84748   -399146.55847                  21495549.1544
        30.7504         27.0004
  23590418.2914    7947685.10247   5686730.52345                  23590418.9594
        20.2504         11.0004
 98  7  8 21  9  0.0020000  0  7G 6G 3G21G17G22G23G26
  23245834.4794   17943246.78746  13974688.34745                  23245836.2954
        18.0004         11.2504
  23897810.4864   -4921482.54246  -3740907.07145                  23897811.5884
        14.7504          7.5004
  23028309.6504   -7185118.97147  -5494531.22446                  23028310.6114
        24.2504         18.2504
  21660180.3074    6860291.30148   5344192.52947                  21660180.5414
        32.5004         33.2504
  24657081.7914    9287879.86546   1652278.55845                  24657084.8384
        12.2504          5.2504
  21499251.5334    -509393.73548   -383986.72547                  21499251.3694
        30.7504         27.5004
  23600025.0644    7998169.52346   5726069.02445                  23600025.8504
        19.7504         10.2504
 98  7  8 21  9 15.0020000  0  7G 6G 3G21G17G22G23G26
  23259159.2524   18013263.77246  14029246.97345                  23259161.2914
        18.0004         11.5004
  23893417.3224   -4944571.32046  -3758898.29345                  23893418.6704
        14.7504          7.2504
  23026636.7914   -7193909.56647  -5501381.01046                  23026637.7294
        24.5004         17.7504
  21666234.1434    6892103.80248   5368981.48947                  21666234.2714
        33.0004         33.0004
  24666269.4634    9336163.45046   1689902.07945                  24666272.6744
        12.2504          5.2504
  21502971.5494    -489844.64948   -368753.66047                  21502971.3264
        30.7504         27.0004
  23609656.1194    8048781.57446   5765506.97645                  23609656.6824
        19.5004         10.5004
 98  7  8 21  9 30.0020000  0  7G 6G 3G21G17G22G23G26
  23272498.8774   18083364.53046  14083870.88445                  23272500.6584
        18.2504         11.5004
  23889036.8144   -4967589.66546  -3776834.61445                  23889038.0574
        14.2504          7.0004
  23024978.3774   -7202622.28547  -5508170.11246                  23024979.3614
        24.2504         18.2504
  21672299.7754    6923978.15848   5393818.64747                  21672299.7754
        33.0004         33.0004
  24675473.3304    9384527.58846   1727588.36845                  24675476.3074
        12.5004          5.5004
  21506709.4864    -470202.23548   -353447.87547                  21506709.2994
        30.7504         27.2504
  23619311.3304    8099519.85946   5805043.30345                  23619311.7994
        19.5004         10.2504
 98  7  8 21  9 45.0020000  0  7G 6G 3G21G17G22G23G26
  23285854.6504   18153549.30446  14138560.25645                  23285856.7254
        18.2504         11.5004
  23884670.0334   -4990537.68446  -3794716.16545                  23884671.0644
        14.0004          7.2504
  23023334.7604   -7211263.31747  -5514903.35746                  23023335.5454
        25.0004         18.5004
  21678376.5254    6955913.79648   5418703.55847                  21678376.4204
        32.5004         32.7504
  24684692.2134    9432973.83246   1765338.64045                  24684694.9904
        12.0004          5.5004
  21510464.8074    -450467.68648   -338070.29447                  21510464.6664
        30.5004         27.2504
  23628990.6194    8150383.43846   5844677.25445                  23628991.3574
        19.5004         10.5004
 98  7  8 21 10  0.0020000  0  7G 6G 3G21G17G22G23G26
  23299226.5414   18223819.10646  14193315.88245                  23299228.3934
        18.7504         11.5004
  23880316.9634   -5013412.05246  -3812540.30645                  23880318.5214
        14.2504          7.2504
  23021703.2834   -7219833.98547  -5521581.76446                  23021704.2094
        25.0004         19.0004
  21684466.3384    6987914.46548   5443639.14147                  21684466.3964
        32.5004         33.0004
  24693927.4244    9481506.16046   1803155.97245                  24693929.7794
        12.2504          5.5004
  21514238.2364    -430638.22748   -322618.76247                  21514238.1664
        30.2504         27.0004
  23638693.1044    8201372.81746   5884409.22845                  23638693.8544
        18.5004         10.2504
 98  7  8 21 10 15.0030000  0  7G 6G 3G21G17G22G23G26
  23312614.5224   18294173.95746  14248137.78745                  23312616.2224
        18.7504         11.7504
  23875978.1794   -5036213.15646  -3830307.36245                  23875979.9014
        13.5004          7.2504
  23020086.0544   -7228333.20547  -5528204.50846                  23020086.9444
        24.7504         18.5004
  21690569.0464    7019983.95548   5468628.35647                  21690568.9764
        33.0004         33.2504
  24703179.4444    9530125.70146   1841041.28345                  24703181.8584
        12.2504          5.0004
  21518030.7724    -410707.63248   -307088.42347                  21518030.6554
        30.2504         27.0004
  23648420.1474    8252491.92046   5924242.29545                  23648420.7574
        18.0004         10.5004
 98  7  8 21 10 30.0030000  0  7G 6G 3G21G17G22G23G26
  23326016.7574   18364602.04746  14303016.75145                  23326018.3744
        18.7504         11.0004
  23871654.0464   -5058940.64946  -3848017.05145                  23871655.8044
        14.5004          7.5004
  23018482.4684   -7236759.18747  -5534770.17946                  23018483.4764
        24.5004         18.5004
  21696684.0074    7052120.18648   5493669.57147                  21696684.0424
        32.2504         33.0004
  24712447.3194    9578823.16246   1878987.29845                  24712449.8514
        12.2504          5.2504
  21521842.1944    -390678.53548   -291481.32647                  21521842.1474
        30.2504         26.2504
  23658171.8124    8303735.03046   5964171.98845                  23658172.5264
        18.0004         10.0004
 98  7  8 21 10 45.0030000  0  7G 6G 3G21G17G22G23G26
  23339433.7334   18435106.95246  14357955.58145                  23339435.4094
        18.5004         11.7504
  23867342.5074   -5081595.54346  -3865670.17845                  23867343.7724
        14.7504          7.7504
  23016893.5854   -7245109.10447  -5541276.57846                  23016894.5934
        24.5004         18.7504
  21702813.6474    7084331.05248   5518768.94547                  21702813.7884
        32.5004         33.2504
  24721728.5384    9627601.49646   1916996.33145                  24721731.2694
        12.2504          5.2504
  21525672.1014    -370551.82848   -275798.16147                  21525671.9834
        30.2504         26.5004
  23667947.4834    8355107.63146   6004202.57245                  23667947.9874
        17.5004          9.7504
 98  7  8 21 11  0.0030000  0  7G 6G 3G21G17G22G23G26
  23352864.9764   18505688.05046  14412953.76745                  23352866.6874
        19.0004         11.7504
  23863046.1474   -5104176.38546  -3883265.58545                  23863047.1324
        15.5004          7.7504
  23015318.9764   -7253383.17647  -5547723.87746                  23015320.1124
        24.2504         18.2504
  21708958.2024    7116620.12148   5543929.25547                  21708958.2614
        32.2504         32.7504
  24731026.7414    9676464.48246   1955071.33745                  24731029.6364
        12.2504          5.5004
  21529521.2104    -350325.30648   -260037.23047                  21529521.0464
        30.2504         26.2504
  23677747.9834    8406611.94346   6044335.78545                  23677749.0154
        18.0004          9.5004
 98  7  8 21 11 15.0030000  0  7G 6G 3G21G17G22G23G26
  23366309.7104   18576343.70846  14468010.07345                  23366311.6554
        19.0004         11.7504
  23858763.1014   -5126682.89746  -3900803.08745                  23858764.3904
        15.7504          7.7504
  23013758.0154   -7261585.90147  -5554115.57346                  23013759.1404
        23.7504         17.7504
  21715116.3664    7148982.43848   5569146.64347                  21715116.6014
        31.7504         33.0004
  24740341.5154    9725412.66545   1993212.71845                  24740344.4334
        11.7504          4.7504
  21533388.2724    -330003.15448   -244201.77847                  21533388.0974
        30.7504         26.7504
  23687574.3744    8458245.80146   6084569.96845                  23687575.6514
        18.0004          9.7504
 98  7  8 21 11 30.0030000  0  7G 6G 3G21G17G22G23G26
  23379769.3124   18647072.20046  14523123.11845                  23379771.0934
        19.0004         11.7504
  23854495.4764   -5149111.74046  -3918280.06845                  23854496.4954
        16.5004          8.0004
  23012210.1554   -7269717.98847  -5560452.23546                  23012211.2104
        23.5004         18.5004
  21721288.1164    7181416.22748   5594419.72147                  21721288.4214
        31.5004         32.0004
  24749672.5224    9774447.42446   2031421.57745                  24749674.8544
        12.0004          5.0004
  21537273.3514    -309587.93548   -228293.80447                  21537273.2454
        30.2504         26.5004
  23697424.9834    8510009.67846   6124905.44445                  23697425.7224
        18.7504          9.7504
 98  7  8 21 11 45.0030000  0  7G 6G 3G21G17G22G23G26
  23393241.8664   18717871.96746  14578291.70445                  23393243.5894
        18.7504         11.2504
  23850241.2724   -5171466.16346  -3935699.04845                  23850242.3044
        17.2504          8.0004
  23010675.4294   -7277783.60947  -5566737.09946                  23010676.3904
        23.5004         18.0004
  21727473.0774    7213918.58748   5619746.23347                  21727473.3354
        31.2504         32.0004
  24759020.2024    9823566.88746   2069696.40645                  24759022.8154
        12.0004          4.5004
  21541175.6794    -289080.22248   -212313.76347                  21541175.4684
        30.2504         26.5004
  23707299.7654    8561903.65446   6165342.29845                  23707300.7964
        18.5004          9.7504
 98  7  8 21 12  0.0030000  0  7G 6G 3G21G17G22G23G26
  23406728.2264   18788741.47046  14633514.63045                  23406730.1594
        18.7504         11.2504
  23846001.0224   -5193748.58146  -3953061.93045                  23846001.9484
        17.0004          8.5004
  23009153.2184   -7285781.76547  -5572969.39746                  23009154.1444
        23.5004         18.2504
  21733670.9214    7246488.60448   5645125.46347                  21733671.1674
        31.5004         31.7504
  24768382.7654    9872771.21145   2108037.37745                  24768385.1444
        11.2504          4.5004
  21545096.5464    -268476.54748   -196258.93847                  21545096.2064
        30.2504         26.2504
  23717199.6014    8613927.92946   6205880.69345                  23717200.1634
        18.7504          9.7504
 98  7  8 21 12 15.0030000  0  7G 6G 3G21G17G22G23G26
  23420226.8124   18859679.18846  14688790.71445                  23420228.8514
        18.2504         11.5004
  23841774.0624   -5215958.87946  -3970368.61145                  23841774.9174
        17.2504          9.0004
  23007645.2654   -7293706.93447  -5579144.81946                  23007646.2144
        23.7504         18.0004
  21739881.4994    7279125.44448   5670556.76747                  21739881.7804
        31.2504         31.7504
  24777761.5464    9922056.62045   2146441.56445                  24777763.7964
        11.2504          4.5004
  21549035.8354    -247775.77248   -180128.45447                  21549035.5304
        30.0004         26.0004
  23727124.5464    8666082.70346   6246520.77245                  23727125.2024
        19.0004          9.7504
 98  7  8 21 12 30.0030000  0  7G 6G 3G21G17G22G23G26
  23433739.0624   18930687.23846  14744121.60045                  23433741.1474
        18.2504         10.7504
  23837560.9684   -5238095.98646  -3987618.25545                  23837562.1164
        16.5004          8.7504
  23006151.4684   -7301556.44447  -5585261.28346                  23006152.4294
        24.2504         18.2504
  21746104.5384    7311827.32548   5696038.74347                  21746104.9484
        31.0004         32.2504
  24787155.4214    9971423.21245   2184908.96345                  24787157.8234
        10.7504          4.5004
  21552993.1874    -226978.68348   -163922.92747                  21552992.9764
        30.0004         25.7504
  23737074.1634    8718367.11346   6287261.86745                  23737074.6084
        19.5004         10.2504
 98  7  8 21 12 45.0030000  0  7G 6G 3G21G17G22G23G26
  23447265.2024   19001765.82546  14799507.44345                  23447267.4524
        18.0004         10.5004
  23833362.3824   -5260160.18046  -4004811.09945                  23833363.0734
        16.2504          9.0004
  23004672.3744   -7309331.75347  -5591319.93046                  23004673.3584
        24.0004         18.0004
  21752340.1084    7344594.60648   5721571.68347                  21752340.4134
        31.0004         32.0004
  24796565.1084   10020871.81545   2223440.29244                  24796569.0694
        10.5004          4.0004
  21556968.3904    -206088.04548   -147644.50047                  21556968.0384
        30.0004         26.0004
  23747047.6714    8770778.03246   6328101.53845                  23747047.8124
        19.7504         10.2504
 98  7  8 21 13  0.0030000  0  7G 6G 3G21G17G22G23G26
  23460804.9214   19072915.15946  14854948.41545                  23460807.0304
        18.0004         10.7504
  23829177.9374   -5282150.66546  -4021946.49645                  23829178.6164
        16.2504          8.7504
  23003206.6944   -7317034.09647  -5597321.72046                  23003207.3154
        24.5004         18.7504
  21758587.1874    7377424.74148   5747153.60647                  21758587.5624
        30.7504         31.7504
  24805991.4834   10070404.42745   2262037.06345                  24805994.9524
        10.7504          4.7504
  21560962.4684    -185100.29448   -131290.40447                  21560962.1404
        30.2504         25.7504
  23757044.9374    8823316.15846   6369040.32445                  23757045.1594
        18.7504          9.7504
 98  7  8 21 13 15.0030000  0  7G 6G 3G21G17G22G23G26
  23474357.5854   19144135.22446  14910444.50445                  23474359.4374
        18.0004         10.7504
  23825007.1794   -5304067.66546  -4039024.62545                  23825008.6904
        16.2504          9.0004
  23001755.0074   -7324661.70547  -5603265.27746                  23001755.8744
        24.5004         18.7504
  21764846.0694    7410314.50748   5772781.98447                  21764846.5384
        30.7504         31.7504
  24815432.9134   10120018.51545   2300697.36945                  24815435.3974
        10.7504          4.7504
  21564974.7494    -164015.20048   -114860.45347                  21564974.4914
        30.0004         26.7504
  23767067.5854    8875981.95246   6410078.59845                  23767068.1714
        19.5004         10.2504
 98  7  8 21 13 30.0030000  0  7G 6G 3G21G17G22G23G26
  23487923.8514   19215425.82846  14965995.55445                  23487926.0194
        17.7504         10.2504
  23820850.7104   -5325911.22246  -4056045.53545                  23820851.3544
        16.5004          9.2504
  23000317.9524   -7332211.51347  -5609148.21346                  23000318.6674
        24.7504         19.2504
  21771116.1794    7443263.32848   5798456.38547                  21771116.6834
        30.7504         31.2504
  24824889.1084   10169711.71845   2339419.25545                  24824891.7924
        10.7504          4.5004
  21569005.1404    -142835.27248    -98356.60947                  21569005.0224
        29.7504         26.2504
  23777113.4604    8928775.43346   6451216.38145                  23777113.9524
        19.2504          9.7504
 98  7  8 21 13 45.0030000  0  7G 6G 3G21G17G22G23G26
  23501503.7104   19286789.00346  15021603.16145                  23501505.6554
        17.5004         10.2504
  23816708.4764   -5347681.44146  -4073009.28745                  23816709.0384
        17.2504          9.2504
  22998896.4914   -7339684.46047  -5614971.24246                  22998897.2764
        25.0004         19.7504
  21777397.6714    7476274.56548   5824179.42147                  21777398.1164
        30.7504         31.7504
  24834360.5074   10219482.47845   2378201.60844                  24834363.1324
        11.0004          4.2504
  21573053.8974    -121559.53148    -81778.10647                  21573053.6984
        30.0004         26.0004
  23787184.8044    8981698.32846   6492454.98945                  23787185.3664
        19.2504         10.2504
 98  7  8 21 14  0.0030000  0  7G 6G 3G21G17G22G23G26
  23515098.2184   19358227.05546  15077269.09745                  23515100.1284
        17.2504          9.7504
  23812579.6554   -5369377.02346  -4089914.89545                  23812580.2294
        17.2504          9.0004
  22997488.9134   -7347078.82847  -5620733.05846                  22997489.6284
        25.2504         20.0004
  21783691.7334    7509349.71448   5849952.25947                  21783692.3084
        30.7504         31.2504
  24843845.7334   10269328.73445   2417042.76845                  24843848.1594
        11.0004          4.5004
  21577120.9054    -100187.15148    -65124.29847                  21577120.7064
        30.0004         26.5004
  23797280.0694    9034750.82846   6533794.59145                  23797280.4794
        19.2504          9.7504
 98  7  8 21 14 15.0030000  0  7G 6G 3G21G17G22G23G26
  23528705.9914   19429739.57746  15132993.07245                  23528707.8314
        17.2504         10.0004
  23808465.9374   -5390995.62246  -4106760.50445                  23808466.3824
        17.7504          9.2504
  22996096.7414   -7354394.61147  -5626433.62846                  22996097.6554
        25.2504         19.7504
  21789997.9374    7542489.61948   5875775.56047                  21789998.3824
        30.7504         31.7504
  24853345.4684   10319249.38745   2455941.92745                  24853347.9524
        11.2504          4.5004
  21581205.6944     -78721.18148    -48397.56447                  21581205.4604
        30.0004         26.2504
  23807399.6474    9087932.01246   6575234.47445                  23807399.9644
        18.5004          9.5004
 98  7  8 21 14 30.0030000  0  7G 6G 3G21G17G22G23G26
  23542329.3044   19501329.49046  15188777.35445                  23542330.7224
        17.2504          9.5004
  23804366.0624   -5412536.57046  -4123545.60845                  23804366.9174
        17.7504          9.5004
  22994719.3514   -7361633.41347  -5632074.21646                  22994720.1714
        25.2504         19.7504
  21796317.1714    7575696.77748   5901651.26247                  21796317.6984
        30.7504         32.0004
  24862859.2264   10369243.82345   2494898.57545                  24862860.8664
        11.5004          4.7504
  21585307.4134     -57166.68248    -31601.84547                  21585307.2024
        29.7504         26.2504
  23817544.4374    9141241.04846   6616773.96745                  23817544.8004
        18.5004          9.7504
 98  7  8 21 14 45.0030000  0  7G 6G 3G21G17G22G23G26
  23555966.9764   19572994.01446  15244619.77745                  23555968.8154
        17.2504          9.5004
  23800282.2264   -5434000.75646  -4140270.90345                  23800283.2224
        18.2504          9.2504
  22993355.6474   -7368800.05847  -5637658.57946                  22993356.4794
        25.2504         19.5004
  21802649.1874    7608972.34848   5927580.27847                  21802649.5974
        30.5004         32.0004
  24872387.3514   10419313.79045   2533914.05844                  24872390.9604
        11.0004          4.2504
  21589425.5304     -35525.28248    -14738.41347                  21589425.3314
        29.7504         26.0004
  23827712.5544    9194677.53246   6658412.77945                  23827713.4794
        18.2504          9.5004
 98  7  8 21 15  0.0030000  0  7G 6G 3G21G17G22G23G26
  23569618.9134   19644734.18946  15300521.14645                  23569620.6244
        17.2504         10.0004
  23796212.0624   -5455386.45446  -4156935.03945                  23796212.7884
        17.2504          9.5004
  22992005.6244   -7375892.65747  -5643185.24446                  22992006.4444
        24.7504         19.2504
  21808994.7334    7642318.06648   5953563.95247                  21808995.2844
        30.7504         32.2504
  24881930.1244   10469460.95745   2572989.70645                  24881932.9374
        11.0004          5.0004
  21593560.7334     -13794.24248      2194.87447                  21593560.6284
        30.0004         26.5004
  23837906.5224    9248245.76446   6700154.25245                  23837907.6594
        18.2504          9.7504
 98  7  8 21 15 15.0030000  0  7G 6G 3G21G17G22G23G26
  23583284.3584   19716548.04246  15356479.91145                  23583286.1874
        17.7504          9.5004
  23792157.4994   -5476693.01546  -4173537.50945                  23792158.4724
        17.7504          9.7504
  22990670.2024   -7382912.00047  -5648654.82646                  22990671.2224
        24.7504         19.5004
  21815353.1794    7675730.78748   5979599.83347                  21815353.6834
        31.0004         32.5004
  24891485.6014   10519681.97345   2612122.90145                  24891489.1514
        11.0004          4.5004
  21597713.1714       8027.02248     19198.45947                  21597713.1014
        30.0004         26.5004
  23848124.7104    9301944.24046   6741997.20945                  23848125.5654
        18.2504          9.2504
 98  7  8 21 15 30.0030000  0  7G 6G 3G21G17G22G23G26
  23596964.5934   19788435.88046  15412496.35445                  23596966.4214
        18.0004         10.2504
  23788118.1794   -5497917.71846  -4190076.19845                  23788119.1284
        16.5004         10.0004
  22989347.8744   -7389859.12447  -5654068.13646                  22989348.6014
        25.0004         19.5004
  21821724.3514    7709212.19748   6005689.24047                  21821724.8784
        30.7504         32.2504
  24901058.1634   10569977.99945   2651314.54045                  24901061.4214
        11.5004          4.5004
  21601882.8824      29938.23148     36272.13047                  21601882.8234
        30.0004         26.0004
  23858367.2964    9355770.36046   6783939.63545                  23858368.1754
        17.7504          9.5004
 98  7  8 21 15 45.0030000  0  7G 6G 3G21G17G22G23G26
  23610658.9054   19860399.87146  15468572.11345                  23610660.7694
        17.7504         10.0004
  23784095.4134   -5519059.32546  -4206550.13145                  23784096.0344
        17.5004         10.0004
  22988038.9214   -7396738.13147  -5659428.36546                  22988039.6244
        25.0004         19.0004
  21828108.8904    7742762.36048   6031832.21947                  21828109.4404
        31.0004         32.2504
  24910642.5624   10620349.77445   2690565.20544                  24910645.7494
        11.2504          4.0004
  21606069.2104      51938.56048     53415.25147                  21606069.1514
        30.0004         26.2504
  23868635.1404    9409724.22646   6825981.59845                  23868635.6324
        18.0004          9.2504
 98  7  8 21 16  0.0030000  0  7G 6G 3G21G17G22G23G26
  23624368.1634   19932440.39546  15524707.51945                  23624370.5544
        17.7504         10.0004
  23780088.4374   -5540120.21346  -4222961.16345                  23780088.8824
        18.0004          9.7504
  22986742.5624   -7403550.99647  -5664737.05746                  22986743.2184
        25.0004         19.5004
  21834506.0464    7776379.85748   6058027.67047                  21834506.5264
        30.7504         32.2504
  24920243.1944   10670797.09345   2729874.75145                  24920245.8664
        11.5004          4.7504
  21610273.2184      74030.39848     70629.67347                  21610273.1714
        30.0004         26.0004
  23878926.4214    9463805.56046   6868122.90145                  23878927.1014
        18.0004          9.5004
 98  7  8 21 16 15.0030000  0  7G 6G 3G21G17G22G23G26
  23638090.5624   20004554.03646  15580899.89845                  23638092.1444
        18.0004         10.5004
  23776095.8354   -5561101.18446  -4239309.91845                  23776096.3274
        19.0004          9.5004
  22985459.0154   -7410296.54947  -5669993.29446                  22985459.5194
        25.0004         19.2504
  21840915.6474    7810062.73548   6084274.06447                  21840916.1404
        31.0004         32.0004
  24929857.3354   10721319.70545   2769242.93545                  24929860.8154
        11.0004          4.7504
  21614494.7494      96213.51048     87915.22247                  21614494.6204
        30.2504         25.7504
  23889241.1944    9518014.11146   6910363.32445                  23889241.6754
        17.5004          9.5004
 98  7  8 21 16 30.0030000  0  7G 6G 3G21G17G22G23G26
  23651826.8274   20076737.98546  15637147.06345                  23651828.3864
        18.2504         10.5004
  23772117.1084   -5582004.51546  -4255598.19745                  23772118.0694
        17.7504         10.0004
  22984187.6324   -7416976.03647  -5675198.04946                  22984188.5224
        24.5004         19.2504
  21847337.3974    7843809.82848   6110570.49647                  21847337.8314
        30.7504         32.2504
  24939485.9214   10771919.38545   2808671.22045                  24939488.8864
        11.2504          4.5004
  21618732.9994     118486.61948    105270.89847                  21618732.9174
        30.2504         26.2504
  23899580.9294    9572347.42646   6952700.96645                  23899582.0074
        17.7504          9.2504
 98  7  8 21 16 45.0030000  0  7G 6G 3G21G17G22G23G26
  23665576.5854   20148992.92446  15693449.53845                  23665578.4134
        18.2504         10.5004
  23768154.8974   -5602827.18746  -4271823.61745                  23768155.8004
        17.5004          9.7504
  22982929.4294   -7423586.78247  -5680349.25146                  22982930.1904
        24.7504         19.5004
  21853772.0624    7877623.37948   6136918.71247                  21853772.4724
        31.0004         32.0004
  24949129.9054   10822597.75945   2848160.78445                  24949133.3864
        11.5004          4.7504
  21622989.6324     140854.90248    122700.73147                  21622989.3394
        29.7504         25.7504
  23909944.3274    9626807.79446   6995137.60245                  23909945.4294
        17.7504          9.2504
 98  7  8 21 17  0.0030000  0  7G 6G 3G21G17G22G23G26
  23679339.7804   20221319.55846  15749807.89145                  23679341.7614
        17.7504         10.0004
  23764208.0694   -5623565.84146  -4287983.56745                  23764208.9834
        17.0004         10.0004
  22981685.1874   -7430126.78847  -5685445.32546                  22981686.0774
        25.0004         19.5004
  21860218.7264    7911500.50948   6163316.47347                  21860219.1014
        31.0004         32.5004
  24958788.5224   10873353.60945   2887710.73744                  24958791.0894
        11.0004          4.2504
  21627264.9994     163322.28748    140207.79347                  21627264.6474
        30.0004         25.7504
  23920332.5304    9681395.23046   7037673.25345                  23920333.0464
        17.7504          8.7504
 98  7  8 21 17 15.0030000  0  7G 6G 3G21G17G22G23G26
  23693117.2574   20293720.81046  15806224.38245                  23693119.4604
        18.0004         10.0004
  23760278.4294   -5644217.95946  -4304076.09045                  23760279.4484
        17.2504          9.7504
  22980454.2654   -7436594.11247  -5690484.76146                  22980455.0034
        24.5004         19.5004
  21866677.1404    7945439.70348   6189762.59947                  21866677.4684
        31.0004         32.0004
  24968461.6014   10924183.74945   2927318.56344                  24968464.6014
        11.2504          4.2504
  21631559.2494     185888.89948    157792.16946                  21631558.9564
        30.0004         25.5004
  23930743.3664    9736106.84046   7080305.67145                  23930744.5974
        17.2504          8.7504
 98  7  8 21 17 30.0030000  0  7G 6G 3G21G17G22G23G26
  23706909.1944   20366196.82446  15862699.10945                  23706911.1984
        18.0004         10.2504
  23756365.4294   -5664783.03946  -4320100.78845                  23756366.3664
        18.0004          9.7504
  22979236.7804   -7442991.40447  -5695469.62346                  22979237.5544
        25.0004         19.2504
  21873147.4214    7979441.03548   6216257.13847                  21873147.7024
        30.7504         32.0004
  24978146.6634   10975086.57645   2966983.02744                  24978149.5934
        10.5004          4.2504
  21635872.1634     208553.10148    175452.58946                  21635871.8124
        30.2504         25.5004
  23941178.7804    9790941.53546   7123033.98645                  23941179.6834
        17.7504          9.0004
 98  7  8 21 17 45.0030000  0  7G 6G 3G21G17G22G23G26
  23720715.7654   20438750.23146  15919234.16045                  23720717.7224
        17.7504         10.0004
  23752467.8194   -5685262.76046  -4336058.97745                  23752468.7804
        18.7504          9.7504
  22978032.8044   -7449318.81047  -5700400.04146                  22978033.6364
        25.0004         19.5004
  21879629.5384    8013505.27548   6242800.69947                  21879629.9724
        31.0004         31.7504
  24987847.2264   11026061.58545   3006703.74644                  24987849.6514
        10.7504          4.2504
  21640202.7964     231310.50048    193185.63247                  21640202.3274
        30.2504         25.7504
  23951636.4294    9845899.55946   7165858.41745                  23951637.0974
        17.0004          9.0004
 98  7  8 21 18  0.0030000  0  7G 6G 3G21G17G22G23G26
  23734536.4134   20511378.87846  15975827.83245                  23734538.1944
        18.0004         10.2504
  23748586.7414   -5705659.05046  -4351952.15045                  23748587.3154
        18.0004          9.7504
  22976842.4914   -7455574.84947  -5705274.84246                  22976843.2184
        25.2504         19.5004
  21886123.3514    8047631.26848   6269392.37947                  21886123.7844
        30.7504         31.5004
  24997561.4764   11077105.32545   3046478.00844                  24997564.3944
        11.2504          4.2504
  21644550.9134     254160.61848    210990.92646                  21644550.4444
        30.0004         25.5004
  23962118.4134    9900980.87646   7208778.91845                  23962119.1044
        17.7504          8.7504
 98  7  8 21 18 15.0030000  0  8G 6G 3G21G17G 1G22G23G26
  23748371.1164   20584080.79146  16032478.61045                  23748373.1084
        17.7504         10.0004
  23744721.6554   -5725968.18746  -4367777.42645                  23744722.5694
        17.5004         10.0004
  22975666.2414   -7461755.75747  -5710091.09946                  22975667.1444
        25.0004         19.2504
  21892629.4684    8081820.30248   6296033.18147                  21892629.7374
        31.0004         31.2504
  25297932.5304     -30503.07345
         7.5004
  25007288.0774   11128219.51845   3086307.18844                  25007290.9834
        11.2504          4.2504
  21648917.1164     277106.07448    228870.50847                  21648916.6834
        30.2504         25.7504
  23972622.6714    9956182.99346   7251793.54145                  23972623.3864
        17.2504          9.2504
 98  7  8 21 18 30.0030000  0  8G 6G 3G21G17G 1G22G23G26
  23762219.6794   20656853.70446  16089184.70045                  23762221.6364
        17.2504          9.7504
  23740874.3044   -5746186.12146  -4383531.62745                  23740875.1834
        17.7504         10.0004
  22974504.9524   -7467859.57747  -5714847.28646                  22974505.9014
        25.2504         19.7504
  21899147.4684    8116072.15548   6322722.93547                  21899147.6674
        31.0004         31.7504
  25291712.6554     -63188.25245
         7.5004
  25017028.4214   11179404.30845   3126191.37444                  25017031.0694
        11.0004          3.7504
  21653301.5464     300144.86248    246822.81646                  21653301.3004
        30.2504         25.5004
  23983149.8044   10011502.81846   7294899.88745                  23983150.8474
        17.5004          8.7504
 98  7  8 21 18 45.0030000  0  8G 6G 3G21G17G 1G22G23G26
  23776081.1714   20729699.05946  16145947.24245                  23776083.0694
        17.0004          9.2504
  23737044.1874   -5766311.59146  -4399213.78845                  23737044.8314
        17.7504         10.5004
  22973357.4524   -7473887.63147  -5719544.43946                  22973358.1554
        25.2504         19.7504
  21905677.3744    8150387.83948   6349462.42647                  21905677.6084
        31.0004         31.5004
  25285492.9684     -95873.49845
         8.0004
  25026781.3514   11230658.02945   3166129.26644                  25026784.5854
        11.2504          4.2504
  21657703.4684     323277.02548    264847.88246                  21657703.0224
        30.5004         25.5004
  23993699.2264   10066941.78746   7338099.07745                  23993700.1044
        16.7504          8.5004
 98  7  8 21 19  0.0030000  0  8G 6G 3G21G17G 1G22G23G26
  23789957.5464   20802618.96446  16202767.87345                  23789959.7964
        16.7504          9.0004
  23733232.3664   -5786343.83846  -4414823.29045                  23733233.3744
        18.0004         10.2504
  22972224.5384   -7479842.02447  -5724184.19246                  22972225.1944
        25.7504         19.5004
  21912219.4444    8184765.78748   6376250.43247                  21912219.8194
        31.2504         31.7504
  25579064.8124    -128558.20344     -1696.31552                  25579073.1834
         7.2504          1.7504
  25036548.0074   11281978.53545   3206119.20944                  25036551.2764
        11.0004          4.0004
  21662123.2494     346503.51048    282946.44846                  21662122.8514
        30.2504         25.2504
  24004271.7654   10122502.65746   7381393.24245                  24004272.5154
        17.0004          8.2504
 98  7  8 21 19 15.0030000  0  8G 6G 3G21G17G 1G22G23G26
  23803847.4604   20875611.92946  16259645.42945                  23803849.5584
        16.2504          8.7504
  23729438.1014   -5806283.99046  -4430361.03945                  23729439.3544
        17.5004         10.0004
  22971105.6324   -7485722.57847  -5728766.40446                  22971106.4174
        25.7504         20.0004
  21918773.2184    8219206.59148   6403087.41747                  21918773.5584
        31.2504         31.5004
  25572846.1084    -161240.37444    -27162.73843                  25572854.0464
         7.2504          2.5004
  25046327.0384   11333368.82545   3246163.51544                  25046329.7924
        11.0004          4.2504
  21666560.5154     369821.71048    301116.48446                  21666559.9874
        30.0004         25.2504
  24014868.6634   10178185.68746   7424782.60845                  24014869.7064
        17.7504          8.2504
 98  7  8 21 19 30.0030000  0  8G 6G 3G21G17G 1G22G23G26
  23817751.0624   20948673.32446  16316576.31645                  23817753.7334
        16.0004          8.7504
  23725659.4914   -5826138.33646  -4445831.91945                  23725660.6984
        18.2504         10.5004
  22969999.7884   -7491531.89847  -5733293.10846                  22970000.3394
        26.0004         20.2504
  21925339.5304    8253713.01648   6429975.54047                  21925339.8004
        31.0004         31.7504
  25566627.3354    -193919.01844    -52626.47942                  25566633.8624
         7.2504          1.5004
  25056119.0774   11384829.01545   3286262.30744                  25056122.7454
        11.2504          3.7504
  21671014.3514     393227.37548    319354.67447                  21671013.8944
        30.2504         26.0004
  24025487.2024   10233990.01646   7468266.50945                  24025488.2334
        16.7504          8.5004
 98  7  8 21 19 45.0030000  0  8G 6G 3G21G17G 1G22G23G26
  23831667.0384   21021801.66146  16373559.35045                  23831669.3584
        16.2504          9.0004
  23721897.2414   -5845908.37046  -4461237.11945                  23721898.3194
        18.2504         10.2504
  22968908.2724   -7497267.93247  -5737762.71546                  22968909.0344
        25.7504         20.2504
  21931919.0544    8288287.50448   6456916.69847                  21931919.3354
        31.0004         31.5004
  25560409.5854    -226595.14145    -78088.24442                  25560417.5344
         7.5004          2.0004
  25065925.5074   11436361.69345   3326417.57145                  25065929.1284
        11.0004          4.5004
  21675485.3974     416721.85948    337662.07147                  21675484.9174
        30.2504         26.0004
  24036130.0694   10289916.48846   7511845.56645                  24036131.0194
        17.0004          8.0004
 98  7  8 21 20  0.0030000  0  8G 6G 3G21G17G 1G22G23G26
  23845595.3274   21094994.96446  16430593.01845                  23845597.8004
        16.2504          9.0004
  23718151.5384   -5865593.65846  -4476576.27945                  23718152.2294
        18.0004         10.5004
  22967831.1404   -7502928.67147  -5742173.64746                  22967831.7844
        26.0004         20.0004
  21938511.8904    8322932.42948   6483912.73847                  21938512.1714
        31.5004         31.5004
  25554191.0934    -259268.63244   -103547.87242                  25554202.0194
         6.7504          2.0004
  25075746.9374   11487968.89645   3366630.89644                  25075751.0974
        11.0004          4.0004
  21679973.3904     440306.75248    356039.91747                  21679973.0384
        29.7504         25.7504
  24046796.2654   10345964.78446   7555519.55545                  24046796.9684
        17.0004          8.0004
 98  7  8 21 20 15.0030000  0  8G 6G 3G21G17G 1G22G23G26
  23859535.8664   21168252.45246  16487676.70345                  23859538.2804
        16.2504          8.7504
  23714421.7264   -5885192.60446  -4491848.13545                  23714422.5694
        18.2504         10.7504
  22966768.6944   -7508511.54647  -5746523.90646                  22966769.3744
        26.0004         20.2504
  21945117.5224    8357646.23748   6510962.45347                  21945117.8154
        31.5004         32.0004
  25547974.9444    -291937.62245   -129004.10642                  25547983.0114
         7.5004          1.7504
  25085581.4374   11539652.72345   3406903.94744                  25085585.3044
        10.5004          4.2504
  21684479.3044     463985.11648    374490.59747                  21684478.9874
        30.0004         26.0004
  24057484.0854   10402133.39546   7599287.28745                  24057484.6714
        17.2504          8.2504
 98  7  8 21 20 30.0030000  0  8G 6G 3G21G17G 1G22G23G26
  23873488.2024   21241574.77646  16544810.89545                  23873490.3584
        16.0004          8.2504
  23710708.7574   -5904707.85146  -4507054.79645                  23710709.6014
        19.5004         10.5004
  22965720.7724   -7514017.88047  -5750814.52146                  22965721.5814
        25.7504         20.2504
  21951736.6474    8392429.96648   6538066.65447                  21951736.8704
        31.2504         32.0004
  25541758.2574    -324605.33744   -154459.25542                  25541767.9644
         7.0004          2.0004
  25095430.7574   11591412.92345   3447236.52044                  25095433.4764
        10.5004          3.7504
  21689001.8354     487751.64548    393009.97947                  21689001.5304
        30.0004         25.7504
  24068195.3584   10458422.27346   7643148.76245                  24068196.5074
        16.2504          8.0004
 98  7  8 21 20 45.0030000  0  8G 6G 3G21G17G 1G22G23G26
  23887454.2184   21314963.96246  16601997.20745                  23887455.7764
        16.0004          7.5004
  23707009.8904   -5924144.22146  -4522199.99045                  23707010.6514
        19.5004         10.5004
  22964687.0304   -7519450.81347  -5755047.93946                  22964687.7104
        25.7504         20.2504
  21958369.2654    8427284.12148   6565225.73047                  21958369.5814
        31.5004         32.2504
  25535541.4374    -357275.88745   -179916.68142                  25535551.0034
         7.7504          1.7504
  25105294.6554   11643247.18345   3487626.77144                  25105298.6514
        10.2504          3.7504
  21693541.2024     511605.68148    411597.54947                  21693540.9914
        30.0004         25.7504
  24078931.1474   10514835.65346   7687107.23045                  24078932.2614
        17.2504          7.7504
 98  7  8 21 21  0.0030000  0  8G 6G 3G21G17G 1G22G23G26
  23901432.5074   21388421.23046  16659236.55345                  23901435.0734
        15.7504          7.7504
  23703325.2804   -5943504.25046  -4537285.70345                  23703325.8784
        18.7504         10.5004
  22963666.6404   -7524813.13647  -5759226.33646                  22963667.3544
        26.0004         20.0004
  21965015.0694    8462207.90448   6592439.06547                  21965015.3274
        31.7504         32.0004
  25529323.6474    -389950.41945   -205377.17142                  25529332.6984
         7.7504          2.0004
  25115172.4914   11695155.06645   3528074.40144                  25115176.3004
        10.2504          4.0004
  21698096.8904     535546.68948    430252.88846                  21698096.5854
        29.7504         25.5004
  24089689.5384   10571372.41146   7731161.82345                  24089690.0544
        17.0004          7.7504
 98  7  8 21 21 15.0030000  0  8G 6G 3G21G17G 1G22G23G26
  23915423.5384   21461944.46146  16716527.30945                  23915425.9174
        15.7504          7.5004
  23699656.1634   -5962788.64946  -4552312.47545                  23699657.0894
        18.7504         11.0004
  22962660.1874   -7530102.04647  -5763347.53246                  22962660.7614
        26.2504         20.5004
  21971674.0154    8497202.25648   6619707.38547                  21971674.3904
        31.0004         32.0004
  25523105.3434    -422626.59645   -230838.96642                  25523112.8704
         7.7504          2.0004
  25125065.8274   11747139.93745   3568582.02644                  25125069.1554
        10.7504          4.0004
  21702669.0544     559573.91648    448975.41046                  21702668.8904
        29.5004         25.2504
  24100470.3744   10628028.61546   7775309.50245                  24100471.3234
        17.2504          8.2504
 98  7  8 21 21 30.0030000  0  8G 6G 3G21G17G 1G22G23G26
  23929426.9834   21535532.78246  16773868.76945                  23929429.3514
        15.5004          7.7504
  23696000.4834   -5981998.33746  -4567281.02145                  23696001.2454
        19.5004         10.5004
  22961667.7494   -7535316.17247  -5767410.44646                  22961668.5934
        26.0004         20.2504
  21978347.2804    8532270.05148   6647032.93747                  21978347.7264
        31.0004         31.7504
  25516886.9994    -455304.16844   -256301.82142                  25516895.6284
         7.2504          2.2504
  25134972.7804   11799201.45145   3609149.35244                  25134974.8784
        11.0004          4.2504
  21707257.8824     583688.09248    467765.68846                  21707257.7534
        29.5004         25.5004
  24111274.4834   10684802.17246   7819548.63245                  24111275.1874
        16.5004          8.2504
 98  7  8 21 21 45.0030000  0  8G 6G 3G21G17G 1G22G23G26
  23943442.1794   21609185.72246  16831260.59545                  23943444.2654
        15.2504          7.5004
  23692359.7574   -6001132.10946  -4582190.42645                  23692360.2964
        19.7504         11.2504
  22960689.5304   -7540457.14547  -5771416.37746                  22960689.8824
        26.2504         20.2504
  21985033.9444    8567409.14648   6674414.04447                  21985034.3314
        31.2504         32.2504
  25510667.8044    -487984.31045   -281766.67942                  25510675.2844
         8.2504          2.2504
  25144893.5384   11851335.83545   3649773.47944                  25144896.0464
        10.7504          4.2504
  21711863.3354     607889.77848    486624.15046                  21711863.0894
        29.5004         25.5004
  24122100.3514   10741691.57446   7863878.02645                  24122101.3704
        17.2504          8.2504
 98  7  8 21 22  0.0030000  0  8G 6G 3G21G17G 1G22G23G26
  23957471.7334   21682906.36046  16888705.17245                  23957473.9374
        15.2504          7.0004
  23688733.5304   -6020184.53546  -4597036.43545                  23688733.9874
        19.5004         11.2504
  22959725.5224   -7545523.56447  -5775364.19746                  22959726.0734
        26.2504         20.5004
  21991733.3434    8602615.76848   6701847.77147                  21991733.8234
        30.7504         31.5004
  25504448.7414    -520664.87445   -307231.87043                  25504456.3154
         8.7504          2.5004
  25154827.6874   11903543.45745   3690454.67644                  25154831.0034
        10.0004          3.5004
  21716485.6874     632180.57248    505552.05546                  21716485.4874
        29.5004         25.5004
  24132947.7964   10798697.55146   7908298.26045                  24132948.1244
        16.7504          7.7504
 98  7  8 21 22 15.0030000  0  8G 6G 3G21G17G 1G22G23G26
  23971513.4524   21756696.69946  16946204.04345                  23971515.6084
        15.5004          7.2504
  23685124.3664   -6039153.65146  -4611817.53745                  23685124.7534
        19.7504         11.0004
  22958775.7884   -7550514.10947  -5779252.91046                  22958776.2334
        26.0004         20.2504
  21998445.8514    8637889.14448   6729333.51447                  21998446.3434
        30.5004         31.5004
  25498230.3664    -553340.92445   -332693.60243                  25498237.7534
         8.2504          2.5004
  25164777.1794   11955821.54245   3731190.78044                  25164779.7454
        11.0004          4.2504
  21721124.5074     656558.55748    524547.89547                  21721124.3664
        29.2504         25.7504
  24143818.6164   10855822.17446   7952810.93645                  24143819.0384
        17.2504          8.0004
 98  7  8 21 22 30.0030000  0  8G 6G 3G21G17G 1G22G23G26
  23985568.9054   21830556.50446  17003757.05745                  23985571.1554
        15.5004          7.0004
  23681530.5774   -6058039.81947  -4626533.99345                  23681531.1634
        20.2504         11.2504
  22957840.4294   -7555429.56047  -5783083.09946                  22957840.8394
        26.2504         20.2504
  22005170.8664    8673229.12648   6756871.15747                  22005171.3824
        30.7504         31.5004
  25492013.8274    -586010.80645   -358150.48342                  25492022.5384
         7.7504          2.0004
  25174738.1404   12008168.01945   3771980.17144                  25174740.4724
        11.0004          3.7504
  21725779.7654     681022.64248    543610.82747                  21725779.3664
        29.2504         25.7504
  24154712.3974   10913067.32146   7997417.54945                  24154713.1944
        16.5004          7.7504
 98  7  8 21 22 45.0030000  0  8G 6G 3G21G17G 1G22G23G26
  23999636.3744   21904482.35346  17061361.55045                  23999638.5194
        15.5004          7.5004
  23677952.3514   -6076842.81847  -4641185.64645                  23677952.7614
        20.5004         11.5004
  22956918.5624   -7560272.76847  -5786856.99846                  22956918.9254
        26.0004         20.5004
  22011908.6244    8708636.57248   6784461.36947                  22011909.1634
        31.0004         32.0004
  25485797.6554    -618674.18545   -383602.32342                  25485806.4014
         8.2504          2.2504
  25184711.4914   12060580.54745   3812821.04044                  25184714.1984
        11.0004          4.0004
  21730452.0304     705574.75448    562742.35546                  21730451.7964
        29.5004         25.5004
  24165629.2334   10970435.36546   8042119.89545                  24165629.7024
        17.5004          8.5004
 98  7  8 21 23  0.0030000  0  8G 6G 3G21G17G 1G22G23G26
  24013715.8514   21978470.60646  17119014.64845                  24013718.2534
        15.5004          7.7504
  23674390.8824   -6095559.40047  -4655769.96945                  23674391.5854
        20.5004         11.5004
  22956010.6084   -7565044.35247  -5790575.08046                  22956011.0774
        26.0004         20.2504
  22018658.9834    8744109.72048   6812102.77647                  22018659.5584
        30.7504         32.0004
  25479583.9054    -651327.76745   -409046.48343                  25479592.3234
         8.5004          2.5004
  25194697.6794   12113057.75845   3853712.30644                  25194700.5154
        10.7504          3.7504
  21735141.4214     730217.78348    581944.72446                  21735141.0584
        29.7504         25.2504
  24176568.5304   11027922.37046   8086914.96245                  24176569.2804
        17.5004          8.5004
 98  7  8 21 23 15.0030000  0  8G 6G 3G21G17G 1G22G23G26
  24027807.5694   22052521.22446  17176716.35245                  24027809.5384
        15.5004          7.2504
  23670846.6794   -6114182.31347  -4670281.29145                  23670847.1474
        20.2504         11.7504
  22955117.4604   -7569738.51947  -5794232.84646                  22955118.0224
        25.7504         20.2504
  22025422.2264    8779650.98248   6839797.26347                  22025422.7294
        31.0004         32.2504
  25473373.0224    -683965.98845   -434478.69043                  25473381.7334
         9.0004          2.7504
  25204696.4914   12165601.04545   3894655.03444                  25204700.0544
        10.7504          4.2504
  21739848.6324     754953.90648    601219.63446                  21739848.2334
        29.7504         25.0004
  24187530.3124   11085528.47946   8131802.83045                  24187530.5934
        17.2504          7.7504
 98  7  8 21 23 30.0030000  0  8G 6G 3G21G17G 1G22G23G26
  24041910.9444   22126633.74846  17234466.29045                  24041912.8084
        16.2504          7.7504
  23667320.5304   -6132710.64346  -4684718.91745                  23667321.1754
        19.7504         11.7504
  22954239.0694   -7574353.54647  -5797828.94146                  22954239.6554
        25.7504         20.5004
  22032198.6474    8815260.71548   6867545.10047                  22032199.0934
        31.0004         31.5004
  25467165.3664    -716587.37245   -459897.84143                  25467170.8394
         8.7504          2.5004
  25214707.3354   12218206.39045   3935646.14744                  25214710.9564
        10.7504          4.0004
  21744573.5694     779784.07448    620567.82446                  21744573.2654
        30.0004         25.5004
  24198515.0074   11143255.13746   8176784.62045                  24198515.6634
        16.7504          7.5004
 98  7  8 21 23 45.0030000  0  8G 6G 3G21G17G 1G22G23G26
  24056026.2964   22200809.51046  17292265.49545                  24056027.8904
        16.7504          8.0004
  23663813.9214   -6151140.55347  -4699079.85046                  23663814.2724
        20.2504         12.0004
  22953376.2184   -7578888.04847  -5801362.28846                  22953376.8624
        25.7504         20.7504
  22038987.4134    8850938.14148   6895345.68547                  22038987.9874
        30.5004         30.7504
  25460960.3194    -749192.30645   -485304.09242                  25460965.5464
         8.2504          2.2504
  25224729.0074   12270873.64045   3976685.50044                  25224731.9254
        10.7504          4.2504
  21749317.0934     804710.40948    639990.95446                  21749316.8584
        30.0004         25.5004
  24209523.5624   11201105.97646   8221863.21245                  24209524.0894
        16.5004          8.2504
 98  7  8 21 24  0.0030000  0  8G 6G 3G21G17G 1G22G23G26
  24070153.5464   22275051.02246  17350115.93845                  24070154.9874
        16.5004          8.0004
  23660325.8124   -6169468.94147  -4713361.67246                  23660326.3154
        20.2504         12.0004
  22952528.9604   -7583339.01647  -5804830.55046                  22952529.6284
        25.7504         20.7504
  22045789.3354    8886680.64448   6923196.98347                  22045789.9684
        31.0004         31.2504
  25454758.2884    -781780.49045   -510697.31142                  25454763.7724
         8.2504          2.2504
  25234762.6944   12323601.76145   4017772.26844                  25234765.6944
        10.2504          3.5004
  21754078.4834     829732.55548    659488.73947                  21754078.1084
        29.7504         25.7504
  24220556.5154   11259081.65746   8267039.05045                  24220557.2764
        16.5004          7.7504
 98  7  8 21 24 15.0030000  0  8G 6G 3G21G17G 1G22G23G26
  24084294.1324   22349356.84746  17408016.49945                  24084295.8434
        16.5004          8.0004
  23656856.7574   -6187698.85046  -4727566.76446                  23656857.3084
        19.5004         12.5004
  22951697.5774   -7587708.62047  -5808235.40446                  22951698.2224
        25.7504         20.2504
  22052603.5624    8922489.08748   6951099.65847                  22052603.9954
        31.2504         31.5004
  25448559.3904    -814354.85745   -536079.78742                  25448564.4054
         8.5004          2.0004
  25244807.8274   12376389.30745   4058905.36144                  25244810.9914
        10.2504          4.0004
  21758857.9054     854848.27348    679059.43546                  21758857.5894
        30.0004         25.5004
  24231612.3584   11317179.86546   8312310.36445                  24231613.0854
        17.5004          8.0004
 98  7  8 21 24 30.0030000  0  8G 6G 3G21G17G 1G22G23G26
  24098446.4294   22423727.71546  17465967.74145                  24098448.6084
        15.7504          7.5004
  23653406.5694   -6205830.92247  -4741695.60146                  23653407.0034
        20.0004         12.5004
  22950881.0854   -7591998.71847  -5811578.30946                  22950881.7654
        26.2504         21.0004
  22059431.3664    8958369.62948   6979058.51947                  22059431.7414
        31.2504         31.2504
  25442364.1014    -846913.47445   -561450.00643                  25442368.6594
         8.2504          2.7504
  25254864.9834   12429238.55245   4100086.52544                  25254869.5424
        10.0004          3.7504
  21763655.5304     880060.28148    698705.16546                  21763655.2374
        29.7504         25.5004
  24242691.2724   11375401.80246   8357678.10745                  24242691.6014
        17.0004          7.7504
 98  7  8 21 24 45.0030000  0  8G 6G 3G21G17G 1G22G23G26
  24112610.5074   22498160.96846  17523967.59345                  24112612.5344
        15.7504          7.5004
  23649975.2184   -6223864.70547  -4755747.86246                  23649975.8044
        21.2504         12.5004
  22950079.5544   -7596212.76547  -5814861.94946                  22950080.1514
        26.0004         20.7504
  22066272.6404    8994320.18948   7007071.93847                  22066272.9914
        31.5004         31.5004
  25436171.4764    -879458.51445   -586809.65943                  25436176.1284
         9.0004          2.5004
  25264933.4524   12482151.49645   4141317.30444                  25264937.0974
        10.0004          4.0004
  21768471.8584     905370.39548    718427.33446                  21768471.5194
        29.7504         25.2504
  24253793.6554   11433744.74946   8403140.14045                  24253794.1014
        16.5004          7.7504
 98  7  8 21 25  0.0030000  0  8G 6G 3G21G17G 1G22G23G26
  24126786.3824   22572658.63946  17582017.63945                  24126788.4564
        15.5004          7.7504
  23646561.6244   -6241798.53046  -4769722.23746                  23646561.8354
        19.5004         12.5004
  22949291.6944   -7600350.29847  -5818085.97146                  22949292.1404
        26.2504         20.7504
  22073127.1714    9030340.93748   7035140.04747                  22073127.4874
        31.0004         31.0004
  25429980.1084    -911991.57745   -612159.92543                  25429987.2844
         8.5004          2.7504
  25275015.1554   12535127.87045   4182597.52244                  25275018.3194
        10.0004          3.7504
  21773306.3434     930775.51248    738223.53947                  21773306.0974
        29.7504         25.7504
  24264918.0854   11492203.85746   8448692.69045                  24264918.4014
        16.5004          7.7504
 98  7  8 21 25 15.0030000  0  8G 6G 3G21G17G 1G22G23G26
  24140975.5854   22647222.49946  17640119.26545                  24140977.9174
        15.5004          8.0004
  23643167.9764   -6259634.38346  -4783620.27446                  23643168.7264
        19.7504         12.2504
  22948518.6874   -7604412.49047  -5821251.28946                  22948519.2374
        26.2504         21.2504
  22079994.8824    9066431.66748   7063262.69047                  22079995.2334
        31.0004         31.2504
  25423791.1084    -944513.97145   -637501.91843                  25423798.3904
         8.7504          2.5004
  25285108.4834   12588166.72645   4223926.44343                  25285111.3904
        10.2504          3.2504
  21778158.1164     956271.35848    758090.44047                  21778157.7414
        29.5004         26.0004
  24276064.7724   11550778.19846   8494335.04245                  24276065.7104
        17.0004          7.5004
 98  7  8 21 25 30.0030000  0  8G 6G 3G21G17G 1G22G23G26
  24155177.2724   22721854.25546  17698273.79345                  24155179.6514
        15.5004          7.7504
  23639791.1874   -6277378.60547  -4797446.89646                  23639791.8544
        20.5004         12.0004
  22947760.4134   -7608398.87647  -5824357.53246                  22947761.0114
        26.7504         22.2504
  22086876.1404    9102592.73248   7091440.13847                  22086876.4794
        30.7504         31.0004
  25417604.0624    -977028.47645   -662837.73742                  25417611.5424
         8.5004          2.2504
  25295213.2414   12641269.31445   4265304.98244                  25295215.1634
        10.0004          3.5004
  21783026.3584     981855.09648    778025.83046                  21783026.1364
        29.5004         25.5004
  24287233.5624   11609470.19946   8540069.04845                  24287234.0544
        16.5004          7.5004
 98  7  8 21 25 45.0030000  0  8G 6G 3G21G17G 1G22G23G26
  24169392.8124   22796555.22546  17756482.24945                  24169395.5194
        15.0004          7.2504
  23636431.1084   -6295033.14047  -4811203.64646                  23636431.7764
        20.0004         12.7504
  22947015.4994   -7612312.24447  -5827406.87846                  22947015.9444
        26.7504         21.7504
  22093770.8664    9138825.10648   7119673.15347                  22093771.1944
        31.5004         30.5004
  25411416.6244   -1009538.20745   -688169.85242                  25411424.4334
         8.7504          2.2504
  25305331.4684   12694438.66345   4306735.57344                  25305334.2454
        10.2504          4.2504
  21787911.4054    1007526.11048    798029.22347                  21787911.2064
        29.2504         25.7504
  24298423.8904   11668279.70846   8585894.64545                  24298424.6404
        16.5004          8.0004
 98  7  8 21 26  0.0030000  0  8G 6G 3G21G17G 1G22G23G26
  24183621.3744   22871327.85746  17814746.56245                  24183623.6714
        15.0004          8.0004
  23633089.2104   -6312595.86146  -4824888.85046                  23633089.8664
        19.2504         12.5004
  22946284.4374   -7616154.57847  -5830400.87446                  22946285.0464
        26.7504         22.0004
  22100680.0154    9175132.61848   7147964.71047                  22100680.4954
        31.2504         31.2504
  25405231.8904   -1042044.43545   -713499.25743                  25405239.0774
         9.2504          3.0004
  25315462.5074   12747676.99645   4348219.91244                  25315466.5264
        10.2504          3.5004
  21792812.6794    1033283.52048    818099.94646                  21792812.4444
        29.2504         25.2504
  24309637.2804   11727206.26246   8631811.43145                  24309638.0774
        16.5004          8.0004
 98  7  8 21 26 15.0030000  0  8G 6G 3G21G17G 1G22G23G26
  24197863.5544   22946169.72146  17873064.80545                  24197866.3544
        14.2504          7.2504
  23629764.1404   -6330070.49647  -4838505.40546                  23629765.1594
        20.5004         13.0004
  22945566.0544   -7619929.48047  -5833342.31846                  22945566.6284
        26.5004         21.5004
  22107603.3904    9211515.75248   7176315.19747                  22107603.6834
        31.5004         31.2504
  25399046.8514   -1074546.03045   -738825.02843                  25399054.4604
         9.2504          2.7504
  25325606.4604   12800984.24345   4389757.97343                  25325610.3154
        10.0004          3.2504
  21797729.9444    1059123.51448    838235.01546                  21797729.6754
        29.0004         25.5004
  24320872.0544   11786246.45946   8677816.78745                  24320872.9444
        16.7504          7.7504
 98  7  8 21 26 30.0030000  0  8G 6G 3G21G17G 1G22G23G26
  24212117.8434   23021076.33946  17931433.50445                  24212120.6084
        14.5004          7.5004
  23626454.9764   -6347456.47946  -4852052.89146                  23626455.7964
        19.5004         12.5004
  22944859.8044   -7623639.81947  -5836233.46546                  22944860.2264
        26.7504         22.0004
  22114542.0544    9247976.68148   7204726.31147                  22114542.3354
        31.2504         30.7504
  25392863.1554   -1107041.67345   -764146.16243                  25392870.6474
         9.2504          3.2504
  25335763.1874   12854361.27745   4431350.37544                  25335767.2064
         9.2504          3.5004
  21802662.4604    1085044.17848    858432.94446                  21802662.2724
        29.0004         25.0004
  24332129.6714   11845399.04346   8723909.69945                  24332130.5264
        17.7504          8.0004
 98  7  8 21 26 45.0030000  0  8G 6G 3G21G17G 1G22G23G26
  24226384.6714   23096047.26846  17989852.31845                  24226387.4604
        14.7504          7.7504
  23623164.6084   -6364750.57346  -4865528.78246                  23623165.4644
        19.0004         12.5004
  22944166.9134   -7627280.04247  -5839069.97546                  22944167.3824
        26.2504         21.5004
  22121494.6164    9284515.03048   7233197.74447                  22121494.9794
        31.0004         31.2504
  25386680.6944   -1139529.95345   -789461.58143                  25386687.0814
         9.0004          2.7504
  25345934.4994   12907809.96145   4472998.63044                  25345939.6324
         9.7504          3.5004
  21807610.7264    1111048.02948    878695.69446                  21807610.6084
        29.0004         24.7504
  24343407.5934   11904666.40946   8770092.06545                  24343408.1444
        16.7504          7.7504
 98  7  8 21 27  0.0030000  0  8G 6G 3G21G17G 1G22G23G26
  24240664.4294   23171090.17546  18048327.22345                  24240667.0194
        14.0004          7.5004
  23619893.0464   -6381943.44447  -4878925.78046                  23619893.8084
        20.5004         12.7504
  22943489.9054   -7630838.86847  -5841843.05646                  22943490.2924
        26.5004         21.2504
  22128463.9294    9321137.35148   7261734.61447                  22128464.2104
        31.7504         31.5004
  25380500.6084   -1172004.18445   -814766.04343                  25380504.2884
         8.2504          2.7504
  25356121.1164   12961338.82445   4514709.35544                  25356125.1014
         9.5004          3.5004
  21812576.4374    1137142.19448    899028.82446                  21812576.2494
        29.0004         25.2504
  24354708.6164   11964056.44246   8816369.99145                  24354709.7294
        16.5004          7.5004
 98  7  8 21 27 15.0030000  0  8G 6G 3G21G17G 1G22G23G26
  24254956.5464   23246195.39446  18106850.67345                  24254959.3004
        13.7504          7.2504
  23616637.5304   -6399047.23646  -4892253.39046                  23616638.4334
        19.5004         12.5004
  22942826.3664   -7634325.32247  -5844559.74446                  22942826.8704
        26.7504         22.0004
  22135447.2724    9357835.21248   7290330.34547                  22135447.5304
        31.7504         31.2504
  25374321.9764   -1204473.42245   -840066.58942                  25374326.6044
         8.2504          2.2504
  25366320.1874   13014936.81145   4556473.94244                  25366324.4764
         9.7504          3.5004
  21817557.6324    1163318.97848    919426.32446                  21817557.4794
        28.7504         25.0004
  24366031.7884   12023561.81846   8862737.81745                  24366032.5624
        16.5004          7.7504
 98  7  8 21 27 30.0030000  0  8G 6G 3G21G17G 1G22G23G26
  24269258.2964   23321348.06546  18165411.11345                  24269260.8274
        14.0004          7.2504
  23613397.8904   -6416074.55746  -4905521.40046                  23613398.5584
        19.7504         12.7504
  22942174.7104   -7637750.23347  -5847228.47446                  22942175.2024
        26.5004         21.2504
  22142442.5854    9394595.55248   7318974.76147                  22142442.9724
        31.5004         31.0004
  25368141.5464   -1236947.60345   -865371.02943                  25368147.2064
         9.0004          2.5004
  25376530.7334   13068592.27545   4598283.32644                  25376534.2844
         9.5004          3.5004
  21822552.8904    1189569.50548    939881.29446                  21822552.7844
        28.5004         25.0004
  24377375.6084   12083172.65146   8909187.80845                  24377376.8154
        15.5004          7.2504
 98  7  8 21 27 45.0030000  0  8G 6G 3G21G17G 1G22G23G26
  24283569.7334   23396556.38846  18224014.90445                  24283571.4214
        14.0004          6.7504
  23610175.0544   -6433009.73847  -4918717.60646                  23610175.7574
        20.5004         12.7504
  22941536.2104   -7641103.31647  -5849841.23246                  22941536.5854
        26.7504         21.7504
  22149451.1634    9431425.91448   7347673.74047                  22149451.4914
        31.5004         31.2504
  25361963.7024   -1269414.67145   -890669.90543                  25361967.8864
         9.0004          2.5004
  25386753.4994   13122314.23545   4640144.53144                  25386757.6594
         9.0004          3.5004
  21827564.4214    1215905.36348    960402.75046                  21827564.2454
        29.0004         25.0004
  24388740.4444   12142897.18246   8955726.40245                  24388741.6164
        15.0004          7.2504
 98  7  8 21 28  0.0040000  0  8G 6G 3G21G17G 1G22G23G26
  24297893.9574   23471828.27646  18282668.24145                  24297896.1724
        14.2504          6.5004
  23606971.6134   -6449843.04346  -4931834.44246                  23606972.3754
        19.7504         13.0004
  22940912.9654   -7644381.40247  -5852395.55146                  22940913.3634
        26.7504         21.7504
  22156474.1134    9468332.69148   7376432.26447                  22156474.3714
        31.5004         31.2504
  25355788.4184   -1301869.74545   -915959.45343                  25355793.6454
         9.5004          2.5004
  25396989.8714   13176108.78045   4682062.27443                  25396994.1844
         9.0004          3.2504
  21832593.7704    1242334.53548    980996.92346                  21832593.4774
        29.2504         25.2504
  24400128.5824   12202742.04346   9002358.74945                  24400129.4964
        15.5004          7.2504
 98  7  8 21 28 15.0040000  0  8G 6G 3G21G17G 1G22G23G26
  24312227.3874   23547153.10646  18341362.82845                  24312230.1054
        13.7504          6.7504
  23603788.8634   -6466570.06047  -4944868.45846                  23603789.3794
        20.0004         12.7504
  22940303.8874   -7647579.81147  -5854887.78546                  22940304.3914
        26.5004         22.2504
  22163510.9884    9505311.09948   7405246.60547                  22163511.2934
        31.2504         30.7504
  25349616.1684   -1334300.78745   -941230.29443                  25349621.2194
         9.2504          2.7504
  25407239.4654   13229969.21445   4724031.36243                  25407243.1914
         8.7504          3.2504
  21837640.9884    1268857.33348   1001664.04846                  21837640.7544
        29.2504         25.2504
  24411538.2304   12262701.30346   9049080.24345                  24411539.1454
        15.0004          7.5004
 98  7  8 21 28 30.0040000  0  8G 6G 3G21G17G 1G22G23G26
  24326571.9574   23622534.42346  18400101.41545                  24326575.1914
        13.7504          6.2504
  23600626.0124   -6483191.29647  -4957820.04046                  23600626.7854
        20.7504         12.7504
  22939710.9344   -7650697.07947  -5857316.78746                  22939711.4024
        26.7504         22.2504
  22170561.3554    9542361.36648   7434116.93647                  22170561.7774
        31.7504         31.7504
  25343449.5204   -1366707.78045   -966482.34943                  25343452.1914
         9.5004          3.2504
  25417502.0434   13283899.21245   4766054.63043                  25417506.9774
         8.7504          3.0004
  21842706.8244    1295477.84548   1022407.31046                  21842706.5554
        29.2504         25.2504
  24422971.7234   12322780.91246   9095895.52745                  24422972.5314
        15.7504          7.0004
 98  7  8 21 28 45.0040000  0  8G 6G 3G21G17G 1G22G23G26
  24340928.3554   23697976.59046  18458887.44845                  24340931.3444
        13.2504          6.0004
  23597483.6524   -6499704.08047  -4970687.10946                  23597484.3204
        20.2504         13.0004
  22939133.5124   -7653731.30447  -5859681.09046                  22939133.9804
        27.0004         22.2504
  22177625.6524    9579483.49648   7463043.26547                  22177626.0274
        31.7504         31.0004
  25337287.4344   -1399090.97945   -991715.88543                  25337291.5594
         9.2504          2.7504
  25427778.0514   13337898.46145   4808131.94143                  25427781.9774
         8.5004          3.0004
  21847792.1524    1322201.82048   1043231.19646                  21847791.8594
        29.7504         25.0004
  24434428.1994   12382982.55046   9142805.88945                  24434428.8914
        15.5004          7.2504
 98  7  8 21 29  0.0040000  0  8G 6G 3G21G17G 1G22G23G26
  24355296.9184   23773483.29046  18517723.75045                  24355299.9184
        13.5004          6.0004
  23594361.8404   -6516110.20847  -4983471.07546                  23594362.3324
        21.2504         13.0004
  22938571.6214   -7656682.64647  -5861980.80346                  22938571.9024
        26.7504         22.2504
  22184702.8634    9616675.66848   7492024.17447                  22184703.2854
        31.7504         31.2504
  25331129.0124   -1431449.50745  -1016930.22843                  25331133.9694
         9.2504          3.2504
  25438066.5124   13391966.87645   4850263.07843                  25438070.5554
         8.2504          3.2504
  21852897.2774    1349029.69248   1064136.04146                  21852896.8444
        29.7504         25.5004
  24445906.4964   12443305.10746   9189810.47145                  24445906.7194
        15.5004          7.7504
 98  7  8 21 29 15.0040000  0  8G 6G 3G21G17G 1G22G23G26
  24369677.8794   23849055.23946  18576610.88245                  24369680.9024
        13.7504          6.2504
  23591260.1684   -6532409.88547  -4996172.09046                  23591260.6134
        21.2504         13.2504
  22938025.4344   -7659552.43447  -5864216.96746                  22938025.8914
        27.2504         23.0004
  22191793.8404    9653937.19348   7521059.12747                  22191794.0624
        32.0004         31.0004
  25324976.4804   -1463782.90845  -1042124.93943                  25324981.2034
         9.2504          3.0004
  25448368.9344   13446102.11545   4892446.31243                  25448373.9844
         8.2504          2.7504
  21858022.2304    1375960.30448   1085120.93646                  21858021.7384
        30.0004         25.5004
  24457408.5124   12503747.19346   9236908.18045                  24457409.0044
        15.5004          7.0004
 98  7  8 21 29 30.0040000  0  8G 6G 3G21G17G 1G22G23G26
  24384070.3794   23924691.89546  18635548.45245                  24384073.5784
        13.2504          6.5004
  23588178.3794   -6548602.14347  -5008789.40646                  23588179.0944
        20.2504         12.7504
  22937494.4884   -7662342.98647  -5866391.38646                  22937494.9104
        27.0004         23.0004
  22198897.3014    9691266.63448   7550146.99447                  22198897.5824
        32.2504         31.2504
  25318827.7774   -1496090.11545  -1067299.26443                  25318831.7624
         9.5004          3.2504
  25458682.1684   13500298.61445   4934677.25344                  25458686.3524
         8.5004          3.5004
  21863166.0824    1402990.94748   1106183.78347                  21863165.4264
        30.2504         25.7504
  24468931.8484   12564306.32946   9284097.12645                  24468932.2704
        15.0004          6.7504
 98  7  8 21 29 45.0040000  0  8G 6G 3G21G17G 1G22G23G26
  24398476.4104   24000393.11146  18694536.30745                  24398479.9734
        13.2504          5.7504
  23585118.0664   -6564686.09047  -5021322.32446                  23585118.6524
        21.5004         13.5004
  22936978.2854   -7665054.95947  -5868504.57746                  22936978.7304
        26.7504         22.5004
  22206013.5824    9728664.00848   7579287.80147                  22206013.7934
        31.5004         31.0004
  25312685.2774   -1528371.09045  -1092453.16543                  25312689.3324
         9.5004          3.0004
  25469006.6294   13554554.58745   4976954.55243                  25469009.6994
         9.0004          3.2504
  21868327.7544    1430115.90748   1127320.12247                  21868327.2384
        30.0004         26.0004
  24480476.9494   12624979.38646   9331374.81845                  24480477.7704
        14.2504          6.2504
 98  7  8 21 30  0.0040000  0  8G 6G 3G21G17G 1G22G23G26
  24412894.3014   24076160.10746  18753575.43445                  24412897.2074
        13.2504          6.0004
  23582077.6054   -6580661.52547  -5033770.68246                  23582077.8284
        21.0004         13.7504
  22936476.9494   -7667689.45847  -5870557.39846                  22936477.4064
        26.7504         23.2504
  22213143.3404    9766130.68648   7608482.60847                  22213143.6094
        31.7504         30.5004
  25306547.1214   -1560627.23945  -1117587.70543                  25306550.1454
         9.7504          3.2504
  25479342.6214   13608870.56145   5019278.63143                  25479347.0514
         9.0004          3.2504
  21873507.1294    1457334.79048   1148529.64646                  21873506.5664
        30.2504         25.5004
  24492045.2304   12685763.15046   9378738.77745                  24492046.4734
        15.2504          6.7504
 98  7  8 21 30 15.0040000  0  8G 6G 3G21G17G 1G22G23G26
  24427325.3554   24151992.28846  18812665.35445                  24427327.8634
        13.0004          5.5004
  23579057.9964   -6596531.67347  -5046137.00846                  23579058.2074
        21.0004         12.7504
  22935991.0434   -7670244.17347  -5872548.05246                  22935991.5594
        27.2504         23.0004
  22220286.5984    9803668.87548   7637733.14147                  22220286.7734
        31.7504         30.5004
  25300413.0984   -1592858.63345  -1142702.99344                  25300417.6804
         9.7504          3.5004
  25489690.4734   13663246.12445   5061649.10843                  25489695.3714
         9.2504          3.0004
  21878704.1914    1484646.20548   1169811.26846                  21878703.7344
        30.0004         25.5004
  24503631.6914   12746656.37246   9426188.02945                  24503632.3124
        14.2504          6.7504
 98  7  8 21 30 30.0040000  0  8G 6G 3G21G17G 1G22G23G26
  24441767.3634   24227888.31346  18871805.02745                  24441770.0004
        13.0004          5.5004
  23576057.5514   -6612300.05547  -5058424.02946                  23576057.7274
        22.0004         13.5004
  22935519.9964   -7672719.79747  -5874477.07346                  22935520.5824
        27.0004         23.0004
  22227442.9884    9841275.61748   7667037.08747                  22227443.2234
        31.7504         31.0004
  25294283.5514   -1625068.60645  -1167801.56344                  25294287.1374
         9.2504          3.5004
  25500048.4964   13717680.03545   5104065.05943                  25500051.5554
         9.2504          3.0004
  21883918.5664    1512047.28048   1191162.76346                  21883918.1334
        30.0004         25.5004
  24515240.7234   12807658.40646   9473722.06645                  24515241.8014
        15.2504          6.7504
 98  7  8 21 30 45.0040000  0  8G 6G 3G21G17G 1G22G23G26
  24456223.5904   24303850.75746  18930996.45245                  24456226.9414
        13.0004          5.7504
  23573075.7704   -6627964.87347  -5070630.34946                  23573075.9104
        21.0004         13.2504
  22935063.7544   -7675116.80347  -5876344.83446                  22935064.1054
        27.7504         23.2504
  22234612.5664    9878951.94948   7696395.26347                  22234612.8364
        31.7504         31.0004
  25288157.5744   -1657260.22245  -1192885.82443                  25288160.9614
         9.0004          3.2504
  25510417.2704   13772170.84445   5146525.36443                  25510420.5164
         9.2504          3.2504
  21889149.7074    1539536.60648   1212583.02146                  21889149.3204
        30.0004         24.7504
  24526869.2774   12868767.17746   9521339.27845                  24526869.6874
        14.7504          6.5004
 98  7  8 21 31  0.0040000  0  8G 6G 3G21G17G 1G22G23G26
  24470691.0514   24379881.93946  18990241.43845                  24470693.3954
        12.2504          5.2504
  23570116.0984   -6643521.96547  -5082752.73046                  23570116.5664
        21.7504         13.7504
  22934623.7234   -7677429.09547  -5878146.58546                  22934624.0044
        27.5004         23.0004
  22241796.5124    9916703.43248   7725811.99847                  22241796.7704
        31.7504         31.2504
  25282037.0824   -1689430.47945  -1217953.45143                  25282042.0514
        10.0004          3.2504
  25520798.0664   13826720.27045   5189031.33843                  25520801.2774
         9.5004          3.2504
  21894397.8554    1567114.75848   1234072.49546                  21894397.3054
        29.7504         25.0004
  24538518.7464   12929984.87246   9569041.36845                  24538519.7664
        14.7504          6.7504
 98  7  8 21 31 15.0040000  0  8G 6G 3G21G17G 1G22G23G26
  24485171.1374   24455973.39746  19049533.39145                  24485173.9374
        13.0004          5.2504
  23567174.7774   -6658976.29247  -5094795.03246                  23567175.1644
        21.0004         13.0004
  22934198.7074   -7679661.98747  -5879886.47346                  22934198.9774
        27.5004         23.0004
  22248993.9184    9954526.04648   7755284.15547                  22248994.2704
        31.7504         30.7504
  25275918.1914   -1721584.08045  -1243008.10944                  25275922.3524
        10.0004          3.7504
  25531188.3714   13881319.91445   5231576.46144                  25531191.5824
         9.7504          4.0004
  21899660.8634    1594773.23548   1255624.55846                  21899660.3834
        29.5004         25.2504
  24550187.8794   12991307.50146   9616825.22645                  24550188.9104
        15.0004          6.7504
 98  7  8 21 31 30.0040000  0  8G 6G 3G21G17G 1G22G23G26
  24499662.6844   24532127.92746  19108874.48645                  24499665.9884
        13.0004          5.5004
  23564255.3554   -6674319.74147  -5106750.93646                  23564255.7074
        20.5004         13.2504
  22933789.7544   -7681811.26747  -5881561.20446                  22933790.0474
        27.5004         23.2504
  22256206.3554    9992427.99348   7784818.13147                  22256206.6134
        32.2504         31.0004
  25269803.6684   -1753715.40745  -1268045.38743                  25269807.8404
         9.5004          3.2504
  25541589.4494   13935971.87545   5274162.30244                  25541592.9654
        10.2504          4.0004
  21904940.4884    1622518.67748   1277244.38746                  21904940.0554
        29.2504         25.0004
  24561879.3244   13052742.20246   9664696.41245                  24561879.8754
        15.5004          6.7504
 98  7  8 21 31 45.0040000  0  8G 6G 3G21G17G 1G22G23G26
  24514166.0514   24608342.28946  19168262.20545                  24514169.3794
        13.0004          5.2504
  23561355.7854   -6689554.79247  -5118622.36446                  23561356.5824
        21.2504         13.5004
  22933396.0744   -7683880.01547  -5883173.18646                  22933396.2034
        27.5004         24.0004
  22263434.0274   10030409.15048   7814413.83547                  22263434.3554
        31.7504         31.0004
  25263693.3244   -1785825.87345  -1293066.41444                  25263698.0594
        10.5004          3.5004
  25551997.8714   13990675.23345   5316788.23644                  25552001.6334
        10.0004          3.5004
  21910235.9574    1650346.41748   1298928.34646                  21910235.6294
        29.2504         25.2504
  24573588.7774   13114285.37146   9712652.12145                  24573589.4694
        14.2504          6.5004
 98  7  8 21 32  0.0040000  0  8G 6G 3G21G17G 1G22G23G26
  24528680.9414   24684616.42946  19227696.49545                  24528683.5664
        13.0004          5.5004
  23558477.6764   -6704679.08147  -5130407.50146                  23558478.0984
        21.2504         13.7504
  22933018.3094   -7685865.20047  -5884720.05246                  22933018.5904
        27.0004         24.0004
  22270677.0124   10068471.31148   7844072.65447                  22270677.3874
        31.7504         30.7504
  25257585.9574   -1817914.77345  -1318070.64944                  25257589.5084
        10.5004          3.5004
  25562418.8324   14045435.39645   5359458.41244                  25562421.8204
         9.5004          3.5004
  21915548.0354    1678261.72148   1320680.53646                  21915547.6844
        29.2504         24.7504
  24585322.0514   13175938.24046   9760693.30245                  24585322.4964
        15.5004          7.0004
 98  7  8 21 32 15.0040000  0  8G 6G 3G21G17G 1G22G23G26
  24543206.0824   24760948.88246  19287176.22545                  24543209.5624
        13.0004          5.5004
  23555621.1214   -6719692.17747  -5142105.98346                  23555621.6604
        21.5004         13.0004
  22932656.2464   -7687768.40247  -5886203.03546                  22932656.8674
        27.0004         23.7504
  22277935.2854   10106613.65848   7873793.95447                  22277935.5784
        31.5004         30.5004
  25251483.7934   -1849982.36045  -1343058.26844                  25251488.4924
        10.2504          3.5004
  25572849.3874   14100250.39145   5402171.31944                  25572852.7274
        10.0004          3.5004
  21920877.2384    1706267.12748   1342502.93346                  21920876.9104
        29.2504         25.0004
  24597075.9964   13237703.04146   9808821.70045                  24597076.4654
        16.2504          6.5004
 98  7  8 21 32 30.0040000  0  8G 6G 3G21G17G 1G22G23G26
  24557743.2704   24837340.17746  19346701.81245                  24557747.2194
        12.7504          5.0004
  23552784.4654   -6734596.57947  -5153719.78346                  23552784.8524
        21.0004         12.7504
  22932309.4494   -7689590.58147  -5887622.88246                  22932309.8834
        27.2504         23.5004
  22285208.5274   10144834.55748   7903576.46847                  22285208.9024
        31.5004         31.2504
  25245385.5434   -1882029.68545  -1368030.09644                  25245390.2544
        10.7504          3.5004
  25583291.1764   14155117.19145   5444924.57943                  25583294.6564
        10.0004          3.2504
  21926223.0434    1734360.03748   1364393.52146                  21926222.8554
        29.2504         24.7504
  24608850.0744   13299581.22546   9857038.46945                  24608851.2584
        14.7504          7.0004
 98  7  8 21 32 45.0040000  0  8G 6G 3G21G17G 1G22G23G26
  24572291.4344   24913788.95546  19406272.18545                  24572294.4344
        13.2504          5.5004
  23549969.5204   -6749392.08347  -5165248.71546                  23549969.9064
        21.2504         13.0004
  22931977.1524   -7691335.40247  -5888982.45546                  22931977.5164
        27.2504         23.7504
  22292496.4184   10183134.06448   7933420.22947                  22292496.7234
        31.5004         30.2504
  25239290.7624   -1914058.41845  -1392987.44844                  25239294.2424
        11.5004          4.0004
  25593741.3014   14210034.34645   5487717.09143                  25593744.8164
        10.0004          3.0004
  21931585.6294    1762540.18248   1386352.07146                  21931585.3124
        29.0004         25.0004
  24620647.5594   13361573.89246   9905344.41845                  24620649.2114
        15.0004          6.2504
 98  7  8 21 33  0.0040000  0  8G 6G 3G21G17G 1G22G23G26
  24586849.5594   24990293.93546  19465886.33845                  24586852.1954
        13.0004          5.5004
  23547174.4264   -6764080.20147  -5176693.97346                  23547174.8014
        21.7504         13.5004
  22931659.7544   -7693003.77247  -5890282.45046                  22931660.4344
        27.0004         23.7504
  22299800.2774   10221514.92648   7963327.38747                  22299800.5824
        31.7504         30.5004
  25233198.9494   -1946068.06745  -1417929.91144                  25233202.9104
        10.2504          3.5004
  25604200.7304   14264999.59945   5530547.05943                  25604204.5164
        10.0004          3.2504
  21936964.3484    1790805.32448   1408376.86946                  21936964.1254
        29.0004         25.0004
  24632466.5434   13423680.55546   9953739.20145                  24632467.1644
        15.5004          6.2504
 98  7  8 21 33 15.0040000  0  8G 6G 3G21G17G 1G22G23G26
  24601418.5744   25066853.03846  19525542.67645                  24601421.9494
        13.2504          5.7504
  23544398.9574   -6778664.09747  -5188058.02146                  23544399.1684
        21.2504         13.5004
  22931356.0824   -7694597.66147  -5891524.40946                  22931356.4924
        27.2504         24.0004
  22307119.4414   10259977.30248   7993298.06247                  22307119.6764
        31.7504         30.5004
  25227112.4654   -1978055.88145  -1442855.37244                  25227116.2384
        11.0004          3.5004
  25614670.2384   14320015.01245   5573416.16044                  25614674.1874
        10.2504          3.5004
  21942359.4024    1819155.39848   1430467.83746                  21942359.0394
        29.0004         25.2504
  24644306.7074   13485903.82846  10002224.85945                  24644307.5514
        15.2504          6.5004
 98  7  8 21 33 30.0040000  0  8G 6G 3G21G17G 1G22G23G26
  24615997.3634   25143466.16146  19585241.12845                  24616000.2114
        13.2504          5.5004
  23541643.0904   -6793145.37347  -5199342.11046                  23541643.7344
        21.7504         13.5004
  22931066.6684   -7696120.35247  -5892710.89446                  22931067.1484
        27.5004         24.0004
  22314453.7074   10298519.04048   8023330.58047                  22314454.0474
        31.2504         30.2504
  25221029.2934   -2010019.89345  -1467762.30244                  25221032.9374
        11.0004          3.7504
  25625148.4654   14375083.39545   5616326.52044                  25625151.8634
        10.0004          3.7504
  21947770.2934    1847590.92948   1452625.39546                  21947769.9884
        29.2504         24.5004
  24656169.5744   13548242.49846  10050800.43045                  24656170.3484
        15.2504          6.5004
 98  7  8 21 33 45.0040000  0  8G 6G 3G21G17G 1G22G23G26
  24630587.3634   25220135.57546  19644983.40245                  24630590.9144
        13.5004          6.0004
  23538906.9494   -6807524.08647  -5210546.26546                  23538907.4774
        21.7504         14.2504
  22930790.7154   -7697569.24847  -5893839.87446                  22930791.0314
        27.5004         24.2504
  22321802.8244   10337139.45848   8053424.40347                  22321803.0234
        31.2504         29.5004
  25214950.6134   -2041958.44645  -1492649.38344                  25214954.7154
        10.0004          4.0004
  25635639.2074   14430209.16345   5659281.57444                  25635642.8164
        10.0004          3.7504
  21953197.8324    1876112.33548   1474849.86846                  21953197.3524
        29.2504         25.0004
  24668053.5594   13610694.61246  10099464.40245                  24668054.1094
        15.2504          6.7504
 98  7  8 21 34  0.0040000  0  8G 6G 3G21G17G 1G22G23G26
  24645187.9574   25296862.91846  19704770.84545                  24645190.7234
        13.2504          5.7504
  23536190.1134   -6821801.02947  -5221671.13046                  23536190.7464
        21.2504         13.5004
  22930529.8634   -7698941.69347  -5894909.28446                  22930530.0744
        27.7504         24.7504
  22329166.1994   10375834.88248   8083576.67447                  22329166.4804
        30.5004         29.7504
  25208878.8014   -2073872.54045  -1517517.38944                  25208882.7624
        11.2504          3.7504
  25646141.0594   14485395.15345   5702283.58944                  25646144.8444
         9.7504          3.5004
  21958641.3714    1904718.24748   1497140.19346                  21958640.9614
        29.5004         25.2504
  24679959.1604   13673259.56546  10148216.29545                  24679959.3484
        14.7504          6.7504
 98  7  8 21 34 15.0040000  0  8G 6G 3G21G17G 1G22G23G26
  24659799.8794   25373647.29246  19764602.72545                  24659802.4104
        13.5004          6.0004
  23533492.0664   -6835978.82247  -5232718.73146                  23533492.5824
        21.0004         13.5004
  22930282.6684   -7700239.90048  -5895920.84546                  22930282.9494
        28.2504         24.7504
  22336543.2774   10414602.26748   8113785.01847                  22336543.6644
        30.5004         29.0004
  25202809.7934   -2105764.59645  -1542368.23044                  25202814.0004
        11.5004          3.7504
  25656653.9654   14540639.69745   5745331.18144                  25656657.6684
        10.2504          3.5004
  21964100.9344    1933408.23848   1519496.03546                  21964100.3834
        29.5004         25.5004
  24691887.9264   13735940.80546  10197058.81145                  24691889.0744
        16.0004          6.7504
 98  7  8 21 34 30.0040000  0  8G 6G 3G21G17G 1G22G23G26
  24674422.4184   25450488.95746  19824479.22745                  24674425.0784
        13.7504          5.7504
  23530812.5434   -6850060.24847  -5243691.24546                  23530813.0354
        21.7504         14.0004
  22930049.8484   -7701462.80147  -5896873.73246                  22930050.1994
        27.7504         24.7504
  22343933.8634   10453441.10748   8144049.04147                  22343934.3094
        30.2504         29.0004
  25196745.3794   -2137635.54246  -1567202.59344                  25196749.5984
        12.5004          4.2504
  25667176.8954   14595941.29045   5788423.27544                  25667178.7114
         9.7504          3.5004
  21969575.5904    1962178.19248   1541914.17846                  21969575.2274
        29.0004         25.2504
  24703837.6454   13798736.78146  10245990.70845                  24703838.8284
        14.5004          6.2504
 98  7  8 21 34 45.0040000  0  8G 6G 3G21G17G 1G22G23G26
  24689055.4964   25527385.49446  19884398.49945                  24689057.9924
        13.7504          5.7504
  23528151.1844   -6864046.44847  -5254589.55946                  23528151.5824
        21.5004         14.0004
  22929831.1294   -7702613.28048  -5897770.17746                  22929831.1524
        28.5004         24.5004
  22351338.0204   10492350.02448   8174367.67247                  22351338.5004
        29.7504         28.2504
  25190683.1054   -2169485.55646  -1592020.67745                  25190686.8094
        12.7504          4.7504
  25677712.0514   14651301.23745   5831560.82444                  25677716.0824
         9.7504          3.5004
  21975065.3164    1991027.02148   1564393.79147                  21975065.0124
        29.5004         26.0004
  24715806.9964   13861643.25646  10295008.74345                  24715807.9344
        14.2504          6.2504
 98  7  8 21 35  0.0040000  0  8G 6G 3G21G17G 1G22G23G26
  24703698.1454   25604334.64946  19944358.78345                  24703701.1214
        13.2504          5.7504
  23525507.8324   -6877936.08847  -5265412.62946                  23525508.2194
        22.0004         13.7504
  22929626.4654   -7703690.37348  -5898609.44646                  22929626.7114
        28.5004         25.0004
  22358755.4104   10531327.52548   8204739.74047                  22358755.8794
        30.0004         29.0004
  25184626.9884   -2201311.96545  -1616820.37144                  25184629.8484
        11.5004          3.7504
  25688257.7234   14706721.15945   5874745.10444                  25688261.8714
         9.7504          3.5004
  21980570.5664    2019957.35348   1586936.90646                  21980570.2624
        29.5004         25.5004
  24727798.5434   13924658.01046  10344111.11945                  24727799.6334
        14.5004          6.2504
 98  7  8 21 35 15.0040000  0  8G 6G 3G21G17G 1G22G23G26
  24718351.5204   25681338.52246  20004361.70045                  24718354.2384
        13.2504          5.5004
  23522883.2854   -6891727.92247  -5276159.49046                  23522883.8124
        21.0004         14.2504
  22929435.6684   -7704690.60548  -5899388.82146                  22929435.8324
        28.2504         24.7504
  22366185.5664   10570372.59248   8235164.46347                  22366185.9414
        30.0004         29.0004
  25178575.6604   -2233111.98845  -1641599.47344                  25178579.7274
        11.7504          3.7504
  25698816.2934   14762203.56045   5917978.03044                  25698821.1454
        10.2504          3.7504
  21986091.9654    2048971.58548   1609545.40147                  21986091.5904
        29.7504         26.0004
  24739810.0044   13987779.75746  10393296.89345                  24739811.1414
        14.0004          5.5004
 98  7  8 21 35 30.0040000  0  8G 6G 3G21G17G 1G22G23G26
  24733015.2304   25758394.66046  20064405.32245                  24733018.2544
        13.5004          5.2504
  23520278.0824   -6905419.19147  -5286827.97946                  23520278.6804
        22.0004         14.5004
  22929259.8954   -7705614.00548  -5900108.32846                  22929260.0234
        28.0004         24.2504
  22373627.9414   10609482.24548   8265639.50847                  22373628.2934
        30.2504         28.5004
  25172529.1524   -2264885.03845  -1666357.59344                  25172532.1054
        11.0004          4.0004
  25709385.7544   14817748.32745   5961259.59744                  25709390.6054
        10.0004          3.5004
  21991629.6214    2078071.38748   1632220.57846                  21991629.3634
        29.5004         25.2504
  24751841.7154   14051005.10146  10442563.37145                  24751842.6874
        13.5004          6.0004
 98  7  8 21 35 45.0040000  0  8G 6G 3G21G17G 1G22G23G26
  24747688.6374   25835502.86146  20124489.52345                  24747691.6844
        13.7504          5.5004
  23517692.2854   -6919006.03647  -5297415.11346                  23517692.4844
        21.2504         14.5004
  22929099.2624   -7706458.50548  -5900766.35546                  22929099.5084
        28.2504         24.5004
  22381082.6524   10648657.31548   8296165.53147                  22381082.9104
        30.2504         28.2504
  25166488.3324   -2296633.08645  -1691096.20144                  25166491.8834
        11.7504          3.7504
  25719966.6844   14873351.24445   6004586.47844                  25719970.9264
        10.0004          3.5004
  21997183.3954    2107257.68048   1654963.14447                  21997183.0554
        29.2504         25.7504
  24763892.3324   14114331.09246  10491908.27945                  24763893.7034
        13.5004          6.2504
 98  7  8 21 36  0.0040000  0  8G 6G 3G21G17G 1G22G23G26
  24762371.6454   25912660.54346  20184612.28745                  24762374.3524
        13.2504          6.0004
  23515127.4184   -6932487.10547  -5307919.81946                  23515127.8054
        22.5004         14.5004
  22928953.3404   -7707224.51347  -5901363.21846                  22928953.7384
        27.7504         24.2504
  22388549.9804   10687898.19348   8326742.83647                  22388550.3324
        30.2504         28.5004
  25160450.1134   -2328359.94545  -1715818.31244                  25160453.8634
        11.0004          4.2504
  25730558.5434   14929009.18045   6047956.21844                  25730563.2304
        10.0004          3.5004
  22002753.4654    2136528.58248   1677771.64346                  22002753.1374
        29.2504         25.5004
  24775960.8484   14177756.18846  10541330.41545                  24775962.1134
        13.0004          5.7504
 98  7  8 21 36 15.0040000  0  8G 6G 3G21G17G 1G22G23G26
  24777063.0594   25989864.96046  20244771.45445                  24777065.4614
        13.2504          5.7504
  23512582.3094   -6945860.71647  -5318340.78646                  23512582.6134
        21.2504         14.5004
  22928821.4734   -7707915.53547  -5901901.64846                  22928821.8594
        27.7504         24.5004
  22396030.0664   10727206.11248   8357372.37847                  22396030.5594
        30.2504         28.7504
  25154416.8954   -2360067.21045  -1740525.14944                  25154420.3874
        11.5004          3.7504
  25741159.5984   14984717.51045   6091365.22943                  25741163.5594
        10.2504          3.2504
  22008340.0824    2165884.80148   1700646.62346                  22008339.7304
        29.2504         25.2504
  24788050.1054   14241279.58846  10590829.14945                  24788050.9374
        13.2504          6.2504
 98  7  8 21 36 30.0040000  0  8G 6G 3G21G17G 1G22G23G26
  24791763.0664   26067112.63846  20304964.34445                  24791765.6454
        13.2504          5.5004
  23510057.7704   -6959127.09047  -5328678.19246                  23510057.9804
        22.5004         14.7504
  22928704.0204   -7708534.12448  -5902383.63946                  22928704.4534
        28.0004         24.2504
  22403523.4024   10766583.89748   8388056.35747                  22403523.7424
        30.5004         28.5004
  25148386.4184   -2391753.27745  -1765215.48144                  25148391.3164
        10.7504          3.5004
  25751768.8164   15040471.68845   6134809.94843                  25751771.6414
        10.2504          3.2504
  22013942.1214    2195325.53348   1723587.46146                  22013941.7704
        29.2504         25.2504
  24800155.1454   14304895.99446  10640400.36245                  24800155.8484
        12.5004          5.5004
 98  7  8 21 36 45.0040000  0  8G 6G 3G21G17G 1G22G23G26
  24806470.7934   26144404.26446  20365191.48245                  24806473.4774
        13.2504          5.7504
  23507554.0434   -6972281.55747  -5338928.41046                  23507554.3714
        21.2504         14.7504
  22928599.9264   -7709081.34547  -5902810.02146                  22928600.4184
        27.7504         24.5004
  22411030.4734   10806034.92748   8418797.41947                  22411030.8834
        30.2504         28.5004
  25142362.2854   -2423413.99745  -1789886.04144                  25142366.0124
        11.7504          3.7504
  25762387.7464   15096272.02345   6178290.67143                  25762391.7424
         9.7504          3.2504
  22019561.0824    2224853.43348   1746596.22146                  22019560.7774
        29.5004         25.5004
  24812278.1454   14368602.84746  10690042.06345                  24812278.9184
        12.5004          5.2504
 98  7  8 21 37  0.0040000  0  8G 6G 3G21G17G 1G22G23G26
  24821187.3634   26221740.09546  20425453.03845                  24821190.1994
        13.0004          5.2504
  23505073.7074   -6985319.46947  -5349087.79946                  23505073.7894
        23.0004         15.0004
  22928509.7384   -7709555.21947  -5903179.24946                  22928510.1604
        27.7504         24.5004
  22418551.9414   10845559.74848   8449595.97447                  22418552.4104
        29.7504         28.2504
  25136341.4494   -2455048.07445  -1814535.83644                  25136345.3404
        11.2504          3.5004
  25773014.9344   15152118.60145   6221807.38943                  25773019.6214
        10.0004          2.7504
  22025196.9104    2254470.40148   1769674.37947                  22025196.5354
        29.5004         26.0004
  24824419.5124   14432403.08346  10739756.49445                  24824420.1914
        13.7504          6.0004
 98  7  8 21 37 15.0040000  0  8G 6G 3G21G17G 1G22G23G26
  24835912.9024   26299121.49746  20485750.13445                  24835915.2934
        12.7504          5.7504
  23502614.7074   -6998239.85347  -5359155.61346                  23502614.6954
        22.2504         15.0004
  22928433.9264   -7709953.51547  -5903489.58346                  22928434.1844
        27.7504         24.7504
  22426087.8554   10885160.64148   8480453.80647                  22426088.3124
        30.0004         28.0004
  25130327.2624   -2486655.34745  -1839164.74344                  25130330.7074
        11.2504          3.5004
  25783649.8794   15208008.27845   6265357.73543                  25783653.3244
         9.2504          3.0004
  22030849.1134    2284172.89548   1792819.18847                  22030848.7034
        29.2504         25.7504
  24836577.8244   14496298.96346  10789545.48145                  24836578.8914
        13.0004          5.7504
 98  7  8 21 37 30.0040000  0  8G 6G 3G21G17G 1G22G23G26
  24850646.1604   26376546.94645  20546081.54145                  24850649.2074
        11.7504          5.0004
  23500178.8874   -7011042.79747  -5369131.91146                  23500178.9804
        23.0004         15.5004
  22928372.0664   -7710279.28048  -5903743.40246                  22928372.5004
        28.0004         25.5004
  22433638.3484   10924839.18548   8511372.15147                  22433638.7464
        30.2504         28.0004
  25124317.0124   -2518237.26645  -1863773.91344                  25124319.8714
        10.7504          3.5004
  25794293.8404   15263939.38945   6308940.31643                  25794298.0594
         9.2504          3.0004
  22036516.8244    2313956.42348   1816027.14046                  22036516.4614
        29.2504         25.5004
  24848756.0124   14560290.63146  10839409.09545                  24848757.2544
        13.5004          5.5004
 98  7  8 21 37 45.0040000  0  8G 6G 3G21G17G 1G22G23G26
  24865388.2304   26454016.92546  20606447.63045                  24865391.6994
        12.2504          4.7504
  23497764.6054   -7023726.34947  -5379015.17046                  23497764.8874
        22.0004         15.2504
  22928323.4494   -7710534.54048  -5903942.28346                  22928323.8714
        28.0004         25.2504
  22441203.8794   10964597.04248   8542352.29447                  22441204.3714
        29.7504         28.2504
  25118312.7624   -2549794.02346  -1888363.46145                  25118315.1644
        12.0004          4.5004
  25804945.6214   15319912.07745   6352555.34643                  25804948.5394
         9.2504          3.0004
  22042199.6914    2343820.12748   1839297.56946                  22042199.3874
        29.2504         25.5004
  24860950.8484   14624379.93746  10889348.80345                  24860952.1844
        12.2504          5.5004
 98  7  8 21 38  0.0040000  0  8G 6G 3G21G17G 1G22G23G26
  24880138.8484   26531531.53445  20666848.52745                  24880142.1414
        11.7504          5.5004
  23495373.4264   -7036294.35647  -5388808.39946                  23495373.6844
        22.7504         15.2504
  22928287.7774   -7710721.63348  -5904088.04446                  22928288.1874
        28.2504         25.5004
  22448784.0744   11004430.79548   8573391.57847                  22448784.5664
        30.0004         28.5004
  25112310.9884   -2581329.32345  -1912936.32044                  25112314.6564
        11.7504          4.2504
  25815604.1454   15375926.92645   6396203.17543                  25815608.1414
         9.5004          3.2504
  22047896.8714    2373760.13248   1862627.44846                  22047896.5204
        29.0004         25.5004
  24873164.4734   14688566.22246  10939364.06545                  24873165.8674
        12.0004          5.2504
 98  7  8 21 38 15.0040000  0  8G 6G 3G21G17G 1G22G23G26
  24894897.9734   26609089.55145  20727283.21945                  24894900.5394
        11.7504          4.7504
  23493002.9654   -7048750.54447  -5398514.50846                  23493003.0824
        22.7504         15.5004
  22928264.9734   -7710842.15748  -5904181.93246                  22928265.3124
        28.2504         25.5004
  22456378.5124   11044339.10248   8604488.95447                  22456378.9804
        30.0004         28.2504
  25106313.7464   -2612841.23945  -1937490.91844                  25106317.8594
        10.7504          3.7504
  25826272.3954   15431983.22645   6439883.35943                  25826276.8124
         9.7504          3.2504
  22053609.1294    2403777.08548   1886017.29147                  22053608.8714
        29.2504         26.2504
  24885398.8404   14752849.90146  10989455.21545                  24885400.0234
        12.2504          5.7504
 98  7  8 21 38 30.0040000  0  8G 6G 3G21G17G 1G22G23G26
  24909665.4264   26686693.55245  20787753.75145                  24909668.4964
        11.5004          4.5004
  23490654.1374   -7061093.38547  -5408132.28546                  23490654.4654
        22.2504         15.2504
  22928255.1214   -7710892.77848  -5904221.35246                  22928255.5314
        28.2504         25.5004
  22463986.9494   11084323.16248   8635645.36247                  22463987.4304
        29.7504         28.2504
  25100323.7154   -2644321.82545  -1962021.09644                  25100327.6524
        11.7504          3.7504
  25836947.8324   15488086.28245   6483599.95143                  25836951.9454
         9.7504          3.2504
  22059336.1054    2433872.94948   1909468.61847                  22059335.8484
        29.2504         26.0004
  24897650.6684   14817235.10446  11039625.48745                  24897651.7704
        12.2504          5.2504
 98  7  8 21 38 45.0040000  0  8G 6G 3G21G17G 1G22G23G26
  24924442.3094   26764344.61745  20848260.95145                  24924445.8244
        11.2504          4.5004
  23488326.4734   -7073324.52047  -5417663.01246                  23488326.8834
        22.5004         16.0004
  22928258.8094   -7710872.66748  -5904205.65946                  22928259.0554
        28.5004         25.5004
  22471609.6054   11124380.45548   8666858.83847                  22471610.0514
        29.5004         27.7504
  25094338.8484   -2675770.49045  -1986526.45244                  25094342.8674
        11.0004          4.2504
  25847633.4024   15544238.59345   6527354.88543                  25847638.7344
         9.2504          3.2504
  22065077.7074    2464046.20148   1932980.25347                  22065077.5084
        29.2504         25.7504
  24909922.4344   14881722.84646  11089875.65445                  24909923.2664
        13.0004          5.2504
 98  7  8 21 39  0.0040000  0  8G 6G 3G21G17G 1G22G23G26
  24939227.1604   26842042.53845  20908804.66244                  24939231.2274
        10.7504          4.2504
  23486020.1454   -7085443.68747  -5427106.49446                  23486020.2734
        22.7504         15.7504
  22928276.6214   -7710778.58248  -5904132.32246                  22928276.9964
        28.0004         25.2504
  22479245.5274   11164506.37948   8698125.78647                  22479245.9734
        29.7504         28.0004
  25088360.0984   -2707189.69245  -2011008.80644                  25088363.8364
        11.0004          3.7504
  25858328.1914   15600440.83945   6571148.78543                  25858332.6454
         9.5004          3.0004
  22070833.8094    2494294.44348   1956550.31746                  22070833.6564
        29.0004         25.5004
  24922212.4654   14946313.86946  11140206.31545                  24922214.1174
        12.0004          5.5004
 98  7  8 21 39 15.0040000  0  8G 6G 3G21G17G 1G22G23G26
  24954022.8164   26919788.06745  20969385.46144                  24954027.2934
        11.0004          4.0004
  23483735.2074   -7097453.54147  -5436464.80446                  23483735.3594
        23.5004         16.2504
  22928308.9184   -7710608.90648  -5904000.08646                  22928309.4454
        28.2504         25.2504
  22486894.1054   11204700.12748   8729445.58547                  22486894.5624
        29.7504         27.5004
  25082386.8634   -2738580.21546  -2035468.79744                  25082390.6374
        12.0004          4.0004
  25869032.4264   15656691.64345   6614980.48143                  25869035.8834
         9.7504          3.2504
  22076603.5904    2524614.39348   1980176.26146                  22076603.5664
        28.7504         25.5004
  24934524.3484   15011006.87846  11190616.42145                  24934525.6724
        13.2504          5.0004
 98  7  8 21 39 30.0040000  0  8G 6G 3G21G17G 1G22G23G26
  24968825.4884   26997581.83345  21030003.87944                  24968829.3204
        10.2504          4.2504
  23481470.1914   -7109354.74047  -5445738.44446                  23481470.4264
        22.7504         16.2504
  22928355.0594   -7710365.32448  -5903810.25746                  22928355.3754
        28.0004         24.7504
  22494556.1844   11244963.29048   8760819.47347                  22494556.6054
        29.7504         27.5004
  25076419.1294   -2769939.90145  -2059904.78144                  25076422.5394
        11.5004          4.2504
  25879746.5984   15712993.12145   6658851.69044                  25879749.4344
        10.0004          3.5004
  22082387.2624    2555008.26148   2003859.79946                  22082387.1214
        29.0004         25.2504
  24946854.4804   15075800.12746  11241104.64345                  24946855.3594
        12.5004          5.2504
 98  7  8 21 39 45.0040000  0  8G 6G 3G21G17G 1G22G23G26
  24983638.5204   27075421.05945  21090657.70744                  24983642.8444
        10.2504          4.2504
  23479225.9964   -7121147.01747  -5454927.21246                  23479226.2544
        23.0004         16.7504
  22928415.7464   -7710047.40348  -5903562.50946                  22928416.0514
        28.0004         25.5004
  22502230.6764   11285294.30948   8792246.24047                  22502231.0984
        29.7504         27.7504
  25070457.4734   -2801269.04845  -2084316.97444                  25070461.3754
        11.7504          4.2504
  25890470.5904   15769346.52745   6702763.35744                  25890473.8124
        10.0004          3.5004
  22088185.7624    2585479.02548   2027603.26546                  22088185.5744
        29.0004         25.5004
  24959203.1764   15140692.08846  11291669.79345                  24959204.6174
        13.2504          5.2504
 98  7  8 21 40  0.0040000  0  8G 6G 3G21G17G 1G22G23G26
  24998459.7384   27153306.17945  21151347.27044                  24998464.0624
        10.0004          3.7504
  23477002.2544   -7132832.63847  -5464032.86846                  23477002.6994
        23.0004         16.5004
  22928490.9264   -7709653.63648  -5903255.65346                  22928491.2664
        28.2504         25.0004
  22509918.1994   11325691.70048   8823724.71947                  22509918.5744
        30.0004         27.7504
  25064500.7304   -2832570.17446  -2108707.33145                  25064504.5744
        12.0004          4.5004
  25901203.5824   15825749.32945   6746713.50444                  25901207.3794
        10.0004          3.5004
  22093999.1604    2616028.31248   2051407.90746                  22093998.8794
        29.0004         25.5004
  24971569.2774   15205682.57446  11342311.69545                  24971570.8834
        12.2504          5.0004
 98  7  8 21 40 15.0040000  0  8G 6G 3G21G17G 1G22G23G26
  25013288.9804   27231237.94845  21212073.22344                  25013292.3914
         9.2504          3.7504
  23474799.1604   -7144411.52047  -5473055.34846                  23474799.6764
        23.7504         17.0004
  22928580.7704   -7709181.14448  -5902887.45246                  22928580.9344
        28.7504         25.2504
  22517619.0744   11366159.45348   8855258.03147                  22517619.2734
        30.2504         27.7504
  25058549.9344   -2863842.68445  -2133075.39944                  25058553.7544
        11.7504          4.2504
  25911945.5594   15882200.04045   6790701.00943                  25911948.9804
         9.7504          3.2504
  22099827.4804    2646657.12648   2075274.52546                  22099827.2814
        29.0004         24.7504
  24983956.1054   15270772.12346  11393030.82345                  24983957.5124
        12.5004          5.0004
 98  7  8 21 40 30.0040000  0  8G 6G 3G21G17G 1G22G23G26
  25028128.3484   27309218.44445  21272837.11244                  25028132.2624
         9.2504          3.7504
  23472616.8324   -7155880.42247  -5481992.13146                  23472617.0664
        23.7504         17.0004
  22928685.9024   -7708628.05048  -5902456.45046                  22928686.0554
        28.5004         25.2504
  22525333.5274   11406699.95248   8886848.02947                  22525333.8094
        30.0004         27.5004
  25052604.3244   -2895083.94845  -2157419.07944                  25052607.5704
        10.7504          4.0004
  25922697.1914   15938697.48045   6834724.90543                  25922700.9774
         9.7504          3.0004
  22105671.0744    2677365.88548   2099203.43447                  22105670.8754
        29.2504         25.7504
  24996359.9414   15335961.26646  11443827.54945                  24996361.0784
        12.0004          4.7504
 98  7  8 21 40 45.0040000  0  8G 6G 3G21G17G 1G22G23G26
  25042977.1684   27387250.12445  21333640.89944                  25042980.3674
         9.7504          3.5004
  23470455.8554   -7167235.94147  -5490840.56246                  23470456.2424
        23.0004         16.2504
  22928806.7154   -7707993.33748  -5901961.84947                  22928806.9844
        28.5004         25.7504
  22533062.2074   11447315.06048   8918496.15447                  22533062.3954
        30.0004         27.5004
  25046664.6684   -2926294.10845  -2181738.57145                  25046668.2894
        11.5004          4.7504
  25933456.7154   15995241.72345   6878785.30143                  25933460.6764
         9.2504          3.0004
  22111529.8954    2708153.89148   2123194.09546                  22111529.6024
        29.0004         25.0004
  25008784.8554   15401249.15946  11494701.20045                  25008785.4414
        13.0004          5.0004
 98  7  8 21 41  0.0040000  0  8G 6G 3G21G17G 1G22G23G26
  25057835.9344   27465332.19745  21394483.95844                  25057839.6024
         9.7504          3.5004
  23468316.4964   -7178477.69847  -5499600.34546                  23468316.8594
        22.7504         17.0004
  22928943.2384   -7707276.51848  -5901403.26146                  22928943.3914
        28.5004         25.5004
  22540805.8874   11488006.84348   8950204.03247                  22540806.1454
        30.2504         27.5004
  25040731.5824   -2957475.95046  -2206035.95245                  25040734.4304
        12.0004          5.0004
  25944225.1374   16051827.61245   6922878.11043                  25944228.5354
         9.7504          2.7504
  22117404.0204    2739022.69948   2147247.71946                  22117403.6454
        29.0004         25.2504
  25021226.8874   15466633.46746  11545649.99345                  25021228.5394
        12.2504          5.0004
 98  7  8 21 41 15.0040000  0  8G 6G 3G21G17G 1G22G23G26
  25072703.6914   27543463.72845  21455365.53443                  25072707.9224
        10.0004          3.2504
  23466198.4414   -7189606.17347  -5508271.85846                  23466198.7704
        23.0004         16.7504
  22929094.8484   -7706478.45348  -5900781.37547                  22929095.0704
        28.7504         25.7504
  22548563.9024   11528777.13348   8981973.08847                  22548564.3014
        29.2504         27.2504
  25034803.4414   -2988628.79145  -2230310.75145                  25034806.0084
        11.5004          4.5004
  25955000.9104   16108453.17045   6967001.84143                  25955004.8484
         9.2504          3.0004
  22123294.1374    2769974.38348   2171365.92246                  22123293.7154
        29.0004         25.2504
  25033688.7074   15532113.44946  11596673.32645                  25033689.7154
        13.2504          5.0004
 98  7  8 21 41 30.0040000  0  8G 6G 3G21G17G 1G22G23G26
  25087581.4574   27621645.28045  21516286.12443                  25087586.6254
        10.0004          3.2504
  23464102.2704   -7200621.93147  -5516855.53746                  23464102.4804
        23.0004         16.7504
  22929261.7384   -7705601.60848  -5900098.09946                  22929261.8204
        28.5004         25.5004
  22556337.7074   11569627.90048   9013804.84647                  22556338.1994
        29.7504         27.0004
  25028881.1374   -3019749.27645  -2254560.35744                  25028884.8754
        11.5004          4.2504
  25965784.1454   16165120.21345   7011157.90443                  25965790.6484
         9.5004          2.7504
  22129200.6604    2801013.60448   2195552.33646                  22129200.1804
        29.2504         24.7504
  25046166.6054   15597692.87846  11647774.16545                  25046167.6254
        12.5004          4.7504
 98  7  8 21 41 45.0040000  0  8G 6G 3G21G17G 1G22G23G26
  25102468.9734   27699875.65745  21577244.74344                  25102472.8404
        10.7504          3.5004
  23462027.8014   -7211523.59047  -5525350.31246                  23462027.9534
        23.5004         17.0004
  22929443.2544   -7704646.88648  -5899354.13747                  22929443.4654
        29.0004         26.0004
  22564126.4884   11610557.96648   9045698.40147                  22564126.9694
        30.0004         27.2504
  25022964.7774   -3050838.53545  -2278785.59145                  25022968.6914
        11.7504          5.0004
  25976575.7304   16221829.33145   7055346.71143                  25976579.8794
         9.5004          2.7504
  22135124.0904    2832142.23448   2219808.41546                  22135123.6334
        29.0004         25.0004
  25058666.4024   15663373.50346  11698953.83945                  25058666.7894
        13.5004          5.2504
 98  7  8 21 42  0.0040000  0  8G 6G 3G21G17G 1G22G23G26
  25117365.3484   27778156.13745  21638242.38544                  25117368.7584
        11.0004          3.7504
  23459974.7704   -7222310.37547  -5533755.57246                  23459975.3324
        23.2504         17.2504
  22929640.0664   -7703614.30148  -5898549.50447                  22929640.2774
        29.2504         26.7504
  22571929.6374   11651565.17548   9077652.06447                  22571930.0704
        29.2504         27.0004
  25017054.4024   -3081897.02846  -2302986.87845                  25017057.5084
        12.2504          4.7504
  25987374.0044   16278575.46945   7099564.42243                  25987376.8404
         8.2504          2.5004
  22141064.4414    2863358.57148   2244132.84346                  22141063.9734
        28.7504         24.5004
  25071183.9734   15729154.26546  11750211.54745                  25071184.8284
        14.0004          5.2504
 98  7  8 21 42 15.0040000  0  8G 6G 3G21G17G 1G22G23G26
  25132271.5594   27856489.09445  21699280.95344                  25132274.6524
        10.7504          3.5004
  23457944.7074   -7232980.53947  -5542069.96246                  23457944.9884
        23.7504         17.2504
  22929851.6054   -7702502.11548  -5897682.83947                  22929851.7704
        29.0004         26.7504
  22579747.4804   11692648.67048   9109665.17047                  22579747.8204
        30.0004         26.5004
  25011150.9494   -3112920.89346  -2327161.16645                  25011154.0434
        12.2504          4.7504
  25998179.6374   16335359.69245   7143811.75943                  25998183.5164
         8.7504          2.7504
  22147021.3244    2894662.59348   2268525.59046                  22147020.9374
        29.0004         24.5004
  25083720.3794   15795035.14946  11801547.27845                  25083721.1994
        13.0004          5.5004
